<?xml version="1.0" encoding="UTF-8" standalone="no" ?>
<gpx xmlns="http://www.topografix.com/GPX/1/1" xmlns:xsi="http://www.w3.org/2001/XMLSchema-instance" xsi:schemaLocation="http://www.topografix.com/GPX/1/1 http://www.topografix.com/GPX/1/1/gpx.xsd" version="1.1" creator="VisuGPX - https://www.visugpx.com">
  <metadata>
    <name>Port de Venasque</name>
  </metadata>
  <trk>
    <name><![CDATA[Port de Venasque_1]]></name>
    <trkseg>
      <trkpt lat="42.7215" lon="0.65371">
        <ele>1375.6</ele>
        <time>2021-10-17T07:25:20Z</time>
      </trkpt>
      <trkpt lat="42.72148" lon="0.65373">
        <ele>1375.6</ele>
        <time>2021-10-17T07:25:23Z</time>
      </trkpt>
      <trkpt lat="42.72147" lon="0.65375">
        <ele>1375.7</ele>
        <time>2021-10-17T07:25:25Z</time>
      </trkpt>
      <trkpt lat="42.72145" lon="0.65378">
        <ele>1375.6</ele>
        <time>2021-10-17T07:25:27Z</time>
      </trkpt>
      <trkpt lat="42.72144" lon="0.65381">
        <ele>1375.7</ele>
        <time>2021-10-17T07:25:29Z</time>
      </trkpt>
      <trkpt lat="42.72142" lon="0.65383">
        <ele>1375.4</ele>
        <time>2021-10-17T07:25:31Z</time>
      </trkpt>
      <trkpt lat="42.7214" lon="0.65386">
        <ele>1375.2</ele>
        <time>2021-10-17T07:25:33Z</time>
      </trkpt>
      <trkpt lat="42.72139" lon="0.65388">
        <ele>1375</ele>
        <time>2021-10-17T07:25:35Z</time>
      </trkpt>
      <trkpt lat="42.72137" lon="0.65391">
        <ele>1375.3</ele>
        <time>2021-10-17T07:25:37Z</time>
      </trkpt>
      <trkpt lat="42.72135" lon="0.65393">
        <ele>1385</ele>
        <time>2021-10-17T07:25:39Z</time>
      </trkpt>
      <trkpt lat="42.72134" lon="0.65396">
        <ele>1385</ele>
        <time>2021-10-17T07:25:40Z</time>
      </trkpt>
      <trkpt lat="42.72134" lon="0.65398">
        <ele>1385</ele>
        <time>2021-10-17T07:25:42Z</time>
      </trkpt>
      <trkpt lat="42.72133" lon="0.65402">
        <ele>1385</ele>
        <time>2021-10-17T07:25:44Z</time>
      </trkpt>
      <trkpt lat="42.72132" lon="0.65405">
        <ele>1385</ele>
        <time>2021-10-17T07:25:46Z</time>
      </trkpt>
      <trkpt lat="42.72132" lon="0.65408">
        <ele>1386</ele>
        <time>2021-10-17T07:25:48Z</time>
      </trkpt>
      <trkpt lat="42.72132" lon="0.65412">
        <ele>1386</ele>
        <time>2021-10-17T07:25:51Z</time>
      </trkpt>
      <trkpt lat="42.72131" lon="0.65414">
        <ele>1386</ele>
        <time>2021-10-17T07:25:53Z</time>
      </trkpt>
      <trkpt lat="42.72129" lon="0.65417">
        <ele>1386</ele>
        <time>2021-10-17T07:25:55Z</time>
      </trkpt>
      <trkpt lat="42.72128" lon="0.65419">
        <ele>1386</ele>
        <time>2021-10-17T07:25:58Z</time>
      </trkpt>
      <trkpt lat="42.72127" lon="0.65421">
        <ele>1386</ele>
        <time>2021-10-17T07:26:01Z</time>
      </trkpt>
      <trkpt lat="42.72125" lon="0.65423">
        <ele>1386</ele>
        <time>2021-10-17T07:26:03Z</time>
      </trkpt>
      <trkpt lat="42.72124" lon="0.65425">
        <ele>1386</ele>
        <time>2021-10-17T07:26:05Z</time>
      </trkpt>
      <trkpt lat="42.72122" lon="0.65427">
        <ele>1386</ele>
        <time>2021-10-17T07:26:07Z</time>
      </trkpt>
      <trkpt lat="42.7212" lon="0.65429">
        <ele>1386</ele>
        <time>2021-10-17T07:26:09Z</time>
      </trkpt>
      <trkpt lat="42.72119" lon="0.65431">
        <ele>1386</ele>
        <time>2021-10-17T07:26:11Z</time>
      </trkpt>
      <trkpt lat="42.72117" lon="0.65433">
        <ele>1386</ele>
        <time>2021-10-17T07:26:13Z</time>
      </trkpt>
      <trkpt lat="42.72116" lon="0.65434">
        <ele>1386</ele>
        <time>2021-10-17T07:26:15Z</time>
      </trkpt>
      <trkpt lat="42.72114" lon="0.65436">
        <ele>1386</ele>
        <time>2021-10-17T07:26:17Z</time>
      </trkpt>
      <trkpt lat="42.72112" lon="0.65438">
        <ele>1386</ele>
        <time>2021-10-17T07:26:19Z</time>
      </trkpt>
      <trkpt lat="42.72111" lon="0.6544">
        <ele>1386</ele>
        <time>2021-10-17T07:26:21Z</time>
      </trkpt>
      <trkpt lat="42.72109" lon="0.65442">
        <ele>1386</ele>
        <time>2021-10-17T07:26:23Z</time>
      </trkpt>
      <trkpt lat="42.72108" lon="0.65444">
        <ele>1386</ele>
        <time>2021-10-17T07:26:25Z</time>
      </trkpt>
      <trkpt lat="42.72107" lon="0.65446">
        <ele>1386</ele>
        <time>2021-10-17T07:26:27Z</time>
      </trkpt>
      <trkpt lat="42.72105" lon="0.65448">
        <ele>1386</ele>
        <time>2021-10-17T07:26:29Z</time>
      </trkpt>
      <trkpt lat="42.72104" lon="0.65451">
        <ele>1386</ele>
        <time>2021-10-17T07:26:30Z</time>
      </trkpt>
      <trkpt lat="42.72103" lon="0.65452">
        <ele>1386</ele>
        <time>2021-10-17T07:26:32Z</time>
      </trkpt>
      <trkpt lat="42.72101" lon="0.65454">
        <ele>1386</ele>
        <time>2021-10-17T07:26:34Z</time>
      </trkpt>
      <trkpt lat="42.721" lon="0.65457">
        <ele>1386</ele>
        <time>2021-10-17T07:26:37Z</time>
      </trkpt>
      <trkpt lat="42.721" lon="0.6546">
        <ele>1386</ele>
        <time>2021-10-17T07:26:39Z</time>
      </trkpt>
      <trkpt lat="42.72099" lon="0.65463">
        <ele>1386</ele>
        <time>2021-10-17T07:26:41Z</time>
      </trkpt>
      <trkpt lat="42.72098" lon="0.65466">
        <ele>1386</ele>
        <time>2021-10-17T07:26:43Z</time>
      </trkpt>
      <trkpt lat="42.72097" lon="0.65468">
        <ele>1386</ele>
        <time>2021-10-17T07:26:45Z</time>
      </trkpt>
      <trkpt lat="42.72096" lon="0.65472">
        <ele>1386</ele>
        <time>2021-10-17T07:26:47Z</time>
      </trkpt>
      <trkpt lat="42.72096" lon="0.65475">
        <ele>1393</ele>
        <time>2021-10-17T07:26:48Z</time>
      </trkpt>
      <trkpt lat="42.72094" lon="0.65477">
        <ele>1393</ele>
        <time>2021-10-17T07:26:50Z</time>
      </trkpt>
      <trkpt lat="42.72094" lon="0.6548">
        <ele>1393</ele>
        <time>2021-10-17T07:26:52Z</time>
      </trkpt>
      <trkpt lat="42.72093" lon="0.65486">
        <ele>1393</ele>
        <time>2021-10-17T07:26:55Z</time>
      </trkpt>
      <trkpt lat="42.72092" lon="0.65491">
        <ele>1394</ele>
        <time>2021-10-17T07:26:58Z</time>
      </trkpt>
      <trkpt lat="42.72091" lon="0.65494">
        <ele>1394</ele>
        <time>2021-10-17T07:27:00Z</time>
      </trkpt>
      <trkpt lat="42.7209" lon="0.65498">
        <ele>1394</ele>
        <time>2021-10-17T07:27:03Z</time>
      </trkpt>
      <trkpt lat="42.72089" lon="0.65501">
        <ele>1394</ele>
        <time>2021-10-17T07:27:05Z</time>
      </trkpt>
      <trkpt lat="42.72087" lon="0.65501">
        <ele>1394</ele>
        <time>2021-10-17T07:27:07Z</time>
      </trkpt>
      <trkpt lat="42.72085" lon="0.65501">
        <ele>1394</ele>
        <time>2021-10-17T07:27:09Z</time>
      </trkpt>
      <trkpt lat="42.72083" lon="0.65499">
        <ele>1394</ele>
        <time>2021-10-17T07:27:11Z</time>
      </trkpt>
      <trkpt lat="42.72081" lon="0.65498">
        <ele>1394</ele>
        <time>2021-10-17T07:27:14Z</time>
      </trkpt>
      <trkpt lat="42.72079" lon="0.65498">
        <ele>1394</ele>
        <time>2021-10-17T07:27:15Z</time>
      </trkpt>
      <trkpt lat="42.72077" lon="0.65497">
        <ele>1394</ele>
        <time>2021-10-17T07:27:17Z</time>
      </trkpt>
      <trkpt lat="42.72075" lon="0.65496">
        <ele>1394</ele>
        <time>2021-10-17T07:27:19Z</time>
      </trkpt>
      <trkpt lat="42.72073" lon="0.65495">
        <ele>1394</ele>
        <time>2021-10-17T07:27:21Z</time>
      </trkpt>
      <trkpt lat="42.72071" lon="0.65494">
        <ele>1394</ele>
        <time>2021-10-17T07:27:24Z</time>
      </trkpt>
      <trkpt lat="42.72068" lon="0.65493">
        <ele>1394</ele>
        <time>2021-10-17T07:27:25Z</time>
      </trkpt>
      <trkpt lat="42.72066" lon="0.65491">
        <ele>1394</ele>
        <time>2021-10-17T07:27:27Z</time>
      </trkpt>
      <trkpt lat="42.72065" lon="0.65489">
        <ele>1394</ele>
        <time>2021-10-17T07:27:29Z</time>
      </trkpt>
      <trkpt lat="42.72065" lon="0.65485">
        <ele>1394</ele>
        <time>2021-10-17T07:27:33Z</time>
      </trkpt>
      <trkpt lat="42.72063" lon="0.65482">
        <ele>1394</ele>
        <time>2021-10-17T07:27:35Z</time>
      </trkpt>
      <trkpt lat="42.72062" lon="0.6548">
        <ele>1389</ele>
        <time>2021-10-17T07:27:38Z</time>
      </trkpt>
      <trkpt lat="42.72059" lon="0.65478">
        <ele>1389</ele>
        <time>2021-10-17T07:27:45Z</time>
      </trkpt>
      <trkpt lat="42.72057" lon="0.65476">
        <ele>1388</ele>
        <time>2021-10-17T07:27:48Z</time>
      </trkpt>
      <trkpt lat="42.72055" lon="0.65474">
        <ele>1388</ele>
        <time>2021-10-17T07:27:51Z</time>
      </trkpt>
      <trkpt lat="42.72042" lon="0.65455">
        <ele>1388</ele>
        <time>2021-10-17T07:28:07Z</time>
      </trkpt>
      <trkpt lat="42.7204" lon="0.65453">
        <ele>1388</ele>
        <time>2021-10-17T07:28:10Z</time>
      </trkpt>
      <trkpt lat="42.72038" lon="0.65453">
        <ele>1388</ele>
        <time>2021-10-17T07:28:15Z</time>
      </trkpt>
      <trkpt lat="42.72036" lon="0.65451">
        <ele>1389</ele>
        <time>2021-10-17T07:28:18Z</time>
      </trkpt>
      <trkpt lat="42.72034" lon="0.65449">
        <ele>1389</ele>
        <time>2021-10-17T07:28:20Z</time>
      </trkpt>
      <trkpt lat="42.72033" lon="0.65448">
        <ele>1389</ele>
        <time>2021-10-17T07:28:22Z</time>
      </trkpt>
      <trkpt lat="42.72031" lon="0.65447">
        <ele>1389</ele>
        <time>2021-10-17T07:28:25Z</time>
      </trkpt>
      <trkpt lat="42.72029" lon="0.65445">
        <ele>1389</ele>
        <time>2021-10-17T07:28:28Z</time>
      </trkpt>
      <trkpt lat="42.72026" lon="0.65444">
        <ele>1389</ele>
        <time>2021-10-17T07:28:32Z</time>
      </trkpt>
      <trkpt lat="42.72024" lon="0.65442">
        <ele>1389</ele>
        <time>2021-10-17T07:28:35Z</time>
      </trkpt>
      <trkpt lat="42.72022" lon="0.65441">
        <ele>1389</ele>
        <time>2021-10-17T07:28:36Z</time>
      </trkpt>
      <trkpt lat="42.7202" lon="0.6544">
        <ele>1390</ele>
        <time>2021-10-17T07:28:38Z</time>
      </trkpt>
      <trkpt lat="42.72018" lon="0.65439">
        <ele>1390</ele>
        <time>2021-10-17T07:28:41Z</time>
      </trkpt>
      <trkpt lat="42.72016" lon="0.65439">
        <ele>1390</ele>
        <time>2021-10-17T07:28:43Z</time>
      </trkpt>
      <trkpt lat="42.72014" lon="0.65438">
        <ele>1390</ele>
        <time>2021-10-17T07:28:45Z</time>
      </trkpt>
      <trkpt lat="42.72012" lon="0.65437">
        <ele>1390</ele>
        <time>2021-10-17T07:28:47Z</time>
      </trkpt>
      <trkpt lat="42.7201" lon="0.65435">
        <ele>1390</ele>
        <time>2021-10-17T07:28:50Z</time>
      </trkpt>
      <trkpt lat="42.72008" lon="0.65433">
        <ele>1390</ele>
        <time>2021-10-17T07:28:53Z</time>
      </trkpt>
      <trkpt lat="42.72007" lon="0.65432">
        <ele>1390</ele>
        <time>2021-10-17T07:28:57Z</time>
      </trkpt>
      <trkpt lat="42.72005" lon="0.6543">
        <ele>1390</ele>
        <time>2021-10-17T07:29:01Z</time>
      </trkpt>
      <trkpt lat="42.72003" lon="0.65429">
        <ele>1390</ele>
        <time>2021-10-17T07:29:03Z</time>
      </trkpt>
      <trkpt lat="42.72002" lon="0.65427">
        <ele>1390</ele>
        <time>2021-10-17T07:29:04Z</time>
      </trkpt>
      <trkpt lat="42.72" lon="0.65425">
        <ele>1390</ele>
        <time>2021-10-17T07:29:06Z</time>
      </trkpt>
      <trkpt lat="42.72" lon="0.65422">
        <ele>1397</ele>
        <time>2021-10-17T07:29:08Z</time>
      </trkpt>
      <trkpt lat="42.72" lon="0.6542">
        <ele>1397</ele>
        <time>2021-10-17T07:29:10Z</time>
      </trkpt>
      <trkpt lat="42.72" lon="0.65417">
        <ele>1397</ele>
        <time>2021-10-17T07:29:13Z</time>
      </trkpt>
      <trkpt lat="42.72" lon="0.65413">
        <ele>1397</ele>
        <time>2021-10-17T07:29:16Z</time>
      </trkpt>
      <trkpt lat="42.71999" lon="0.6541">
        <ele>1397</ele>
        <time>2021-10-17T07:29:19Z</time>
      </trkpt>
      <trkpt lat="42.71997" lon="0.65409">
        <ele>1397</ele>
        <time>2021-10-17T07:29:27Z</time>
      </trkpt>
      <trkpt lat="42.71995" lon="0.65407">
        <ele>1397</ele>
        <time>2021-10-17T07:29:34Z</time>
      </trkpt>
      <trkpt lat="42.71993" lon="0.65406">
        <ele>1400</ele>
        <time>2021-10-17T07:29:38Z</time>
      </trkpt>
      <trkpt lat="42.7199" lon="0.65404">
        <ele>1400</ele>
        <time>2021-10-17T07:29:41Z</time>
      </trkpt>
      <trkpt lat="42.71988" lon="0.65403">
        <ele>1400</ele>
        <time>2021-10-17T07:29:42Z</time>
      </trkpt>
      <trkpt lat="42.71987" lon="0.65402">
        <ele>1400</ele>
        <time>2021-10-17T07:29:44Z</time>
      </trkpt>
      <trkpt lat="42.71985" lon="0.654">
        <ele>1401</ele>
        <time>2021-10-17T07:29:48Z</time>
      </trkpt>
      <trkpt lat="42.71983" lon="0.65399">
        <ele>1401</ele>
        <time>2021-10-17T07:29:50Z</time>
      </trkpt>
      <trkpt lat="42.7197" lon="0.65387">
        <ele>1401</ele>
        <time>2021-10-17T07:30:07Z</time>
      </trkpt>
      <trkpt lat="42.71968" lon="0.65385">
        <ele>1401</ele>
        <time>2021-10-17T07:30:11Z</time>
      </trkpt>
      <trkpt lat="42.71966" lon="0.65384">
        <ele>1401</ele>
        <time>2021-10-17T07:30:14Z</time>
      </trkpt>
      <trkpt lat="42.71964" lon="0.65384">
        <ele>1401</ele>
        <time>2021-10-17T07:30:16Z</time>
      </trkpt>
      <trkpt lat="42.71962" lon="0.65382">
        <ele>1401</ele>
        <time>2021-10-17T07:30:19Z</time>
      </trkpt>
      <trkpt lat="42.7196" lon="0.65382">
        <ele>1401</ele>
        <time>2021-10-17T07:30:22Z</time>
      </trkpt>
      <trkpt lat="42.71959" lon="0.65381">
        <ele>1401</ele>
        <time>2021-10-17T07:30:26Z</time>
      </trkpt>
      <trkpt lat="42.71957" lon="0.65379">
        <ele>1401</ele>
        <time>2021-10-17T07:30:29Z</time>
      </trkpt>
      <trkpt lat="42.71954" lon="0.65379">
        <ele>1401</ele>
        <time>2021-10-17T07:30:32Z</time>
      </trkpt>
      <trkpt lat="42.71952" lon="0.6538">
        <ele>1401</ele>
        <time>2021-10-17T07:30:36Z</time>
      </trkpt>
      <trkpt lat="42.7195" lon="0.6538">
        <ele>1401</ele>
        <time>2021-10-17T07:30:41Z</time>
      </trkpt>
      <trkpt lat="42.71948" lon="0.6538">
        <ele>1401</ele>
        <time>2021-10-17T07:30:44Z</time>
      </trkpt>
      <trkpt lat="42.71946" lon="0.6538">
        <ele>1401</ele>
        <time>2021-10-17T07:30:46Z</time>
      </trkpt>
      <trkpt lat="42.71943" lon="0.65381">
        <ele>1401</ele>
        <time>2021-10-17T07:30:49Z</time>
      </trkpt>
      <trkpt lat="42.71941" lon="0.65382">
        <ele>1401</ele>
        <time>2021-10-17T07:30:51Z</time>
      </trkpt>
      <trkpt lat="42.71939" lon="0.6538">
        <ele>1401</ele>
        <time>2021-10-17T07:30:54Z</time>
      </trkpt>
      <trkpt lat="42.71937" lon="0.6538">
        <ele>1401</ele>
        <time>2021-10-17T07:30:57Z</time>
      </trkpt>
      <trkpt lat="42.71935" lon="0.65378">
        <ele>1401</ele>
        <time>2021-10-17T07:31:00Z</time>
      </trkpt>
      <trkpt lat="42.71933" lon="0.65377">
        <ele>1414</ele>
        <time>2021-10-17T07:31:08Z</time>
      </trkpt>
      <trkpt lat="42.71931" lon="0.65376">
        <ele>1414</ele>
        <time>2021-10-17T07:31:10Z</time>
      </trkpt>
      <trkpt lat="42.71929" lon="0.65376">
        <ele>1414</ele>
        <time>2021-10-17T07:31:12Z</time>
      </trkpt>
      <trkpt lat="42.71927" lon="0.65375">
        <ele>1414</ele>
        <time>2021-10-17T07:31:15Z</time>
      </trkpt>
      <trkpt lat="42.71924" lon="0.65374">
        <ele>1415</ele>
        <time>2021-10-17T07:31:18Z</time>
      </trkpt>
      <trkpt lat="42.71923" lon="0.65373">
        <ele>1415</ele>
        <time>2021-10-17T07:31:24Z</time>
      </trkpt>
      <trkpt lat="42.7192" lon="0.65373">
        <ele>1416</ele>
        <time>2021-10-17T07:31:28Z</time>
      </trkpt>
      <trkpt lat="42.71918" lon="0.65372">
        <ele>1416</ele>
        <time>2021-10-17T07:31:31Z</time>
      </trkpt>
      <trkpt lat="42.71916" lon="0.65372">
        <ele>1416</ele>
        <time>2021-10-17T07:31:34Z</time>
      </trkpt>
      <trkpt lat="42.71913" lon="0.65372">
        <ele>1416</ele>
        <time>2021-10-17T07:31:37Z</time>
      </trkpt>
      <trkpt lat="42.71902" lon="0.65377">
        <ele>1416</ele>
        <time>2021-10-17T07:31:53Z</time>
      </trkpt>
      <trkpt lat="42.719" lon="0.65379">
        <ele>1416</ele>
        <time>2021-10-17T07:31:55Z</time>
      </trkpt>
      <trkpt lat="42.71898" lon="0.6538">
        <ele>1416</ele>
        <time>2021-10-17T07:31:58Z</time>
      </trkpt>
      <trkpt lat="42.71896" lon="0.65381">
        <ele>1416</ele>
        <time>2021-10-17T07:32:00Z</time>
      </trkpt>
      <trkpt lat="42.71894" lon="0.65382">
        <ele>1416</ele>
        <time>2021-10-17T07:32:02Z</time>
      </trkpt>
      <trkpt lat="42.71892" lon="0.65383">
        <ele>1416</ele>
        <time>2021-10-17T07:32:04Z</time>
      </trkpt>
      <trkpt lat="42.7189" lon="0.65383">
        <ele>1416</ele>
        <time>2021-10-17T07:32:06Z</time>
      </trkpt>
      <trkpt lat="42.71888" lon="0.65385">
        <ele>1416</ele>
        <time>2021-10-17T07:32:09Z</time>
      </trkpt>
      <trkpt lat="42.71886" lon="0.65385">
        <ele>1416</ele>
        <time>2021-10-17T07:32:11Z</time>
      </trkpt>
      <trkpt lat="42.71884" lon="0.65385">
        <ele>1416</ele>
        <time>2021-10-17T07:32:13Z</time>
      </trkpt>
      <trkpt lat="42.71882" lon="0.65385">
        <ele>1416</ele>
        <time>2021-10-17T07:32:15Z</time>
      </trkpt>
      <trkpt lat="42.7188" lon="0.65385">
        <ele>1416</ele>
        <time>2021-10-17T07:32:17Z</time>
      </trkpt>
      <trkpt lat="42.71877" lon="0.65385">
        <ele>1416</ele>
        <time>2021-10-17T07:32:19Z</time>
      </trkpt>
      <trkpt lat="42.71875" lon="0.65384">
        <ele>1416</ele>
        <time>2021-10-17T07:32:21Z</time>
      </trkpt>
      <trkpt lat="42.71873" lon="0.65384">
        <ele>1416</ele>
        <time>2021-10-17T07:32:23Z</time>
      </trkpt>
      <trkpt lat="42.71871" lon="0.65383">
        <ele>1416</ele>
        <time>2021-10-17T07:32:25Z</time>
      </trkpt>
      <trkpt lat="42.71868" lon="0.65383">
        <ele>1416</ele>
        <time>2021-10-17T07:32:27Z</time>
      </trkpt>
      <trkpt lat="42.71866" lon="0.65382">
        <ele>1416</ele>
        <time>2021-10-17T07:32:30Z</time>
      </trkpt>
      <trkpt lat="42.71864" lon="0.65381">
        <ele>1416</ele>
        <time>2021-10-17T07:32:32Z</time>
      </trkpt>
      <trkpt lat="42.71862" lon="0.6538">
        <ele>1416</ele>
        <time>2021-10-17T07:32:34Z</time>
      </trkpt>
      <trkpt lat="42.7186" lon="0.65379">
        <ele>1416</ele>
        <time>2021-10-17T07:32:36Z</time>
      </trkpt>
      <trkpt lat="42.71858" lon="0.65377">
        <ele>1425</ele>
        <time>2021-10-17T07:32:38Z</time>
      </trkpt>
      <trkpt lat="42.71857" lon="0.65375">
        <ele>1425</ele>
        <time>2021-10-17T07:32:40Z</time>
      </trkpt>
      <trkpt lat="42.71855" lon="0.65373">
        <ele>1425</ele>
        <time>2021-10-17T07:32:42Z</time>
      </trkpt>
      <trkpt lat="42.71853" lon="0.65371">
        <ele>1425</ele>
        <time>2021-10-17T07:32:44Z</time>
      </trkpt>
      <trkpt lat="42.71852" lon="0.65369">
        <ele>1425</ele>
        <time>2021-10-17T07:32:46Z</time>
      </trkpt>
      <trkpt lat="42.7185" lon="0.65367">
        <ele>1426</ele>
        <time>2021-10-17T07:32:48Z</time>
      </trkpt>
      <trkpt lat="42.71848" lon="0.65364">
        <ele>1426</ele>
        <time>2021-10-17T07:32:50Z</time>
      </trkpt>
      <trkpt lat="42.71846" lon="0.65361">
        <ele>1426</ele>
        <time>2021-10-17T07:32:52Z</time>
      </trkpt>
      <trkpt lat="42.71845" lon="0.65359">
        <ele>1426</ele>
        <time>2021-10-17T07:32:54Z</time>
      </trkpt>
      <trkpt lat="42.71843" lon="0.65356">
        <ele>1426</ele>
        <time>2021-10-17T07:32:56Z</time>
      </trkpt>
      <trkpt lat="42.71842" lon="0.65354">
        <ele>1425</ele>
        <time>2021-10-17T07:32:58Z</time>
      </trkpt>
      <trkpt lat="42.7184" lon="0.65351">
        <ele>1425</ele>
        <time>2021-10-17T07:33:00Z</time>
      </trkpt>
      <trkpt lat="42.71839" lon="0.65349">
        <ele>1425</ele>
        <time>2021-10-17T07:33:02Z</time>
      </trkpt>
      <trkpt lat="42.71837" lon="0.65347">
        <ele>1425</ele>
        <time>2021-10-17T07:33:04Z</time>
      </trkpt>
      <trkpt lat="42.71835" lon="0.65345">
        <ele>1425</ele>
        <time>2021-10-17T07:33:06Z</time>
      </trkpt>
      <trkpt lat="42.71833" lon="0.65345">
        <ele>1425</ele>
        <time>2021-10-17T07:33:08Z</time>
      </trkpt>
      <trkpt lat="42.7183" lon="0.65343">
        <ele>1425</ele>
        <time>2021-10-17T07:33:10Z</time>
      </trkpt>
      <trkpt lat="42.71828" lon="0.65341">
        <ele>1425</ele>
        <time>2021-10-17T07:33:12Z</time>
      </trkpt>
      <trkpt lat="42.71826" lon="0.6534">
        <ele>1425</ele>
        <time>2021-10-17T07:33:14Z</time>
      </trkpt>
      <trkpt lat="42.71824" lon="0.65339">
        <ele>1425</ele>
        <time>2021-10-17T07:33:16Z</time>
      </trkpt>
      <trkpt lat="42.71822" lon="0.65338">
        <ele>1425</ele>
        <time>2021-10-17T07:33:18Z</time>
      </trkpt>
      <trkpt lat="42.7182" lon="0.65338">
        <ele>1425</ele>
        <time>2021-10-17T07:33:20Z</time>
      </trkpt>
      <trkpt lat="42.71818" lon="0.65336">
        <ele>1425</ele>
        <time>2021-10-17T07:33:23Z</time>
      </trkpt>
      <trkpt lat="42.71816" lon="0.65335">
        <ele>1425</ele>
        <time>2021-10-17T07:33:26Z</time>
      </trkpt>
      <trkpt lat="42.71815" lon="0.65334">
        <ele>1425</ele>
        <time>2021-10-17T07:33:29Z</time>
      </trkpt>
      <trkpt lat="42.71813" lon="0.65333">
        <ele>1425</ele>
        <time>2021-10-17T07:33:43Z</time>
      </trkpt>
      <trkpt lat="42.71811" lon="0.65332">
        <ele>1425</ele>
        <time>2021-10-17T07:33:46Z</time>
      </trkpt>
      <trkpt lat="42.71809" lon="0.6533">
        <ele>1425</ele>
        <time>2021-10-17T07:33:49Z</time>
      </trkpt>
      <trkpt lat="42.71807" lon="0.65328">
        <ele>1425</ele>
        <time>2021-10-17T07:33:50Z</time>
      </trkpt>
      <trkpt lat="42.71804" lon="0.65327">
        <ele>1425</ele>
        <time>2021-10-17T07:33:52Z</time>
      </trkpt>
      <trkpt lat="42.71802" lon="0.65326">
        <ele>1425</ele>
        <time>2021-10-17T07:33:54Z</time>
      </trkpt>
      <trkpt lat="42.71799" lon="0.65326">
        <ele>1425</ele>
        <time>2021-10-17T07:33:56Z</time>
      </trkpt>
      <trkpt lat="42.71797" lon="0.65325">
        <ele>1425</ele>
        <time>2021-10-17T07:33:59Z</time>
      </trkpt>
      <trkpt lat="42.71795" lon="0.65323">
        <ele>1425</ele>
        <time>2021-10-17T07:34:01Z</time>
      </trkpt>
      <trkpt lat="42.71793" lon="0.65321">
        <ele>1425</ele>
        <time>2021-10-17T07:34:03Z</time>
      </trkpt>
      <trkpt lat="42.71791" lon="0.65319">
        <ele>1425</ele>
        <time>2021-10-17T07:34:05Z</time>
      </trkpt>
      <trkpt lat="42.71789" lon="0.65317">
        <ele>1425</ele>
        <time>2021-10-17T07:34:07Z</time>
      </trkpt>
      <trkpt lat="42.71787" lon="0.65315">
        <ele>1425</ele>
        <time>2021-10-17T07:34:09Z</time>
      </trkpt>
      <trkpt lat="42.71786" lon="0.65313">
        <ele>1425</ele>
        <time>2021-10-17T07:34:11Z</time>
      </trkpt>
      <trkpt lat="42.71785" lon="0.6531">
        <ele>1425</ele>
        <time>2021-10-17T07:34:13Z</time>
      </trkpt>
      <trkpt lat="42.71784" lon="0.65308">
        <ele>1425</ele>
        <time>2021-10-17T07:34:15Z</time>
      </trkpt>
      <trkpt lat="42.71783" lon="0.65305">
        <ele>1425</ele>
        <time>2021-10-17T07:34:17Z</time>
      </trkpt>
      <trkpt lat="42.71782" lon="0.65303">
        <ele>1425</ele>
        <time>2021-10-17T07:34:19Z</time>
      </trkpt>
      <trkpt lat="42.71781" lon="0.653">
        <ele>1425</ele>
        <time>2021-10-17T07:34:21Z</time>
      </trkpt>
      <trkpt lat="42.7178" lon="0.65297">
        <ele>1425</ele>
        <time>2021-10-17T07:34:23Z</time>
      </trkpt>
      <trkpt lat="42.71779" lon="0.65295">
        <ele>1425</ele>
        <time>2021-10-17T07:34:25Z</time>
      </trkpt>
      <trkpt lat="42.71778" lon="0.65293">
        <ele>1425</ele>
        <time>2021-10-17T07:34:27Z</time>
      </trkpt>
      <trkpt lat="42.71776" lon="0.6529">
        <ele>1425</ele>
        <time>2021-10-17T07:34:29Z</time>
      </trkpt>
      <trkpt lat="42.71775" lon="0.65287">
        <ele>1425</ele>
        <time>2021-10-17T07:34:31Z</time>
      </trkpt>
      <trkpt lat="42.71774" lon="0.65285">
        <ele>1425</ele>
        <time>2021-10-17T07:34:33Z</time>
      </trkpt>
      <trkpt lat="42.71772" lon="0.65283">
        <ele>1425</ele>
        <time>2021-10-17T07:34:35Z</time>
      </trkpt>
      <trkpt lat="42.71771" lon="0.65282">
        <ele>1425</ele>
        <time>2021-10-17T07:34:37Z</time>
      </trkpt>
      <trkpt lat="42.71769" lon="0.65281">
        <ele>1425</ele>
        <time>2021-10-17T07:34:39Z</time>
      </trkpt>
      <trkpt lat="42.71767" lon="0.6528">
        <ele>1425</ele>
        <time>2021-10-17T07:34:41Z</time>
      </trkpt>
      <trkpt lat="42.71765" lon="0.65278">
        <ele>1425</ele>
        <time>2021-10-17T07:34:43Z</time>
      </trkpt>
      <trkpt lat="42.71763" lon="0.65277">
        <ele>1425</ele>
        <time>2021-10-17T07:34:45Z</time>
      </trkpt>
      <trkpt lat="42.71761" lon="0.65276">
        <ele>1425</ele>
        <time>2021-10-17T07:34:47Z</time>
      </trkpt>
      <trkpt lat="42.71759" lon="0.65275">
        <ele>1425</ele>
        <time>2021-10-17T07:34:49Z</time>
      </trkpt>
      <trkpt lat="42.71757" lon="0.65274">
        <ele>1425</ele>
        <time>2021-10-17T07:34:51Z</time>
      </trkpt>
      <trkpt lat="42.71755" lon="0.65273">
        <ele>1425</ele>
        <time>2021-10-17T07:34:53Z</time>
      </trkpt>
      <trkpt lat="42.71753" lon="0.65271">
        <ele>1425</ele>
        <time>2021-10-17T07:34:55Z</time>
      </trkpt>
      <trkpt lat="42.71751" lon="0.6527">
        <ele>1432</ele>
        <time>2021-10-17T07:34:58Z</time>
      </trkpt>
      <trkpt lat="42.71749" lon="0.65269">
        <ele>1432</ele>
        <time>2021-10-17T07:35:00Z</time>
      </trkpt>
      <trkpt lat="42.71747" lon="0.65268">
        <ele>1432</ele>
        <time>2021-10-17T07:35:02Z</time>
      </trkpt>
      <trkpt lat="42.71746" lon="0.65267">
        <ele>1432</ele>
        <time>2021-10-17T07:35:04Z</time>
      </trkpt>
      <trkpt lat="42.71744" lon="0.65266">
        <ele>1432</ele>
        <time>2021-10-17T07:35:06Z</time>
      </trkpt>
      <trkpt lat="42.71741" lon="0.65265">
        <ele>1432</ele>
        <time>2021-10-17T07:35:08Z</time>
      </trkpt>
      <trkpt lat="42.71739" lon="0.65264">
        <ele>1434</ele>
        <time>2021-10-17T07:35:09Z</time>
      </trkpt>
      <trkpt lat="42.71737" lon="0.65263">
        <ele>1434</ele>
        <time>2021-10-17T07:35:11Z</time>
      </trkpt>
      <trkpt lat="42.71735" lon="0.65263">
        <ele>1434</ele>
        <time>2021-10-17T07:35:13Z</time>
      </trkpt>
      <trkpt lat="42.71733" lon="0.65262">
        <ele>1434</ele>
        <time>2021-10-17T07:35:15Z</time>
      </trkpt>
      <trkpt lat="42.71731" lon="0.65261">
        <ele>1434</ele>
        <time>2021-10-17T07:35:17Z</time>
      </trkpt>
      <trkpt lat="42.71729" lon="0.6526">
        <ele>1434</ele>
        <time>2021-10-17T07:35:20Z</time>
      </trkpt>
      <trkpt lat="42.71727" lon="0.6526">
        <ele>1434</ele>
        <time>2021-10-17T07:35:21Z</time>
      </trkpt>
      <trkpt lat="42.71725" lon="0.65259">
        <ele>1434</ele>
        <time>2021-10-17T07:35:23Z</time>
      </trkpt>
      <trkpt lat="42.71723" lon="0.65258">
        <ele>1434</ele>
        <time>2021-10-17T07:35:25Z</time>
      </trkpt>
      <trkpt lat="42.71721" lon="0.65258">
        <ele>1434</ele>
        <time>2021-10-17T07:35:27Z</time>
      </trkpt>
      <trkpt lat="42.71719" lon="0.65257">
        <ele>1434</ele>
        <time>2021-10-17T07:35:30Z</time>
      </trkpt>
      <trkpt lat="42.71716" lon="0.65256">
        <ele>1434</ele>
        <time>2021-10-17T07:35:32Z</time>
      </trkpt>
      <trkpt lat="42.71714" lon="0.65254">
        <ele>1434</ele>
        <time>2021-10-17T07:35:34Z</time>
      </trkpt>
      <trkpt lat="42.71712" lon="0.65253">
        <ele>1434</ele>
        <time>2021-10-17T07:35:36Z</time>
      </trkpt>
      <trkpt lat="42.7171" lon="0.65252">
        <ele>1436</ele>
        <time>2021-10-17T07:35:38Z</time>
      </trkpt>
      <trkpt lat="42.71708" lon="0.65253">
        <ele>1436</ele>
        <time>2021-10-17T07:35:41Z</time>
      </trkpt>
      <trkpt lat="42.71706" lon="0.65255">
        <ele>1436</ele>
        <time>2021-10-17T07:35:44Z</time>
      </trkpt>
      <trkpt lat="42.71705" lon="0.65252">
        <ele>1436</ele>
        <time>2021-10-17T07:35:49Z</time>
      </trkpt>
      <trkpt lat="42.71704" lon="0.65249">
        <ele>1436</ele>
        <time>2021-10-17T07:35:51Z</time>
      </trkpt>
      <trkpt lat="42.71702" lon="0.65246">
        <ele>1436</ele>
        <time>2021-10-17T07:35:53Z</time>
      </trkpt>
      <trkpt lat="42.71699" lon="0.65244">
        <ele>1436</ele>
        <time>2021-10-17T07:35:55Z</time>
      </trkpt>
      <trkpt lat="42.71696" lon="0.65242">
        <ele>1436</ele>
        <time>2021-10-17T07:35:57Z</time>
      </trkpt>
      <trkpt lat="42.71694" lon="0.65241">
        <ele>1436</ele>
        <time>2021-10-17T07:36:00Z</time>
      </trkpt>
      <trkpt lat="42.71691" lon="0.6524">
        <ele>1436</ele>
        <time>2021-10-17T07:36:02Z</time>
      </trkpt>
      <trkpt lat="42.71689" lon="0.65238">
        <ele>1436</ele>
        <time>2021-10-17T07:36:04Z</time>
      </trkpt>
      <trkpt lat="42.71687" lon="0.65237">
        <ele>1436</ele>
        <time>2021-10-17T07:36:06Z</time>
      </trkpt>
      <trkpt lat="42.71685" lon="0.65236">
        <ele>1437</ele>
        <time>2021-10-17T07:36:08Z</time>
      </trkpt>
      <trkpt lat="42.71682" lon="0.65235">
        <ele>1437</ele>
        <time>2021-10-17T07:36:10Z</time>
      </trkpt>
      <trkpt lat="42.7168" lon="0.65234">
        <ele>1437</ele>
        <time>2021-10-17T07:36:12Z</time>
      </trkpt>
      <trkpt lat="42.71678" lon="0.65233">
        <ele>1437</ele>
        <time>2021-10-17T07:36:14Z</time>
      </trkpt>
      <trkpt lat="42.71676" lon="0.65233">
        <ele>1437</ele>
        <time>2021-10-17T07:36:16Z</time>
      </trkpt>
      <trkpt lat="42.71674" lon="0.65232">
        <ele>1438</ele>
        <time>2021-10-17T07:36:18Z</time>
      </trkpt>
      <trkpt lat="42.71672" lon="0.65232">
        <ele>1438</ele>
        <time>2021-10-17T07:36:20Z</time>
      </trkpt>
      <trkpt lat="42.7167" lon="0.65231">
        <ele>1438</ele>
        <time>2021-10-17T07:36:22Z</time>
      </trkpt>
      <trkpt lat="42.71668" lon="0.65231">
        <ele>1438</ele>
        <time>2021-10-17T07:36:24Z</time>
      </trkpt>
      <trkpt lat="42.71666" lon="0.6523">
        <ele>1438</ele>
        <time>2021-10-17T07:36:26Z</time>
      </trkpt>
      <trkpt lat="42.71664" lon="0.6523">
        <ele>1439</ele>
        <time>2021-10-17T07:36:28Z</time>
      </trkpt>
      <trkpt lat="42.71661" lon="0.65229">
        <ele>1439</ele>
        <time>2021-10-17T07:36:30Z</time>
      </trkpt>
      <trkpt lat="42.71659" lon="0.65229">
        <ele>1439</ele>
        <time>2021-10-17T07:36:32Z</time>
      </trkpt>
      <trkpt lat="42.71657" lon="0.65229">
        <ele>1439</ele>
        <time>2021-10-17T07:36:34Z</time>
      </trkpt>
      <trkpt lat="42.71656" lon="0.65229">
        <ele>1439</ele>
        <time>2021-10-17T07:36:36Z</time>
      </trkpt>
      <trkpt lat="42.71653" lon="0.65229">
        <ele>1440</ele>
        <time>2021-10-17T07:36:38Z</time>
      </trkpt>
      <trkpt lat="42.71651" lon="0.65229">
        <ele>1440</ele>
        <time>2021-10-17T07:36:40Z</time>
      </trkpt>
      <trkpt lat="42.71648" lon="0.65229">
        <ele>1440</ele>
        <time>2021-10-17T07:36:42Z</time>
      </trkpt>
      <trkpt lat="42.71646" lon="0.65228">
        <ele>1440</ele>
        <time>2021-10-17T07:36:44Z</time>
      </trkpt>
      <trkpt lat="42.71644" lon="0.65228">
        <ele>1440</ele>
        <time>2021-10-17T07:36:46Z</time>
      </trkpt>
      <trkpt lat="42.71641" lon="0.65227">
        <ele>1440</ele>
        <time>2021-10-17T07:36:48Z</time>
      </trkpt>
      <trkpt lat="42.71639" lon="0.65226">
        <ele>1440</ele>
        <time>2021-10-17T07:36:50Z</time>
      </trkpt>
      <trkpt lat="42.71637" lon="0.65225">
        <ele>1440</ele>
        <time>2021-10-17T07:36:52Z</time>
      </trkpt>
      <trkpt lat="42.71634" lon="0.65224">
        <ele>1440</ele>
        <time>2021-10-17T07:36:54Z</time>
      </trkpt>
      <trkpt lat="42.71632" lon="0.65223">
        <ele>1440</ele>
        <time>2021-10-17T07:36:56Z</time>
      </trkpt>
      <trkpt lat="42.7163" lon="0.65222">
        <ele>1441</ele>
        <time>2021-10-17T07:36:58Z</time>
      </trkpt>
      <trkpt lat="42.71628" lon="0.6522">
        <ele>1441</ele>
        <time>2021-10-17T07:37:00Z</time>
      </trkpt>
      <trkpt lat="42.71627" lon="0.65218">
        <ele>1441</ele>
        <time>2021-10-17T07:37:02Z</time>
      </trkpt>
      <trkpt lat="42.71625" lon="0.65217">
        <ele>1441</ele>
        <time>2021-10-17T07:37:04Z</time>
      </trkpt>
      <trkpt lat="42.71622" lon="0.65215">
        <ele>1441</ele>
        <time>2021-10-17T07:37:06Z</time>
      </trkpt>
      <trkpt lat="42.7162" lon="0.65214">
        <ele>1442</ele>
        <time>2021-10-17T07:37:08Z</time>
      </trkpt>
      <trkpt lat="42.71618" lon="0.65212">
        <ele>1442</ele>
        <time>2021-10-17T07:37:10Z</time>
      </trkpt>
      <trkpt lat="42.71616" lon="0.6521">
        <ele>1442</ele>
        <time>2021-10-17T07:37:12Z</time>
      </trkpt>
      <trkpt lat="42.71615" lon="0.65208">
        <ele>1442</ele>
        <time>2021-10-17T07:37:14Z</time>
      </trkpt>
      <trkpt lat="42.71613" lon="0.65206">
        <ele>1442</ele>
        <time>2021-10-17T07:37:16Z</time>
      </trkpt>
      <trkpt lat="42.7161" lon="0.65204">
        <ele>1445</ele>
        <time>2021-10-17T07:37:18Z</time>
      </trkpt>
      <trkpt lat="42.71609" lon="0.65202">
        <ele>1445</ele>
        <time>2021-10-17T07:37:20Z</time>
      </trkpt>
      <trkpt lat="42.71607" lon="0.652">
        <ele>1445</ele>
        <time>2021-10-17T07:37:22Z</time>
      </trkpt>
      <trkpt lat="42.71606" lon="0.65198">
        <ele>1445</ele>
        <time>2021-10-17T07:37:24Z</time>
      </trkpt>
      <trkpt lat="42.71604" lon="0.65196">
        <ele>1445</ele>
        <time>2021-10-17T07:37:26Z</time>
      </trkpt>
      <trkpt lat="42.71603" lon="0.65194">
        <ele>1445</ele>
        <time>2021-10-17T07:37:28Z</time>
      </trkpt>
      <trkpt lat="42.71601" lon="0.65193">
        <ele>1445</ele>
        <time>2021-10-17T07:37:30Z</time>
      </trkpt>
      <trkpt lat="42.716" lon="0.6519">
        <ele>1445</ele>
        <time>2021-10-17T07:37:32Z</time>
      </trkpt>
      <trkpt lat="42.71598" lon="0.65188">
        <ele>1445</ele>
        <time>2021-10-17T07:37:34Z</time>
      </trkpt>
      <trkpt lat="42.71597" lon="0.65186">
        <ele>1445</ele>
        <time>2021-10-17T07:37:36Z</time>
      </trkpt>
      <trkpt lat="42.71595" lon="0.65184">
        <ele>1446</ele>
        <time>2021-10-17T07:37:38Z</time>
      </trkpt>
      <trkpt lat="42.71593" lon="0.65182">
        <ele>1446</ele>
        <time>2021-10-17T07:37:40Z</time>
      </trkpt>
      <trkpt lat="42.71591" lon="0.6518">
        <ele>1446</ele>
        <time>2021-10-17T07:37:42Z</time>
      </trkpt>
      <trkpt lat="42.7159" lon="0.65178">
        <ele>1446</ele>
        <time>2021-10-17T07:37:44Z</time>
      </trkpt>
      <trkpt lat="42.71589" lon="0.65175">
        <ele>1446</ele>
        <time>2021-10-17T07:37:46Z</time>
      </trkpt>
      <trkpt lat="42.71589" lon="0.65172">
        <ele>1448</ele>
        <time>2021-10-17T07:37:48Z</time>
      </trkpt>
      <trkpt lat="42.71589" lon="0.65168">
        <ele>1448</ele>
        <time>2021-10-17T07:37:50Z</time>
      </trkpt>
      <trkpt lat="42.71588" lon="0.65165">
        <ele>1448</ele>
        <time>2021-10-17T07:37:52Z</time>
      </trkpt>
      <trkpt lat="42.71588" lon="0.65163">
        <ele>1448</ele>
        <time>2021-10-17T07:37:54Z</time>
      </trkpt>
      <trkpt lat="42.71587" lon="0.6516">
        <ele>1448</ele>
        <time>2021-10-17T07:37:56Z</time>
      </trkpt>
      <trkpt lat="42.71586" lon="0.65157">
        <ele>1449</ele>
        <time>2021-10-17T07:37:58Z</time>
      </trkpt>
      <trkpt lat="42.71585" lon="0.65154">
        <ele>1449</ele>
        <time>2021-10-17T07:38:00Z</time>
      </trkpt>
      <trkpt lat="42.71584" lon="0.65152">
        <ele>1449</ele>
        <time>2021-10-17T07:38:02Z</time>
      </trkpt>
      <trkpt lat="42.71583" lon="0.6515">
        <ele>1449</ele>
        <time>2021-10-17T07:38:06Z</time>
      </trkpt>
      <trkpt lat="42.71581" lon="0.65148">
        <ele>1449</ele>
        <time>2021-10-17T07:38:09Z</time>
      </trkpt>
      <trkpt lat="42.7158" lon="0.65145">
        <ele>1449</ele>
        <time>2021-10-17T07:38:12Z</time>
      </trkpt>
      <trkpt lat="42.71579" lon="0.65143">
        <ele>1449</ele>
        <time>2021-10-17T07:38:15Z</time>
      </trkpt>
      <trkpt lat="42.71577" lon="0.65142">
        <ele>1449</ele>
        <time>2021-10-17T07:38:17Z</time>
      </trkpt>
      <trkpt lat="42.71575" lon="0.65141">
        <ele>1451</ele>
        <time>2021-10-17T07:38:19Z</time>
      </trkpt>
      <trkpt lat="42.71573" lon="0.65139">
        <ele>1451</ele>
        <time>2021-10-17T07:38:21Z</time>
      </trkpt>
      <trkpt lat="42.71573" lon="0.65136">
        <ele>1451</ele>
        <time>2021-10-17T07:38:24Z</time>
      </trkpt>
      <trkpt lat="42.71571" lon="0.65133">
        <ele>1451</ele>
        <time>2021-10-17T07:38:27Z</time>
      </trkpt>
      <trkpt lat="42.7157" lon="0.65131">
        <ele>1455</ele>
        <time>2021-10-17T07:38:29Z</time>
      </trkpt>
      <trkpt lat="42.71569" lon="0.65129">
        <ele>1455</ele>
        <time>2021-10-17T07:38:31Z</time>
      </trkpt>
      <trkpt lat="42.71568" lon="0.65126">
        <ele>1455</ele>
        <time>2021-10-17T07:38:34Z</time>
      </trkpt>
      <trkpt lat="42.71567" lon="0.65124">
        <ele>1455</ele>
        <time>2021-10-17T07:38:37Z</time>
      </trkpt>
      <trkpt lat="42.71565" lon="0.65121">
        <ele>1455</ele>
        <time>2021-10-17T07:38:41Z</time>
      </trkpt>
      <trkpt lat="42.71565" lon="0.65118">
        <ele>1455</ele>
        <time>2021-10-17T07:38:44Z</time>
      </trkpt>
      <trkpt lat="42.71564" lon="0.65116">
        <ele>1455</ele>
        <time>2021-10-17T07:38:59Z</time>
      </trkpt>
      <trkpt lat="42.71561" lon="0.65115">
        <ele>1455</ele>
        <time>2021-10-17T07:39:02Z</time>
      </trkpt>
      <trkpt lat="42.71559" lon="0.65114">
        <ele>1455</ele>
        <time>2021-10-17T07:39:05Z</time>
      </trkpt>
      <trkpt lat="42.71557" lon="0.65114">
        <ele>1455</ele>
        <time>2021-10-17T07:39:09Z</time>
      </trkpt>
      <trkpt lat="42.71554" lon="0.65114">
        <ele>1455</ele>
        <time>2021-10-17T07:39:13Z</time>
      </trkpt>
      <trkpt lat="42.71551" lon="0.65113">
        <ele>1455</ele>
        <time>2021-10-17T07:39:17Z</time>
      </trkpt>
      <trkpt lat="42.71549" lon="0.65113">
        <ele>1455</ele>
        <time>2021-10-17T07:39:20Z</time>
      </trkpt>
      <trkpt lat="42.71546" lon="0.65113">
        <ele>1455</ele>
        <time>2021-10-17T07:39:23Z</time>
      </trkpt>
      <trkpt lat="42.71544" lon="0.65113">
        <ele>1455</ele>
        <time>2021-10-17T07:39:26Z</time>
      </trkpt>
      <trkpt lat="42.71541" lon="0.65112">
        <ele>1455</ele>
        <time>2021-10-17T07:39:29Z</time>
      </trkpt>
      <trkpt lat="42.71539" lon="0.65112">
        <ele>1455</ele>
        <time>2021-10-17T07:39:32Z</time>
      </trkpt>
      <trkpt lat="42.71537" lon="0.65111">
        <ele>1455</ele>
        <time>2021-10-17T07:39:35Z</time>
      </trkpt>
      <trkpt lat="42.71534" lon="0.6511">
        <ele>1467</ele>
        <time>2021-10-17T07:39:38Z</time>
      </trkpt>
      <trkpt lat="42.71532" lon="0.65108">
        <ele>1467</ele>
        <time>2021-10-17T07:39:41Z</time>
      </trkpt>
      <trkpt lat="42.71529" lon="0.65106">
        <ele>1467</ele>
        <time>2021-10-17T07:39:45Z</time>
      </trkpt>
      <trkpt lat="42.71514" lon="0.65094">
        <ele>1467</ele>
        <time>2021-10-17T07:40:03Z</time>
      </trkpt>
      <trkpt lat="42.71512" lon="0.65094">
        <ele>1467</ele>
        <time>2021-10-17T07:40:05Z</time>
      </trkpt>
      <trkpt lat="42.7151" lon="0.65094">
        <ele>1471</ele>
        <time>2021-10-17T07:40:08Z</time>
      </trkpt>
      <trkpt lat="42.71507" lon="0.65093">
        <ele>1471</ele>
        <time>2021-10-17T07:40:11Z</time>
      </trkpt>
      <trkpt lat="42.71506" lon="0.65092">
        <ele>1471</ele>
        <time>2021-10-17T07:40:14Z</time>
      </trkpt>
      <trkpt lat="42.71504" lon="0.65091">
        <ele>1471</ele>
        <time>2021-10-17T07:40:17Z</time>
      </trkpt>
      <trkpt lat="42.71501" lon="0.65089">
        <ele>1471</ele>
        <time>2021-10-17T07:40:21Z</time>
      </trkpt>
      <trkpt lat="42.71499" lon="0.65087">
        <ele>1471</ele>
        <time>2021-10-17T07:40:24Z</time>
      </trkpt>
      <trkpt lat="42.71496" lon="0.65086">
        <ele>1471</ele>
        <time>2021-10-17T07:40:27Z</time>
      </trkpt>
      <trkpt lat="42.71494" lon="0.65084">
        <ele>1471</ele>
        <time>2021-10-17T07:40:30Z</time>
      </trkpt>
      <trkpt lat="42.71492" lon="0.65083">
        <ele>1471</ele>
        <time>2021-10-17T07:40:33Z</time>
      </trkpt>
      <trkpt lat="42.7149" lon="0.65081">
        <ele>1471</ele>
        <time>2021-10-17T07:40:35Z</time>
      </trkpt>
      <trkpt lat="42.71488" lon="0.6508">
        <ele>1476</ele>
        <time>2021-10-17T07:40:38Z</time>
      </trkpt>
      <trkpt lat="42.71486" lon="0.65078">
        <ele>1476</ele>
        <time>2021-10-17T07:40:41Z</time>
      </trkpt>
      <trkpt lat="42.71484" lon="0.65077">
        <ele>1476</ele>
        <time>2021-10-17T07:40:44Z</time>
      </trkpt>
      <trkpt lat="42.71483" lon="0.65075">
        <ele>1476</ele>
        <time>2021-10-17T07:40:47Z</time>
      </trkpt>
      <trkpt lat="42.71481" lon="0.65073">
        <ele>1476</ele>
        <time>2021-10-17T07:40:50Z</time>
      </trkpt>
      <trkpt lat="42.71479" lon="0.65072">
        <ele>1476</ele>
        <time>2021-10-17T07:40:53Z</time>
      </trkpt>
      <trkpt lat="42.71476" lon="0.6507">
        <ele>1476</ele>
        <time>2021-10-17T07:40:56Z</time>
      </trkpt>
      <trkpt lat="42.71475" lon="0.65068">
        <ele>1481</ele>
        <time>2021-10-17T07:40:58Z</time>
      </trkpt>
      <trkpt lat="42.71474" lon="0.65065">
        <ele>1481</ele>
        <time>2021-10-17T07:41:00Z</time>
      </trkpt>
      <trkpt lat="42.71473" lon="0.65063">
        <ele>1481</ele>
        <time>2021-10-17T07:41:02Z</time>
      </trkpt>
      <trkpt lat="42.71472" lon="0.6506">
        <ele>1481</ele>
        <time>2021-10-17T07:41:04Z</time>
      </trkpt>
      <trkpt lat="42.71472" lon="0.65058">
        <ele>1481</ele>
        <time>2021-10-17T07:41:06Z</time>
      </trkpt>
      <trkpt lat="42.7147" lon="0.65055">
        <ele>1481</ele>
        <time>2021-10-17T07:41:09Z</time>
      </trkpt>
      <trkpt lat="42.71468" lon="0.65053">
        <ele>1481</ele>
        <time>2021-10-17T07:41:12Z</time>
      </trkpt>
      <trkpt lat="42.71465" lon="0.65052">
        <ele>1481</ele>
        <time>2021-10-17T07:41:16Z</time>
      </trkpt>
      <trkpt lat="42.71463" lon="0.65052">
        <ele>1484</ele>
        <time>2021-10-17T07:41:18Z</time>
      </trkpt>
      <trkpt lat="42.7146" lon="0.6505">
        <ele>1484</ele>
        <time>2021-10-17T07:41:21Z</time>
      </trkpt>
      <trkpt lat="42.71459" lon="0.6505">
        <ele>1484</ele>
        <time>2021-10-17T07:41:23Z</time>
      </trkpt>
      <trkpt lat="42.71456" lon="0.65048">
        <ele>1484</ele>
        <time>2021-10-17T07:41:26Z</time>
      </trkpt>
      <trkpt lat="42.71454" lon="0.65047">
        <ele>1484</ele>
        <time>2021-10-17T07:41:29Z</time>
      </trkpt>
      <trkpt lat="42.71452" lon="0.65046">
        <ele>1484</ele>
        <time>2021-10-17T07:41:30Z</time>
      </trkpt>
      <trkpt lat="42.7145" lon="0.65045">
        <ele>1484</ele>
        <time>2021-10-17T07:41:32Z</time>
      </trkpt>
      <trkpt lat="42.71449" lon="0.65043">
        <ele>1484</ele>
        <time>2021-10-17T07:41:35Z</time>
      </trkpt>
      <trkpt lat="42.71447" lon="0.65041">
        <ele>1484</ele>
        <time>2021-10-17T07:41:39Z</time>
      </trkpt>
      <trkpt lat="42.71445" lon="0.6504">
        <ele>1484</ele>
        <time>2021-10-17T07:41:41Z</time>
      </trkpt>
      <trkpt lat="42.71444" lon="0.65039">
        <ele>1484</ele>
        <time>2021-10-17T07:41:43Z</time>
      </trkpt>
      <trkpt lat="42.71442" lon="0.65038">
        <ele>1484</ele>
        <time>2021-10-17T07:41:45Z</time>
      </trkpt>
      <trkpt lat="42.7144" lon="0.65036">
        <ele>1484</ele>
        <time>2021-10-17T07:41:49Z</time>
      </trkpt>
      <trkpt lat="42.7144" lon="0.65034">
        <ele>1484</ele>
        <time>2021-10-17T07:41:55Z</time>
      </trkpt>
      <trkpt lat="42.71439" lon="0.65036">
        <ele>1484</ele>
        <time>2021-10-17T07:42:39Z</time>
      </trkpt>
      <trkpt lat="42.7144" lon="0.65033">
        <ele>1484</ele>
        <time>2021-10-17T07:43:02Z</time>
      </trkpt>
      <trkpt lat="42.71439" lon="0.65036">
        <ele>1484</ele>
        <time>2021-10-17T07:43:25Z</time>
      </trkpt>
      <trkpt lat="42.7144" lon="0.65038">
        <ele>1484</ele>
        <time>2021-10-17T07:43:42Z</time>
      </trkpt>
      <trkpt lat="42.71438" lon="0.65036">
        <ele>1484</ele>
        <time>2021-10-17T07:44:14Z</time>
      </trkpt>
      <trkpt lat="42.71436" lon="0.65035">
        <ele>1484</ele>
        <time>2021-10-17T07:44:15Z</time>
      </trkpt>
      <trkpt lat="42.71434" lon="0.65033">
        <ele>1484</ele>
        <time>2021-10-17T07:44:19Z</time>
      </trkpt>
      <trkpt lat="42.71432" lon="0.65032">
        <ele>1484</ele>
        <time>2021-10-17T07:44:22Z</time>
      </trkpt>
      <trkpt lat="42.71423" lon="0.65028">
        <ele>1484</ele>
        <time>2021-10-17T07:44:35Z</time>
      </trkpt>
      <trkpt lat="42.71414" lon="0.65024">
        <ele>1484</ele>
        <time>2021-10-17T07:44:47Z</time>
      </trkpt>
      <trkpt lat="42.71405" lon="0.65027">
        <ele>1484</ele>
        <time>2021-10-17T07:44:59Z</time>
      </trkpt>
      <trkpt lat="42.71399" lon="0.65028">
        <ele>1484</ele>
        <time>2021-10-17T07:45:04Z</time>
      </trkpt>
      <trkpt lat="42.71391" lon="0.65033">
        <ele>1484</ele>
        <time>2021-10-17T07:45:13Z</time>
      </trkpt>
      <trkpt lat="42.71389" lon="0.65035">
        <ele>1484</ele>
        <time>2021-10-17T07:45:16Z</time>
      </trkpt>
      <trkpt lat="42.71387" lon="0.65036">
        <ele>1484</ele>
        <time>2021-10-17T07:45:19Z</time>
      </trkpt>
      <trkpt lat="42.71385" lon="0.65038">
        <ele>1484</ele>
        <time>2021-10-17T07:45:21Z</time>
      </trkpt>
      <trkpt lat="42.71384" lon="0.6504">
        <ele>1484</ele>
        <time>2021-10-17T07:45:23Z</time>
      </trkpt>
      <trkpt lat="42.71382" lon="0.65043">
        <ele>1484</ele>
        <time>2021-10-17T07:45:26Z</time>
      </trkpt>
      <trkpt lat="42.7138" lon="0.65045">
        <ele>1484</ele>
        <time>2021-10-17T07:45:30Z</time>
      </trkpt>
      <trkpt lat="42.71379" lon="0.65046">
        <ele>1484</ele>
        <time>2021-10-17T07:45:32Z</time>
      </trkpt>
      <trkpt lat="42.71376" lon="0.65049">
        <ele>1484</ele>
        <time>2021-10-17T07:45:36Z</time>
      </trkpt>
      <trkpt lat="42.71374" lon="0.65051">
        <ele>1505</ele>
        <time>2021-10-17T07:45:38Z</time>
      </trkpt>
      <trkpt lat="42.71372" lon="0.65053">
        <ele>1505</ele>
        <time>2021-10-17T07:45:42Z</time>
      </trkpt>
      <trkpt lat="42.71364" lon="0.6506">
        <ele>1505</ele>
        <time>2021-10-17T07:45:54Z</time>
      </trkpt>
      <trkpt lat="42.71356" lon="0.65065">
        <ele>1505</ele>
        <time>2021-10-17T07:46:07Z</time>
      </trkpt>
      <trkpt lat="42.71347" lon="0.65071">
        <ele>1505</ele>
        <time>2021-10-17T07:46:22Z</time>
      </trkpt>
      <trkpt lat="42.71338" lon="0.65071">
        <ele>1505</ele>
        <time>2021-10-17T07:46:35Z</time>
      </trkpt>
      <trkpt lat="42.71328" lon="0.65067">
        <ele>1505</ele>
        <time>2021-10-17T07:46:50Z</time>
      </trkpt>
      <trkpt lat="42.7132" lon="0.65058">
        <ele>1505</ele>
        <time>2021-10-17T07:47:00Z</time>
      </trkpt>
      <trkpt lat="42.71313" lon="0.65048">
        <ele>1505</ele>
        <time>2021-10-17T07:47:06Z</time>
      </trkpt>
      <trkpt lat="42.71301" lon="0.65032">
        <ele>1505</ele>
        <time>2021-10-17T07:47:26Z</time>
      </trkpt>
      <trkpt lat="42.71292" lon="0.65026">
        <ele>1505</ele>
        <time>2021-10-17T07:47:42Z</time>
      </trkpt>
      <trkpt lat="42.71285" lon="0.65019">
        <ele>1505</ele>
        <time>2021-10-17T07:47:53Z</time>
      </trkpt>
      <trkpt lat="42.71289" lon="0.65007">
        <ele>1505</ele>
        <time>2021-10-17T07:48:03Z</time>
      </trkpt>
      <trkpt lat="42.71295" lon="0.64996">
        <ele>1505</ele>
        <time>2021-10-17T07:48:11Z</time>
      </trkpt>
      <trkpt lat="42.71301" lon="0.64984">
        <ele>1505</ele>
        <time>2021-10-17T07:48:17Z</time>
      </trkpt>
      <trkpt lat="42.71305" lon="0.64972">
        <ele>1531</ele>
        <time>2021-10-17T07:48:28Z</time>
      </trkpt>
      <trkpt lat="42.71305" lon="0.6496">
        <ele>1531</ele>
        <time>2021-10-17T07:48:39Z</time>
      </trkpt>
      <trkpt lat="42.71301" lon="0.64949">
        <ele>1531</ele>
        <time>2021-10-17T07:48:49Z</time>
      </trkpt>
      <trkpt lat="42.71292" lon="0.64948">
        <ele>1531</ele>
        <time>2021-10-17T07:49:06Z</time>
      </trkpt>
      <trkpt lat="42.7128" lon="0.64954">
        <ele>1531</ele>
        <time>2021-10-17T07:49:13Z</time>
      </trkpt>
      <trkpt lat="42.71271" lon="0.64956">
        <ele>1531</ele>
        <time>2021-10-17T07:49:26Z</time>
      </trkpt>
      <trkpt lat="42.71261" lon="0.64952">
        <ele>1531</ele>
        <time>2021-10-17T07:49:44Z</time>
      </trkpt>
      <trkpt lat="42.71264" lon="0.64939">
        <ele>1531</ele>
        <time>2021-10-17T07:49:50Z</time>
      </trkpt>
      <trkpt lat="42.71264" lon="0.64927">
        <ele>1531</ele>
        <time>2021-10-17T07:50:03Z</time>
      </trkpt>
      <trkpt lat="42.71268" lon="0.64915">
        <ele>1531</ele>
        <time>2021-10-17T07:50:22Z</time>
      </trkpt>
      <trkpt lat="42.71276" lon="0.64904">
        <ele>1531</ele>
        <time>2021-10-17T07:50:36Z</time>
      </trkpt>
      <trkpt lat="42.71285" lon="0.64899">
        <ele>1531</ele>
        <time>2021-10-17T07:50:45Z</time>
      </trkpt>
      <trkpt lat="42.71293" lon="0.64892">
        <ele>1531</ele>
        <time>2021-10-17T07:50:52Z</time>
      </trkpt>
      <trkpt lat="42.71301" lon="0.64887">
        <ele>1531</ele>
        <time>2021-10-17T07:51:00Z</time>
      </trkpt>
      <trkpt lat="42.71309" lon="0.6488">
        <ele>1531</ele>
        <time>2021-10-17T07:51:22Z</time>
      </trkpt>
      <trkpt lat="42.71312" lon="0.64868">
        <ele>1531</ele>
        <time>2021-10-17T07:51:34Z</time>
      </trkpt>
      <trkpt lat="42.71303" lon="0.64868">
        <ele>1531</ele>
        <time>2021-10-17T07:51:47Z</time>
      </trkpt>
      <trkpt lat="42.71294" lon="0.64862">
        <ele>1531</ele>
        <time>2021-10-17T07:52:00Z</time>
      </trkpt>
      <trkpt lat="42.71284" lon="0.64858">
        <ele>1570</ele>
        <time>2021-10-17T07:52:08Z</time>
      </trkpt>
      <trkpt lat="42.71274" lon="0.6486">
        <ele>1570</ele>
        <time>2021-10-17T07:52:15Z</time>
      </trkpt>
      <trkpt lat="42.71263" lon="0.64864">
        <ele>1570</ele>
        <time>2021-10-17T07:52:23Z</time>
      </trkpt>
      <trkpt lat="42.71254" lon="0.64868">
        <ele>1570</ele>
        <time>2021-10-17T07:52:29Z</time>
      </trkpt>
      <trkpt lat="42.71258" lon="0.64856">
        <ele>1574</ele>
        <time>2021-10-17T07:52:38Z</time>
      </trkpt>
      <trkpt lat="42.71248" lon="0.64851">
        <ele>1574</ele>
        <time>2021-10-17T07:52:50Z</time>
      </trkpt>
      <trkpt lat="42.71239" lon="0.6485">
        <ele>1574</ele>
        <time>2021-10-17T07:53:00Z</time>
      </trkpt>
      <trkpt lat="42.71229" lon="0.64852">
        <ele>1574</ele>
        <time>2021-10-17T07:53:12Z</time>
      </trkpt>
      <trkpt lat="42.7122" lon="0.64859">
        <ele>1574</ele>
        <time>2021-10-17T07:53:27Z</time>
      </trkpt>
      <trkpt lat="42.71212" lon="0.64865">
        <ele>1574</ele>
        <time>2021-10-17T07:53:33Z</time>
      </trkpt>
      <trkpt lat="42.71206" lon="0.64854">
        <ele>1574</ele>
        <time>2021-10-17T07:53:47Z</time>
      </trkpt>
      <trkpt lat="42.71204" lon="0.64841">
        <ele>1574</ele>
        <time>2021-10-17T07:54:01Z</time>
      </trkpt>
      <trkpt lat="42.71195" lon="0.64837">
        <ele>1574</ele>
        <time>2021-10-17T07:54:13Z</time>
      </trkpt>
      <trkpt lat="42.71185" lon="0.64835">
        <ele>1574</ele>
        <time>2021-10-17T07:54:20Z</time>
      </trkpt>
      <trkpt lat="42.71176" lon="0.64832">
        <ele>1574</ele>
        <time>2021-10-17T07:54:45Z</time>
      </trkpt>
      <trkpt lat="42.71167" lon="0.64836">
        <ele>1574</ele>
        <time>2021-10-17T07:54:54Z</time>
      </trkpt>
      <trkpt lat="42.71158" lon="0.64839">
        <ele>1574</ele>
        <time>2021-10-17T07:55:12Z</time>
      </trkpt>
      <trkpt lat="42.71149" lon="0.64834">
        <ele>1574</ele>
        <time>2021-10-17T07:55:27Z</time>
      </trkpt>
      <trkpt lat="42.71139" lon="0.64835">
        <ele>1574</ele>
        <time>2021-10-17T07:55:34Z</time>
      </trkpt>
      <trkpt lat="42.71146" lon="0.64824">
        <ele>1574</ele>
        <time>2021-10-17T07:55:50Z</time>
      </trkpt>
      <trkpt lat="42.71153" lon="0.64816">
        <ele>1574</ele>
        <time>2021-10-17T07:55:56Z</time>
      </trkpt>
      <trkpt lat="42.71143" lon="0.64812">
        <ele>1574</ele>
        <time>2021-10-17T07:56:10Z</time>
      </trkpt>
      <trkpt lat="42.71134" lon="0.64815">
        <ele>1574</ele>
        <time>2021-10-17T07:56:23Z</time>
      </trkpt>
      <trkpt lat="42.71125" lon="0.64819">
        <ele>1574</ele>
        <time>2021-10-17T07:56:31Z</time>
      </trkpt>
      <trkpt lat="42.71116" lon="0.64816">
        <ele>1618</ele>
        <time>2021-10-17T07:56:38Z</time>
      </trkpt>
      <trkpt lat="42.71122" lon="0.64806">
        <ele>1618</ele>
        <time>2021-10-17T07:56:57Z</time>
      </trkpt>
      <trkpt lat="42.71133" lon="0.64799">
        <ele>1618</ele>
        <time>2021-10-17T07:57:05Z</time>
      </trkpt>
      <trkpt lat="42.71141" lon="0.64789">
        <ele>1618</ele>
        <time>2021-10-17T07:57:11Z</time>
      </trkpt>
      <trkpt lat="42.7115" lon="0.64779">
        <ele>1618</ele>
        <time>2021-10-17T07:57:16Z</time>
      </trkpt>
      <trkpt lat="42.71141" lon="0.64779">
        <ele>1618</ele>
        <time>2021-10-17T07:57:30Z</time>
      </trkpt>
      <trkpt lat="42.71133" lon="0.64786">
        <ele>1618</ele>
        <time>2021-10-17T07:57:41Z</time>
      </trkpt>
      <trkpt lat="42.71123" lon="0.64786">
        <ele>1618</ele>
        <time>2021-10-17T07:57:56Z</time>
      </trkpt>
      <trkpt lat="42.71125" lon="0.64772">
        <ele>1618</ele>
        <time>2021-10-17T07:58:06Z</time>
      </trkpt>
      <trkpt lat="42.71116" lon="0.64769">
        <ele>1618</ele>
        <time>2021-10-17T07:58:25Z</time>
      </trkpt>
      <trkpt lat="42.71113" lon="0.64758">
        <ele>1618</ele>
        <time>2021-10-17T07:58:41Z</time>
      </trkpt>
      <trkpt lat="42.711" lon="0.64762">
        <ele>1618</ele>
        <time>2021-10-17T07:58:54Z</time>
      </trkpt>
      <trkpt lat="42.71101" lon="0.6475">
        <ele>1618</ele>
        <time>2021-10-17T07:59:10Z</time>
      </trkpt>
      <trkpt lat="42.71089" lon="0.64759">
        <ele>1618</ele>
        <time>2021-10-17T07:59:25Z</time>
      </trkpt>
      <trkpt lat="42.71097" lon="0.64753">
        <ele>1618</ele>
        <time>2021-10-17T07:59:39Z</time>
      </trkpt>
      <trkpt lat="42.71096" lon="0.64738">
        <ele>1618</ele>
        <time>2021-10-17T07:59:49Z</time>
      </trkpt>
      <trkpt lat="42.71107" lon="0.64726">
        <ele>1618</ele>
        <time>2021-10-17T07:59:51Z</time>
      </trkpt>
      <trkpt lat="42.71101" lon="0.64737">
        <ele>1618</ele>
        <time>2021-10-17T08:00:09Z</time>
      </trkpt>
      <trkpt lat="42.71095" lon="0.64727">
        <ele>1618</ele>
        <time>2021-10-17T08:00:25Z</time>
      </trkpt>
      <trkpt lat="42.71087" lon="0.64722">
        <ele>1618</ele>
        <time>2021-10-17T08:00:35Z</time>
      </trkpt>
      <trkpt lat="42.71074" lon="0.64722">
        <ele>1618</ele>
        <time>2021-10-17T08:00:49Z</time>
      </trkpt>
      <trkpt lat="42.71064" lon="0.64726">
        <ele>1618</ele>
        <time>2021-10-17T08:00:59Z</time>
      </trkpt>
      <trkpt lat="42.71054" lon="0.64724">
        <ele>1618</ele>
        <time>2021-10-17T08:01:07Z</time>
      </trkpt>
      <trkpt lat="42.71044" lon="0.64726">
        <ele>1618</ele>
        <time>2021-10-17T08:01:12Z</time>
      </trkpt>
      <trkpt lat="42.71047" lon="0.64714">
        <ele>1618</ele>
        <time>2021-10-17T08:01:20Z</time>
      </trkpt>
      <trkpt lat="42.71038" lon="0.64708">
        <ele>1618</ele>
        <time>2021-10-17T08:01:30Z</time>
      </trkpt>
      <trkpt lat="42.71047" lon="0.64706">
        <ele>1618</ele>
        <time>2021-10-17T08:01:42Z</time>
      </trkpt>
      <trkpt lat="42.71057" lon="0.64708">
        <ele>1618</ele>
        <time>2021-10-17T08:01:49Z</time>
      </trkpt>
      <trkpt lat="42.71067" lon="0.64707">
        <ele>1618</ele>
        <time>2021-10-17T08:01:57Z</time>
      </trkpt>
      <trkpt lat="42.7106" lon="0.64698">
        <ele>1618</ele>
        <time>2021-10-17T08:02:17Z</time>
      </trkpt>
      <trkpt lat="42.71051" lon="0.64691">
        <ele>1618</ele>
        <time>2021-10-17T08:02:32Z</time>
      </trkpt>
      <trkpt lat="42.71043" lon="0.64687">
        <ele>1618</ele>
        <time>2021-10-17T08:02:44Z</time>
      </trkpt>
      <trkpt lat="42.71034" lon="0.64681">
        <ele>1618</ele>
        <time>2021-10-17T08:03:01Z</time>
      </trkpt>
      <trkpt lat="42.71025" lon="0.64677">
        <ele>1618</ele>
        <time>2021-10-17T08:03:10Z</time>
      </trkpt>
      <trkpt lat="42.71035" lon="0.64673">
        <ele>1618</ele>
        <time>2021-10-17T08:03:23Z</time>
      </trkpt>
      <trkpt lat="42.71043" lon="0.64665">
        <ele>1618</ele>
        <time>2021-10-17T08:03:31Z</time>
      </trkpt>
      <trkpt lat="42.71051" lon="0.64657">
        <ele>1685</ele>
        <time>2021-10-17T08:03:38Z</time>
      </trkpt>
      <trkpt lat="42.71045" lon="0.64668">
        <ele>1685</ele>
        <time>2021-10-17T08:03:57Z</time>
      </trkpt>
      <trkpt lat="42.71038" lon="0.64677">
        <ele>1685</ele>
        <time>2021-10-17T08:04:11Z</time>
      </trkpt>
      <trkpt lat="42.71045" lon="0.64668">
        <ele>1685</ele>
        <time>2021-10-17T08:04:34Z</time>
      </trkpt>
      <trkpt lat="42.71056" lon="0.6467">
        <ele>1685</ele>
        <time>2021-10-17T08:04:58Z</time>
      </trkpt>
      <trkpt lat="42.71041" lon="0.64662">
        <ele>1685</ele>
        <time>2021-10-17T08:05:27Z</time>
      </trkpt>
      <trkpt lat="42.71039" lon="0.64648">
        <ele>1685</ele>
        <time>2021-10-17T08:05:36Z</time>
      </trkpt>
      <trkpt lat="42.7103" lon="0.64645">
        <ele>1685</ele>
        <time>2021-10-17T08:05:47Z</time>
      </trkpt>
      <trkpt lat="42.71023" lon="0.64636">
        <ele>1685</ele>
        <time>2021-10-17T08:06:00Z</time>
      </trkpt>
      <trkpt lat="42.71033" lon="0.64639">
        <ele>1685</ele>
        <time>2021-10-17T08:06:30Z</time>
      </trkpt>
      <trkpt lat="42.71042" lon="0.64635">
        <ele>1703</ele>
        <time>2021-10-17T08:06:38Z</time>
      </trkpt>
      <trkpt lat="42.7105" lon="0.64627">
        <ele>1703</ele>
        <time>2021-10-17T08:06:43Z</time>
      </trkpt>
      <trkpt lat="42.71038" lon="0.64625">
        <ele>1703</ele>
        <time>2021-10-17T08:06:52Z</time>
      </trkpt>
      <trkpt lat="42.71028" lon="0.64623">
        <ele>1703</ele>
        <time>2021-10-17T08:07:00Z</time>
      </trkpt>
      <trkpt lat="42.71018" lon="0.64624">
        <ele>1703</ele>
        <time>2021-10-17T08:07:09Z</time>
      </trkpt>
      <trkpt lat="42.71008" lon="0.64623">
        <ele>1703</ele>
        <time>2021-10-17T08:07:19Z</time>
      </trkpt>
      <trkpt lat="42.70999" lon="0.64621">
        <ele>1703</ele>
        <time>2021-10-17T08:07:30Z</time>
      </trkpt>
      <trkpt lat="42.71002" lon="0.64608">
        <ele>1703</ele>
        <time>2021-10-17T08:07:46Z</time>
      </trkpt>
      <trkpt lat="42.70996" lon="0.64617">
        <ele>1703</ele>
        <time>2021-10-17T08:08:04Z</time>
      </trkpt>
      <trkpt lat="42.70987" lon="0.64618">
        <ele>1703</ele>
        <time>2021-10-17T08:08:12Z</time>
      </trkpt>
      <trkpt lat="42.70977" lon="0.64618">
        <ele>1703</ele>
        <time>2021-10-17T08:08:20Z</time>
      </trkpt>
      <trkpt lat="42.70968" lon="0.64621">
        <ele>1718</ele>
        <time>2021-10-17T08:08:28Z</time>
      </trkpt>
      <trkpt lat="42.70959" lon="0.6462">
        <ele>1718</ele>
        <time>2021-10-17T08:08:45Z</time>
      </trkpt>
      <trkpt lat="42.70951" lon="0.64612">
        <ele>1718</ele>
        <time>2021-10-17T08:09:00Z</time>
      </trkpt>
      <trkpt lat="42.70941" lon="0.64611">
        <ele>1718</ele>
        <time>2021-10-17T08:09:11Z</time>
      </trkpt>
      <trkpt lat="42.70932" lon="0.64612">
        <ele>1718</ele>
        <time>2021-10-17T08:09:25Z</time>
      </trkpt>
      <trkpt lat="42.70939" lon="0.64604">
        <ele>1718</ele>
        <time>2021-10-17T08:09:44Z</time>
      </trkpt>
      <trkpt lat="42.70949" lon="0.64598">
        <ele>1718</ele>
        <time>2021-10-17T08:09:53Z</time>
      </trkpt>
      <trkpt lat="42.70957" lon="0.64593">
        <ele>1718</ele>
        <time>2021-10-17T08:10:01Z</time>
      </trkpt>
      <trkpt lat="42.70948" lon="0.64587">
        <ele>1718</ele>
        <time>2021-10-17T08:10:39Z</time>
      </trkpt>
      <trkpt lat="42.70942" lon="0.64577">
        <ele>1718</ele>
        <time>2021-10-17T08:10:54Z</time>
      </trkpt>
      <trkpt lat="42.70934" lon="0.6457">
        <ele>1718</ele>
        <time>2021-10-17T08:11:12Z</time>
      </trkpt>
      <trkpt lat="42.70924" lon="0.64574">
        <ele>1718</ele>
        <time>2021-10-17T08:11:21Z</time>
      </trkpt>
      <trkpt lat="42.70914" lon="0.64572">
        <ele>1718</ele>
        <time>2021-10-17T08:11:30Z</time>
      </trkpt>
      <trkpt lat="42.70905" lon="0.64573">
        <ele>1718</ele>
        <time>2021-10-17T08:11:40Z</time>
      </trkpt>
      <trkpt lat="42.70895" lon="0.64575">
        <ele>1718</ele>
        <time>2021-10-17T08:11:51Z</time>
      </trkpt>
      <trkpt lat="42.70886" lon="0.6457">
        <ele>1718</ele>
        <time>2021-10-17T08:12:01Z</time>
      </trkpt>
      <trkpt lat="42.70877" lon="0.64573">
        <ele>1756</ele>
        <time>2021-10-17T08:12:18Z</time>
      </trkpt>
      <trkpt lat="42.70869" lon="0.6458">
        <ele>1756</ele>
        <time>2021-10-17T08:12:29Z</time>
      </trkpt>
      <trkpt lat="42.70865" lon="0.64592">
        <ele>1759</ele>
        <time>2021-10-17T08:12:38Z</time>
      </trkpt>
      <trkpt lat="42.7086" lon="0.64603">
        <ele>1759</ele>
        <time>2021-10-17T08:12:46Z</time>
      </trkpt>
      <trkpt lat="42.70852" lon="0.64611">
        <ele>1759</ele>
        <time>2021-10-17T08:13:04Z</time>
      </trkpt>
      <trkpt lat="42.70844" lon="0.64618">
        <ele>1759</ele>
        <time>2021-10-17T08:13:17Z</time>
      </trkpt>
      <trkpt lat="42.70835" lon="0.6462">
        <ele>1759</ele>
        <time>2021-10-17T08:13:26Z</time>
      </trkpt>
      <trkpt lat="42.70826" lon="0.64614">
        <ele>1759</ele>
        <time>2021-10-17T08:13:39Z</time>
      </trkpt>
      <trkpt lat="42.70818" lon="0.64609">
        <ele>1759</ele>
        <time>2021-10-17T08:13:47Z</time>
      </trkpt>
      <trkpt lat="42.70809" lon="0.64605">
        <ele>1769</ele>
        <time>2021-10-17T08:13:58Z</time>
      </trkpt>
      <trkpt lat="42.708" lon="0.64607">
        <ele>1769</ele>
        <time>2021-10-17T08:14:13Z</time>
      </trkpt>
      <trkpt lat="42.7079" lon="0.6461">
        <ele>1769</ele>
        <time>2021-10-17T08:14:25Z</time>
      </trkpt>
      <trkpt lat="42.70781" lon="0.64614">
        <ele>1769</ele>
        <time>2021-10-17T08:14:34Z</time>
      </trkpt>
      <trkpt lat="42.70772" lon="0.64616">
        <ele>1769</ele>
        <time>2021-10-17T08:14:45Z</time>
      </trkpt>
      <trkpt lat="42.70763" lon="0.64618">
        <ele>1769</ele>
        <time>2021-10-17T08:14:54Z</time>
      </trkpt>
      <trkpt lat="42.70756" lon="0.64626">
        <ele>1769</ele>
        <time>2021-10-17T08:15:23Z</time>
      </trkpt>
      <trkpt lat="42.70756" lon="0.64639">
        <ele>1769</ele>
        <time>2021-10-17T08:15:32Z</time>
      </trkpt>
      <trkpt lat="42.70756" lon="0.64652">
        <ele>1769</ele>
        <time>2021-10-17T08:15:45Z</time>
      </trkpt>
      <trkpt lat="42.70752" lon="0.64663">
        <ele>1769</ele>
        <time>2021-10-17T08:15:59Z</time>
      </trkpt>
      <trkpt lat="42.70761" lon="0.64685">
        <ele>1783</ele>
        <time>2021-10-17T08:16:19Z</time>
      </trkpt>
      <trkpt lat="42.70761" lon="0.64698">
        <ele>1783</ele>
        <time>2021-10-17T08:16:32Z</time>
      </trkpt>
      <trkpt lat="42.70759" lon="0.6471">
        <ele>1783</ele>
        <time>2021-10-17T08:16:39Z</time>
      </trkpt>
      <trkpt lat="42.70762" lon="0.64723">
        <ele>1783</ele>
        <time>2021-10-17T08:16:49Z</time>
      </trkpt>
      <trkpt lat="42.70763" lon="0.64736">
        <ele>1783</ele>
        <time>2021-10-17T08:17:00Z</time>
      </trkpt>
      <trkpt lat="42.70765" lon="0.64748">
        <ele>1783</ele>
        <time>2021-10-17T08:17:12Z</time>
      </trkpt>
      <trkpt lat="42.70758" lon="0.6474">
        <ele>1793</ele>
        <time>2021-10-17T08:17:38Z</time>
      </trkpt>
      <trkpt lat="42.70751" lon="0.64732">
        <ele>1793</ele>
        <time>2021-10-17T08:17:50Z</time>
      </trkpt>
      <trkpt lat="42.70743" lon="0.64725">
        <ele>1798</ele>
        <time>2021-10-17T08:17:58Z</time>
      </trkpt>
      <trkpt lat="42.70739" lon="0.64737">
        <ele>1798</ele>
        <time>2021-10-17T08:18:16Z</time>
      </trkpt>
      <trkpt lat="42.70738" lon="0.6475">
        <ele>1798</ele>
        <time>2021-10-17T08:18:27Z</time>
      </trkpt>
      <trkpt lat="42.7074" lon="0.64762">
        <ele>1798</ele>
        <time>2021-10-17T08:18:39Z</time>
      </trkpt>
      <trkpt lat="42.70745" lon="0.64773">
        <ele>1798</ele>
        <time>2021-10-17T08:18:50Z</time>
      </trkpt>
      <trkpt lat="42.70735" lon="0.64775">
        <ele>1798</ele>
        <time>2021-10-17T08:19:06Z</time>
      </trkpt>
      <trkpt lat="42.70727" lon="0.64769">
        <ele>1811</ele>
        <time>2021-10-17T08:19:18Z</time>
      </trkpt>
      <trkpt lat="42.70721" lon="0.6476">
        <ele>1811</ele>
        <time>2021-10-17T08:19:31Z</time>
      </trkpt>
      <trkpt lat="42.70713" lon="0.64768">
        <ele>1811</ele>
        <time>2021-10-17T08:20:00Z</time>
      </trkpt>
      <trkpt lat="42.70712" lon="0.6478">
        <ele>1811</ele>
        <time>2021-10-17T08:20:12Z</time>
      </trkpt>
      <trkpt lat="42.70714" lon="0.64793">
        <ele>1811</ele>
        <time>2021-10-17T08:20:27Z</time>
      </trkpt>
      <trkpt lat="42.70705" lon="0.64794">
        <ele>1811</ele>
        <time>2021-10-17T08:20:54Z</time>
      </trkpt>
      <trkpt lat="42.70698" lon="0.64786">
        <ele>1811</ele>
        <time>2021-10-17T08:21:06Z</time>
      </trkpt>
      <trkpt lat="42.70691" lon="0.6476">
        <ele>1811</ele>
        <time>2021-10-17T08:21:27Z</time>
      </trkpt>
      <trkpt lat="42.70687" lon="0.64771">
        <ele>1811</ele>
        <time>2021-10-17T08:21:44Z</time>
      </trkpt>
      <trkpt lat="42.70684" lon="0.64783">
        <ele>1811</ele>
        <time>2021-10-17T08:21:57Z</time>
      </trkpt>
      <trkpt lat="42.7068" lon="0.64795">
        <ele>1835</ele>
        <time>2021-10-17T08:22:08Z</time>
      </trkpt>
      <trkpt lat="42.70678" lon="0.64809">
        <ele>1835</ele>
        <time>2021-10-17T08:22:26Z</time>
      </trkpt>
      <trkpt lat="42.70684" lon="0.64819">
        <ele>1835</ele>
        <time>2021-10-17T08:22:37Z</time>
      </trkpt>
      <trkpt lat="42.7069" lon="0.6483">
        <ele>1835</ele>
        <time>2021-10-17T08:22:49Z</time>
      </trkpt>
      <trkpt lat="42.70681" lon="0.64828">
        <ele>1835</ele>
        <time>2021-10-17T08:22:59Z</time>
      </trkpt>
      <trkpt lat="42.70671" lon="0.64828">
        <ele>1835</ele>
        <time>2021-10-17T08:23:11Z</time>
      </trkpt>
      <trkpt lat="42.70661" lon="0.64829">
        <ele>1835</ele>
        <time>2021-10-17T08:23:19Z</time>
      </trkpt>
      <trkpt lat="42.70651" lon="0.64824">
        <ele>1835</ele>
        <time>2021-10-17T08:23:27Z</time>
      </trkpt>
      <trkpt lat="42.70653" lon="0.64812">
        <ele>1848</ele>
        <time>2021-10-17T08:23:38Z</time>
      </trkpt>
      <trkpt lat="42.70656" lon="0.64801">
        <ele>1850</ele>
        <time>2021-10-17T08:23:48Z</time>
      </trkpt>
      <trkpt lat="42.70657" lon="0.64788">
        <ele>1851</ele>
        <time>2021-10-17T08:23:58Z</time>
      </trkpt>
      <trkpt lat="42.7065" lon="0.64795">
        <ele>1851</ele>
        <time>2021-10-17T08:24:40Z</time>
      </trkpt>
      <trkpt lat="42.70641" lon="0.64789">
        <ele>1851</ele>
        <time>2021-10-17T08:24:52Z</time>
      </trkpt>
      <trkpt lat="42.70635" lon="0.6478">
        <ele>1851</ele>
        <time>2021-10-17T08:25:03Z</time>
      </trkpt>
      <trkpt lat="42.70628" lon="0.64771">
        <ele>1851</ele>
        <time>2021-10-17T08:25:26Z</time>
      </trkpt>
      <trkpt lat="42.70626" lon="0.64759">
        <ele>1851</ele>
        <time>2021-10-17T08:25:53Z</time>
      </trkpt>
      <trkpt lat="42.70619" lon="0.64748">
        <ele>1851</ele>
        <time>2021-10-17T08:26:09Z</time>
      </trkpt>
      <trkpt lat="42.70621" lon="0.64736">
        <ele>1851</ele>
        <time>2021-10-17T08:26:20Z</time>
      </trkpt>
      <trkpt lat="42.70616" lon="0.64725">
        <ele>1851</ele>
        <time>2021-10-17T08:26:34Z</time>
      </trkpt>
      <trkpt lat="42.70614" lon="0.64737">
        <ele>1851</ele>
        <time>2021-10-17T08:26:57Z</time>
      </trkpt>
      <trkpt lat="42.70612" lon="0.6475">
        <ele>1851</ele>
        <time>2021-10-17T08:27:09Z</time>
      </trkpt>
      <trkpt lat="42.70607" lon="0.64739">
        <ele>1851</ele>
        <time>2021-10-17T08:27:27Z</time>
      </trkpt>
      <trkpt lat="42.70607" lon="0.64725">
        <ele>1851</ele>
        <time>2021-10-17T08:27:37Z</time>
      </trkpt>
      <trkpt lat="42.706" lon="0.64734">
        <ele>1851</ele>
        <time>2021-10-17T08:27:51Z</time>
      </trkpt>
      <trkpt lat="42.70597" lon="0.64745">
        <ele>1851</ele>
        <time>2021-10-17T08:28:02Z</time>
      </trkpt>
      <trkpt lat="42.70597" lon="0.64758">
        <ele>1851</ele>
        <time>2021-10-17T08:28:20Z</time>
      </trkpt>
      <trkpt lat="42.70597" lon="0.6477">
        <ele>1851</ele>
        <time>2021-10-17T08:28:32Z</time>
      </trkpt>
      <trkpt lat="42.70595" lon="0.64782">
        <ele>1851</ele>
        <time>2021-10-17T08:29:11Z</time>
      </trkpt>
      <trkpt lat="42.70584" lon="0.64782">
        <ele>1900</ele>
        <time>2021-10-17T08:29:38Z</time>
      </trkpt>
      <trkpt lat="42.7058" lon="0.64793">
        <ele>1900</ele>
        <time>2021-10-17T08:30:25Z</time>
      </trkpt>
      <trkpt lat="42.70571" lon="0.64787">
        <ele>1900</ele>
        <time>2021-10-17T08:30:44Z</time>
      </trkpt>
      <trkpt lat="42.70563" lon="0.6478">
        <ele>1900</ele>
        <time>2021-10-17T08:31:09Z</time>
      </trkpt>
      <trkpt lat="42.7056" lon="0.64767">
        <ele>1900</ele>
        <time>2021-10-17T08:31:19Z</time>
      </trkpt>
      <trkpt lat="42.70558" lon="0.64755">
        <ele>1900</ele>
        <time>2021-10-17T08:31:29Z</time>
      </trkpt>
      <trkpt lat="42.70559" lon="0.64742">
        <ele>1900</ele>
        <time>2021-10-17T08:31:42Z</time>
      </trkpt>
      <trkpt lat="42.70556" lon="0.64729">
        <ele>1900</ele>
        <time>2021-10-17T08:31:56Z</time>
      </trkpt>
      <trkpt lat="42.70549" lon="0.64737">
        <ele>1925</ele>
        <time>2021-10-17T08:32:18Z</time>
      </trkpt>
      <trkpt lat="42.70544" lon="0.64748">
        <ele>1925</ele>
        <time>2021-10-17T08:32:29Z</time>
      </trkpt>
      <trkpt lat="42.70541" lon="0.64761">
        <ele>1925</ele>
        <time>2021-10-17T08:32:45Z</time>
      </trkpt>
      <trkpt lat="42.70533" lon="0.6477">
        <ele>1925</ele>
        <time>2021-10-17T08:32:57Z</time>
      </trkpt>
      <trkpt lat="42.7053" lon="0.64782">
        <ele>1925</ele>
        <time>2021-10-17T08:33:10Z</time>
      </trkpt>
      <trkpt lat="42.70533" lon="0.64794">
        <ele>1925</ele>
        <time>2021-10-17T08:33:22Z</time>
      </trkpt>
      <trkpt lat="42.7054" lon="0.64802">
        <ele>1925</ele>
        <time>2021-10-17T08:33:33Z</time>
      </trkpt>
      <trkpt lat="42.70542" lon="0.64815">
        <ele>1938</ele>
        <time>2021-10-17T08:33:48Z</time>
      </trkpt>
      <trkpt lat="42.7054" lon="0.64828">
        <ele>1938</ele>
        <time>2021-10-17T08:34:07Z</time>
      </trkpt>
      <trkpt lat="42.70533" lon="0.64819">
        <ele>1938</ele>
        <time>2021-10-17T08:34:31Z</time>
      </trkpt>
      <trkpt lat="42.70526" lon="0.6481">
        <ele>1947</ele>
        <time>2021-10-17T08:34:48Z</time>
      </trkpt>
      <trkpt lat="42.70518" lon="0.64804">
        <ele>1947</ele>
        <time>2021-10-17T08:35:06Z</time>
      </trkpt>
      <trkpt lat="42.7051" lon="0.64799">
        <ele>1947</ele>
        <time>2021-10-17T08:35:16Z</time>
      </trkpt>
      <trkpt lat="42.70503" lon="0.6479">
        <ele>1947</ele>
        <time>2021-10-17T08:35:30Z</time>
      </trkpt>
      <trkpt lat="42.70505" lon="0.64778">
        <ele>1953</ele>
        <time>2021-10-17T08:35:38Z</time>
      </trkpt>
      <trkpt lat="42.70507" lon="0.64765">
        <ele>1953</ele>
        <time>2021-10-17T08:35:50Z</time>
      </trkpt>
      <trkpt lat="42.7051" lon="0.64753">
        <ele>1953</ele>
        <time>2021-10-17T08:36:06Z</time>
      </trkpt>
      <trkpt lat="42.70506" lon="0.6474">
        <ele>1958</ele>
        <time>2021-10-17T08:36:18Z</time>
      </trkpt>
      <trkpt lat="42.70505" lon="0.64727">
        <ele>1958</ele>
        <time>2021-10-17T08:36:34Z</time>
      </trkpt>
      <trkpt lat="42.70495" lon="0.64733">
        <ele>1958</ele>
        <time>2021-10-17T08:36:47Z</time>
      </trkpt>
      <trkpt lat="42.70494" lon="0.64746">
        <ele>1958</ele>
        <time>2021-10-17T08:37:02Z</time>
      </trkpt>
      <trkpt lat="42.70494" lon="0.64758">
        <ele>1958</ele>
        <time>2021-10-17T08:37:14Z</time>
      </trkpt>
      <trkpt lat="42.70493" lon="0.64771">
        <ele>1958</ele>
        <time>2021-10-17T08:37:29Z</time>
      </trkpt>
      <trkpt lat="42.70488" lon="0.6476">
        <ele>1958</ele>
        <time>2021-10-17T08:37:49Z</time>
      </trkpt>
      <trkpt lat="42.70488" lon="0.64747">
        <ele>1958</ele>
        <time>2021-10-17T08:37:59Z</time>
      </trkpt>
      <trkpt lat="42.70482" lon="0.64737">
        <ele>1958</ele>
        <time>2021-10-17T08:38:12Z</time>
      </trkpt>
      <trkpt lat="42.70478" lon="0.64726">
        <ele>1973</ele>
        <time>2021-10-17T08:38:28Z</time>
      </trkpt>
      <trkpt lat="42.70474" lon="0.64738">
        <ele>1976</ele>
        <time>2021-10-17T08:38:48Z</time>
      </trkpt>
      <trkpt lat="42.70474" lon="0.64752">
        <ele>1976</ele>
        <time>2021-10-17T08:38:59Z</time>
      </trkpt>
      <trkpt lat="42.70472" lon="0.64764">
        <ele>1978</ele>
        <time>2021-10-17T08:39:08Z</time>
      </trkpt>
      <trkpt lat="42.70467" lon="0.64775">
        <ele>1978</ele>
        <time>2021-10-17T08:39:19Z</time>
      </trkpt>
      <trkpt lat="42.70467" lon="0.64761">
        <ele>1978</ele>
        <time>2021-10-17T08:39:41Z</time>
      </trkpt>
      <trkpt lat="42.70462" lon="0.64751">
        <ele>1978</ele>
        <time>2021-10-17T08:39:51Z</time>
      </trkpt>
      <trkpt lat="42.70455" lon="0.64741">
        <ele>1978</ele>
        <time>2021-10-17T08:40:05Z</time>
      </trkpt>
      <trkpt lat="42.70451" lon="0.64752">
        <ele>1978</ele>
        <time>2021-10-17T08:40:26Z</time>
      </trkpt>
      <trkpt lat="42.70451" lon="0.64764">
        <ele>1978</ele>
        <time>2021-10-17T08:40:36Z</time>
      </trkpt>
      <trkpt lat="42.70449" lon="0.64776">
        <ele>1992</ele>
        <time>2021-10-17T08:40:48Z</time>
      </trkpt>
      <trkpt lat="42.70444" lon="0.64765">
        <ele>1992</ele>
        <time>2021-10-17T08:41:16Z</time>
      </trkpt>
      <trkpt lat="42.70439" lon="0.64752">
        <ele>1992</ele>
        <time>2021-10-17T08:41:26Z</time>
      </trkpt>
      <trkpt lat="42.70432" lon="0.64745">
        <ele>1992</ele>
        <time>2021-10-17T08:41:39Z</time>
      </trkpt>
      <trkpt lat="42.70435" lon="0.64756">
        <ele>1992</ele>
        <time>2021-10-17T08:41:57Z</time>
      </trkpt>
      <trkpt lat="42.70432" lon="0.64769">
        <ele>1992</ele>
        <time>2021-10-17T08:42:06Z</time>
      </trkpt>
      <trkpt lat="42.70429" lon="0.64782">
        <ele>1992</ele>
        <time>2021-10-17T08:42:17Z</time>
      </trkpt>
      <trkpt lat="42.70423" lon="0.64772">
        <ele>1992</ele>
        <time>2021-10-17T08:42:30Z</time>
      </trkpt>
      <trkpt lat="42.70422" lon="0.64759">
        <ele>1992</ele>
        <time>2021-10-17T08:42:40Z</time>
      </trkpt>
      <trkpt lat="42.70421" lon="0.64772">
        <ele>1992</ele>
        <time>2021-10-17T08:43:09Z</time>
      </trkpt>
      <trkpt lat="42.70419" lon="0.64784">
        <ele>1992</ele>
        <time>2021-10-17T08:43:19Z</time>
      </trkpt>
      <trkpt lat="42.70414" lon="0.64774">
        <ele>1992</ele>
        <time>2021-10-17T08:43:40Z</time>
      </trkpt>
      <trkpt lat="42.70409" lon="0.64763">
        <ele>1992</ele>
        <time>2021-10-17T08:43:52Z</time>
      </trkpt>
      <trkpt lat="42.70405" lon="0.64775">
        <ele>1992</ele>
        <time>2021-10-17T08:44:10Z</time>
      </trkpt>
      <trkpt lat="42.70396" lon="0.64771">
        <ele>2026</ele>
        <time>2021-10-17T08:44:38Z</time>
      </trkpt>
      <trkpt lat="42.70389" lon="0.64763">
        <ele>2026</ele>
        <time>2021-10-17T08:44:50Z</time>
      </trkpt>
      <trkpt lat="42.70383" lon="0.64752">
        <ele>2026</ele>
        <time>2021-10-17T08:45:00Z</time>
      </trkpt>
      <trkpt lat="42.70377" lon="0.64742">
        <ele>2031</ele>
        <time>2021-10-17T08:45:08Z</time>
      </trkpt>
      <trkpt lat="42.70377" lon="0.6473">
        <ele>2031</ele>
        <time>2021-10-17T08:45:23Z</time>
      </trkpt>
      <trkpt lat="42.7038" lon="0.64718">
        <ele>2031</ele>
        <time>2021-10-17T08:45:36Z</time>
      </trkpt>
      <trkpt lat="42.70382" lon="0.64705">
        <ele>2031</ele>
        <time>2021-10-17T08:45:50Z</time>
      </trkpt>
      <trkpt lat="42.70387" lon="0.64695">
        <ele>2031</ele>
        <time>2021-10-17T08:46:00Z</time>
      </trkpt>
      <trkpt lat="42.70394" lon="0.64686">
        <ele>2031</ele>
        <time>2021-10-17T08:46:09Z</time>
      </trkpt>
      <trkpt lat="42.704" lon="0.64676">
        <ele>2031</ele>
        <time>2021-10-17T08:46:19Z</time>
      </trkpt>
      <trkpt lat="42.70394" lon="0.64667">
        <ele>2031</ele>
        <time>2021-10-17T08:49:03Z</time>
      </trkpt>
      <trkpt lat="42.70397" lon="0.64665">
        <ele>2042</ele>
        <time>2021-10-17T08:52:00Z</time>
      </trkpt>
      <trkpt lat="42.70386" lon="0.64604">
        <ele>2043</ele>
        <time>2021-10-17T08:59:35Z</time>
      </trkpt>
      <trkpt lat="42.70385" lon="0.64603">
        <ele>2043</ele>
        <time>2021-10-17T08:59:37Z</time>
      </trkpt>
      <trkpt lat="42.70383" lon="0.64591">
        <ele>2043</ele>
        <time>2021-10-17T08:59:48Z</time>
      </trkpt>
      <trkpt lat="42.70382" lon="0.64578">
        <ele>2043</ele>
        <time>2021-10-17T08:59:58Z</time>
      </trkpt>
      <trkpt lat="42.70383" lon="0.64565">
        <ele>2043</ele>
        <time>2021-10-17T09:00:10Z</time>
      </trkpt>
      <trkpt lat="42.70382" lon="0.64553">
        <ele>2043</ele>
        <time>2021-10-17T09:00:28Z</time>
      </trkpt>
      <trkpt lat="42.70383" lon="0.6454">
        <ele>2043</ele>
        <time>2021-10-17T09:00:38Z</time>
      </trkpt>
      <trkpt lat="42.70382" lon="0.64528">
        <ele>2043</ele>
        <time>2021-10-17T09:00:52Z</time>
      </trkpt>
      <trkpt lat="42.70376" lon="0.64538">
        <ele>2059</ele>
        <time>2021-10-17T09:01:14Z</time>
      </trkpt>
      <trkpt lat="42.70376" lon="0.64525">
        <ele>2062</ele>
        <time>2021-10-17T09:01:34Z</time>
      </trkpt>
      <trkpt lat="42.70367" lon="0.64527">
        <ele>2066</ele>
        <time>2021-10-17T09:01:54Z</time>
      </trkpt>
      <trkpt lat="42.70359" lon="0.64534">
        <ele>2066</ele>
        <time>2021-10-17T09:02:11Z</time>
      </trkpt>
      <trkpt lat="42.70361" lon="0.64522">
        <ele>2066</ele>
        <time>2021-10-17T09:02:29Z</time>
      </trkpt>
      <trkpt lat="42.70364" lon="0.6451">
        <ele>2066</ele>
        <time>2021-10-17T09:02:42Z</time>
      </trkpt>
      <trkpt lat="42.70355" lon="0.64514">
        <ele>2066</ele>
        <time>2021-10-17T09:02:55Z</time>
      </trkpt>
      <trkpt lat="42.70347" lon="0.64523">
        <ele>2066</ele>
        <time>2021-10-17T09:03:10Z</time>
      </trkpt>
      <trkpt lat="42.7034" lon="0.64531">
        <ele>2077</ele>
        <time>2021-10-17T09:03:24Z</time>
      </trkpt>
      <trkpt lat="42.70338" lon="0.64543">
        <ele>2077</ele>
        <time>2021-10-17T09:03:36Z</time>
      </trkpt>
      <trkpt lat="42.70335" lon="0.64555">
        <ele>2077</ele>
        <time>2021-10-17T09:03:48Z</time>
      </trkpt>
      <trkpt lat="42.70333" lon="0.64568">
        <ele>2077</ele>
        <time>2021-10-17T09:03:59Z</time>
      </trkpt>
      <trkpt lat="42.70327" lon="0.64559">
        <ele>2077</ele>
        <time>2021-10-17T09:04:19Z</time>
      </trkpt>
      <trkpt lat="42.70328" lon="0.64546">
        <ele>2077</ele>
        <time>2021-10-17T09:04:31Z</time>
      </trkpt>
      <trkpt lat="42.70329" lon="0.64532">
        <ele>2077</ele>
        <time>2021-10-17T09:04:45Z</time>
      </trkpt>
      <trkpt lat="42.70331" lon="0.6452">
        <ele>2077</ele>
        <time>2021-10-17T09:04:55Z</time>
      </trkpt>
      <trkpt lat="42.70331" lon="0.64508">
        <ele>2077</ele>
        <time>2021-10-17T09:05:07Z</time>
      </trkpt>
      <trkpt lat="42.70323" lon="0.64516">
        <ele>2077</ele>
        <time>2021-10-17T09:05:21Z</time>
      </trkpt>
      <trkpt lat="42.70318" lon="0.64527">
        <ele>2077</ele>
        <time>2021-10-17T09:05:32Z</time>
      </trkpt>
      <trkpt lat="42.70313" lon="0.64538">
        <ele>2098</ele>
        <time>2021-10-17T09:05:44Z</time>
      </trkpt>
      <trkpt lat="42.70315" lon="0.64525">
        <ele>2100</ele>
        <time>2021-10-17T09:06:04Z</time>
      </trkpt>
      <trkpt lat="42.70316" lon="0.6451">
        <ele>2100</ele>
        <time>2021-10-17T09:06:16Z</time>
      </trkpt>
      <trkpt lat="42.70306" lon="0.64513">
        <ele>2100</ele>
        <time>2021-10-17T09:06:37Z</time>
      </trkpt>
      <trkpt lat="42.70301" lon="0.64523">
        <ele>2100</ele>
        <time>2021-10-17T09:06:48Z</time>
      </trkpt>
      <trkpt lat="42.70302" lon="0.64511">
        <ele>2100</ele>
        <time>2021-10-17T09:07:21Z</time>
      </trkpt>
      <trkpt lat="42.70304" lon="0.64498">
        <ele>2100</ele>
        <time>2021-10-17T09:07:31Z</time>
      </trkpt>
      <trkpt lat="42.70295" lon="0.64505">
        <ele>2100</ele>
        <time>2021-10-17T09:10:37Z</time>
      </trkpt>
      <trkpt lat="42.70293" lon="0.64517">
        <ele>2100</ele>
        <time>2021-10-17T09:10:45Z</time>
      </trkpt>
      <trkpt lat="42.70293" lon="0.64504">
        <ele>2100</ele>
        <time>2021-10-17T09:11:10Z</time>
      </trkpt>
      <trkpt lat="42.70287" lon="0.64515">
        <ele>2100</ele>
        <time>2021-10-17T09:11:31Z</time>
      </trkpt>
      <trkpt lat="42.70282" lon="0.64526">
        <ele>2100</ele>
        <time>2021-10-17T09:11:39Z</time>
      </trkpt>
      <trkpt lat="42.70278" lon="0.64537">
        <ele>2100</ele>
        <time>2021-10-17T09:11:52Z</time>
      </trkpt>
      <trkpt lat="42.70274" lon="0.64548">
        <ele>2130</ele>
        <time>2021-10-17T09:12:04Z</time>
      </trkpt>
      <trkpt lat="42.70271" lon="0.64537">
        <ele>2130</ele>
        <time>2021-10-17T09:12:31Z</time>
      </trkpt>
      <trkpt lat="42.70263" lon="0.64546">
        <ele>2130</ele>
        <time>2021-10-17T09:12:56Z</time>
      </trkpt>
      <trkpt lat="42.70254" lon="0.64552">
        <ele>2130</ele>
        <time>2021-10-17T09:13:07Z</time>
      </trkpt>
      <trkpt lat="42.70248" lon="0.64543">
        <ele>2130</ele>
        <time>2021-10-17T09:13:15Z</time>
      </trkpt>
      <trkpt lat="42.70241" lon="0.64533">
        <ele>2130</ele>
        <time>2021-10-17T09:13:29Z</time>
      </trkpt>
      <trkpt lat="42.70236" lon="0.64522">
        <ele>2130</ele>
        <time>2021-10-17T09:13:41Z</time>
      </trkpt>
      <trkpt lat="42.7023" lon="0.64512">
        <ele>2130</ele>
        <time>2021-10-17T09:13:52Z</time>
      </trkpt>
      <trkpt lat="42.70223" lon="0.64505">
        <ele>2130</ele>
        <time>2021-10-17T09:14:01Z</time>
      </trkpt>
      <trkpt lat="42.70215" lon="0.64499">
        <ele>2130</ele>
        <time>2021-10-17T09:14:10Z</time>
      </trkpt>
      <trkpt lat="42.70205" lon="0.64497">
        <ele>2130</ele>
        <time>2021-10-17T09:14:22Z</time>
      </trkpt>
      <trkpt lat="42.70199" lon="0.64488">
        <ele>2130</ele>
        <time>2021-10-17T09:14:35Z</time>
      </trkpt>
      <trkpt lat="42.70195" lon="0.64477">
        <ele>2130</ele>
        <time>2021-10-17T09:14:47Z</time>
      </trkpt>
      <trkpt lat="42.70188" lon="0.64467">
        <ele>2130</ele>
        <time>2021-10-17T09:14:57Z</time>
      </trkpt>
      <trkpt lat="42.70183" lon="0.64457">
        <ele>2130</ele>
        <time>2021-10-17T09:15:06Z</time>
      </trkpt>
      <trkpt lat="42.70175" lon="0.64452">
        <ele>2130</ele>
        <time>2021-10-17T09:15:15Z</time>
      </trkpt>
      <trkpt lat="42.70168" lon="0.64443">
        <ele>2130</ele>
        <time>2021-10-17T09:15:30Z</time>
      </trkpt>
      <trkpt lat="42.7016" lon="0.64437">
        <ele>2130</ele>
        <time>2021-10-17T09:15:42Z</time>
      </trkpt>
      <trkpt lat="42.70151" lon="0.6443">
        <ele>2130</ele>
        <time>2021-10-17T09:15:55Z</time>
      </trkpt>
      <trkpt lat="42.70142" lon="0.64429">
        <ele>2167</ele>
        <time>2021-10-17T09:16:04Z</time>
      </trkpt>
      <trkpt lat="42.70132" lon="0.64428">
        <ele>2167</ele>
        <time>2021-10-17T09:16:15Z</time>
      </trkpt>
      <trkpt lat="42.70124" lon="0.64432">
        <ele>2167</ele>
        <time>2021-10-17T09:16:25Z</time>
      </trkpt>
      <trkpt lat="42.70116" lon="0.64439">
        <ele>2167</ele>
        <time>2021-10-17T09:16:39Z</time>
      </trkpt>
      <trkpt lat="42.70107" lon="0.6444">
        <ele>2167</ele>
        <time>2021-10-17T09:16:53Z</time>
      </trkpt>
      <trkpt lat="42.70096" lon="0.64444">
        <ele>2167</ele>
        <time>2021-10-17T09:16:56Z</time>
      </trkpt>
      <trkpt lat="42.70091" lon="0.64455">
        <ele>2167</ele>
        <time>2021-10-17T09:17:03Z</time>
      </trkpt>
      <trkpt lat="42.7008" lon="0.64449">
        <ele>2167</ele>
        <time>2021-10-17T09:17:10Z</time>
      </trkpt>
      <trkpt lat="42.70073" lon="0.64457">
        <ele>2167</ele>
        <time>2021-10-17T09:17:47Z</time>
      </trkpt>
      <trkpt lat="42.70064" lon="0.64455">
        <ele>2167</ele>
        <time>2021-10-17T09:17:58Z</time>
      </trkpt>
      <trkpt lat="42.70055" lon="0.64451">
        <ele>2167</ele>
        <time>2021-10-17T09:18:11Z</time>
      </trkpt>
      <trkpt lat="42.70048" lon="0.64443">
        <ele>2167</ele>
        <time>2021-10-17T09:18:23Z</time>
      </trkpt>
      <trkpt lat="42.70057" lon="0.64443">
        <ele>2189</ele>
        <time>2021-10-17T09:18:34Z</time>
      </trkpt>
      <trkpt lat="42.70067" lon="0.6444">
        <ele>2190</ele>
        <time>2021-10-17T09:18:44Z</time>
      </trkpt>
      <trkpt lat="42.70058" lon="0.64434">
        <ele>2190</ele>
        <time>2021-10-17T09:19:01Z</time>
      </trkpt>
      <trkpt lat="42.70053" lon="0.64423">
        <ele>2190</ele>
        <time>2021-10-17T09:19:11Z</time>
      </trkpt>
      <trkpt lat="42.70051" lon="0.64411">
        <ele>2190</ele>
        <time>2021-10-17T09:19:21Z</time>
      </trkpt>
      <trkpt lat="42.7006" lon="0.64409">
        <ele>2190</ele>
        <time>2021-10-17T09:19:41Z</time>
      </trkpt>
      <trkpt lat="42.7007" lon="0.6441">
        <ele>2201</ele>
        <time>2021-10-17T09:19:54Z</time>
      </trkpt>
      <trkpt lat="42.70079" lon="0.64405">
        <ele>2201</ele>
        <time>2021-10-17T09:20:09Z</time>
      </trkpt>
      <trkpt lat="42.70072" lon="0.64397">
        <ele>2201</ele>
        <time>2021-10-17T09:20:35Z</time>
      </trkpt>
      <trkpt lat="42.70065" lon="0.64387">
        <ele>2201</ele>
        <time>2021-10-17T09:20:48Z</time>
      </trkpt>
      <trkpt lat="42.70058" lon="0.64378">
        <ele>2201</ele>
        <time>2021-10-17T09:21:02Z</time>
      </trkpt>
      <trkpt lat="42.70069" lon="0.64377">
        <ele>2201</ele>
        <time>2021-10-17T09:21:30Z</time>
      </trkpt>
      <trkpt lat="42.70078" lon="0.64375">
        <ele>2201</ele>
        <time>2021-10-17T09:21:42Z</time>
      </trkpt>
      <trkpt lat="42.70072" lon="0.64366">
        <ele>2201</ele>
        <time>2021-10-17T09:22:03Z</time>
      </trkpt>
      <trkpt lat="42.70064" lon="0.6436">
        <ele>2201</ele>
        <time>2021-10-17T09:22:15Z</time>
      </trkpt>
      <trkpt lat="42.70059" lon="0.64349">
        <ele>2221</ele>
        <time>2021-10-17T09:22:24Z</time>
      </trkpt>
      <trkpt lat="42.70053" lon="0.64339">
        <ele>2221</ele>
        <time>2021-10-17T09:22:35Z</time>
      </trkpt>
      <trkpt lat="42.70048" lon="0.64327">
        <ele>2221</ele>
        <time>2021-10-17T09:22:45Z</time>
      </trkpt>
      <trkpt lat="42.70042" lon="0.64319">
        <ele>2221</ele>
        <time>2021-10-17T09:22:56Z</time>
      </trkpt>
      <trkpt lat="42.70033" lon="0.64312">
        <ele>2221</ele>
        <time>2021-10-17T09:23:07Z</time>
      </trkpt>
      <trkpt lat="42.70028" lon="0.64302">
        <ele>2221</ele>
        <time>2021-10-17T09:23:20Z</time>
      </trkpt>
      <trkpt lat="42.70022" lon="0.64292">
        <ele>2221</ele>
        <time>2021-10-17T09:23:35Z</time>
      </trkpt>
      <trkpt lat="42.70016" lon="0.64283">
        <ele>2221</ele>
        <time>2021-10-17T09:23:49Z</time>
      </trkpt>
      <trkpt lat="42.70007" lon="0.64277">
        <ele>2221</ele>
        <time>2021-10-17T09:24:00Z</time>
      </trkpt>
      <trkpt lat="42.69998" lon="0.64273">
        <ele>2221</ele>
        <time>2021-10-17T09:24:11Z</time>
      </trkpt>
      <trkpt lat="42.69989" lon="0.64269">
        <ele>2221</ele>
        <time>2021-10-17T09:24:22Z</time>
      </trkpt>
      <trkpt lat="42.69979" lon="0.64269">
        <ele>2221</ele>
        <time>2021-10-17T09:24:40Z</time>
      </trkpt>
      <trkpt lat="42.69974" lon="0.64259">
        <ele>2221</ele>
        <time>2021-10-17T09:24:57Z</time>
      </trkpt>
      <trkpt lat="42.69966" lon="0.64252">
        <ele>2250</ele>
        <time>2021-10-17T09:27:14Z</time>
      </trkpt>
      <trkpt lat="42.69964" lon="0.64264">
        <ele>2250</ele>
        <time>2021-10-17T09:29:38Z</time>
      </trkpt>
      <trkpt lat="42.69954" lon="0.64265">
        <ele>2250</ele>
        <time>2021-10-17T09:29:49Z</time>
      </trkpt>
      <trkpt lat="42.69945" lon="0.64266">
        <ele>2250</ele>
        <time>2021-10-17T09:29:58Z</time>
      </trkpt>
      <trkpt lat="42.69936" lon="0.64268">
        <ele>2250</ele>
        <time>2021-10-17T09:30:05Z</time>
      </trkpt>
      <trkpt lat="42.69926" lon="0.64273">
        <ele>2250</ele>
        <time>2021-10-17T09:30:16Z</time>
      </trkpt>
      <trkpt lat="42.69918" lon="0.64278">
        <ele>2250</ele>
        <time>2021-10-17T09:30:26Z</time>
      </trkpt>
      <trkpt lat="42.69909" lon="0.64281">
        <ele>2250</ele>
        <time>2021-10-17T09:30:40Z</time>
      </trkpt>
      <trkpt lat="42.69899" lon="0.64281">
        <ele>2250</ele>
        <time>2021-10-17T09:30:55Z</time>
      </trkpt>
      <trkpt lat="42.6989" lon="0.64285">
        <ele>2250</ele>
        <time>2021-10-17T09:31:05Z</time>
      </trkpt>
      <trkpt lat="42.69893" lon="0.64273">
        <ele>2250</ele>
        <time>2021-10-17T09:31:29Z</time>
      </trkpt>
      <trkpt lat="42.69898" lon="0.64263">
        <ele>2250</ele>
        <time>2021-10-17T09:31:42Z</time>
      </trkpt>
      <trkpt lat="42.69889" lon="0.6426">
        <ele>2250</ele>
        <time>2021-10-17T09:31:59Z</time>
      </trkpt>
      <trkpt lat="42.6988" lon="0.6426">
        <ele>2250</ele>
        <time>2021-10-17T09:32:12Z</time>
      </trkpt>
      <trkpt lat="42.69871" lon="0.64258">
        <ele>2250</ele>
        <time>2021-10-17T09:32:26Z</time>
      </trkpt>
      <trkpt lat="42.69863" lon="0.64253">
        <ele>2250</ele>
        <time>2021-10-17T09:32:39Z</time>
      </trkpt>
      <trkpt lat="42.69853" lon="0.64252">
        <ele>2276</ele>
        <time>2021-10-17T09:32:54Z</time>
      </trkpt>
      <trkpt lat="42.69844" lon="0.64251">
        <ele>2276</ele>
        <time>2021-10-17T09:33:06Z</time>
      </trkpt>
      <trkpt lat="42.69834" lon="0.64247">
        <ele>2276</ele>
        <time>2021-10-17T09:33:16Z</time>
      </trkpt>
      <trkpt lat="42.69826" lon="0.64241">
        <ele>2276</ele>
        <time>2021-10-17T09:33:29Z</time>
      </trkpt>
      <trkpt lat="42.69816" lon="0.64241">
        <ele>2276</ele>
        <time>2021-10-17T09:33:42Z</time>
      </trkpt>
      <trkpt lat="42.69807" lon="0.64237">
        <ele>2276</ele>
        <time>2021-10-17T09:33:55Z</time>
      </trkpt>
      <trkpt lat="42.69798" lon="0.64235">
        <ele>2276</ele>
        <time>2021-10-17T09:34:09Z</time>
      </trkpt>
      <trkpt lat="42.6979" lon="0.64228">
        <ele>2276</ele>
        <time>2021-10-17T09:34:20Z</time>
      </trkpt>
      <trkpt lat="42.69782" lon="0.64221">
        <ele>2276</ele>
        <time>2021-10-17T09:34:30Z</time>
      </trkpt>
      <trkpt lat="42.69774" lon="0.64217">
        <ele>2276</ele>
        <time>2021-10-17T09:34:37Z</time>
      </trkpt>
      <trkpt lat="42.69764" lon="0.6422">
        <ele>2276</ele>
        <time>2021-10-17T09:34:46Z</time>
      </trkpt>
      <trkpt lat="42.69758" lon="0.6423">
        <ele>2276</ele>
        <time>2021-10-17T09:34:56Z</time>
      </trkpt>
      <trkpt lat="42.69748" lon="0.64232">
        <ele>2289</ele>
        <time>2021-10-17T09:35:04Z</time>
      </trkpt>
      <trkpt lat="42.69739" lon="0.64234">
        <ele>2289</ele>
        <time>2021-10-17T09:35:13Z</time>
      </trkpt>
      <trkpt lat="42.6973" lon="0.64236">
        <ele>2289</ele>
        <time>2021-10-17T09:35:23Z</time>
      </trkpt>
      <trkpt lat="42.69721" lon="0.6424">
        <ele>2289</ele>
        <time>2021-10-17T09:35:31Z</time>
      </trkpt>
      <trkpt lat="42.69713" lon="0.64247">
        <ele>2289</ele>
        <time>2021-10-17T09:35:39Z</time>
      </trkpt>
      <trkpt lat="42.69705" lon="0.64254">
        <ele>2289</ele>
        <time>2021-10-17T09:35:49Z</time>
      </trkpt>
      <trkpt lat="42.69695" lon="0.64257">
        <ele>2289</ele>
        <time>2021-10-17T09:36:00Z</time>
      </trkpt>
      <trkpt lat="42.69685" lon="0.64259">
        <ele>2289</ele>
        <time>2021-10-17T09:36:11Z</time>
      </trkpt>
      <trkpt lat="42.69675" lon="0.64258">
        <ele>2289</ele>
        <time>2021-10-17T09:36:23Z</time>
      </trkpt>
      <trkpt lat="42.69666" lon="0.64256">
        <ele>2289</ele>
        <time>2021-10-17T09:36:31Z</time>
      </trkpt>
      <trkpt lat="42.69657" lon="0.64252">
        <ele>2289</ele>
        <time>2021-10-17T09:36:40Z</time>
      </trkpt>
      <trkpt lat="42.69648" lon="0.6425">
        <ele>2289</ele>
        <time>2021-10-17T09:36:50Z</time>
      </trkpt>
      <trkpt lat="42.69641" lon="0.64242">
        <ele>2289</ele>
        <time>2021-10-17T09:37:00Z</time>
      </trkpt>
      <trkpt lat="42.69635" lon="0.64232">
        <ele>2289</ele>
        <time>2021-10-17T09:37:10Z</time>
      </trkpt>
      <trkpt lat="42.69629" lon="0.64222">
        <ele>2289</ele>
        <time>2021-10-17T09:37:20Z</time>
      </trkpt>
      <trkpt lat="42.69621" lon="0.64215">
        <ele>2289</ele>
        <time>2021-10-17T09:37:28Z</time>
      </trkpt>
      <trkpt lat="42.69614" lon="0.64207">
        <ele>2289</ele>
        <time>2021-10-17T09:37:38Z</time>
      </trkpt>
      <trkpt lat="42.69605" lon="0.64201">
        <ele>2289</ele>
        <time>2021-10-17T09:37:48Z</time>
      </trkpt>
      <trkpt lat="42.69597" lon="0.64195">
        <ele>2289</ele>
        <time>2021-10-17T09:37:55Z</time>
      </trkpt>
      <trkpt lat="42.6959" lon="0.64185">
        <ele>2289</ele>
        <time>2021-10-17T09:38:03Z</time>
      </trkpt>
      <trkpt lat="42.69583" lon="0.64178">
        <ele>2289</ele>
        <time>2021-10-17T09:38:12Z</time>
      </trkpt>
      <trkpt lat="42.69573" lon="0.64176">
        <ele>2289</ele>
        <time>2021-10-17T09:38:21Z</time>
      </trkpt>
      <trkpt lat="42.69564" lon="0.64172">
        <ele>2289</ele>
        <time>2021-10-17T09:38:29Z</time>
      </trkpt>
      <trkpt lat="42.69555" lon="0.6417">
        <ele>2289</ele>
        <time>2021-10-17T09:38:36Z</time>
      </trkpt>
      <trkpt lat="42.69545" lon="0.64171">
        <ele>2289</ele>
        <time>2021-10-17T09:38:47Z</time>
      </trkpt>
      <trkpt lat="42.69537" lon="0.64176">
        <ele>2289</ele>
        <time>2021-10-17T09:38:56Z</time>
      </trkpt>
      <trkpt lat="42.69529" lon="0.64184">
        <ele>2289</ele>
        <time>2021-10-17T09:39:53Z</time>
      </trkpt>
      <trkpt lat="42.6952" lon="0.64186">
        <ele>2289</ele>
        <time>2021-10-17T09:40:01Z</time>
      </trkpt>
      <trkpt lat="42.6951" lon="0.64188">
        <ele>2289</ele>
        <time>2021-10-17T09:40:10Z</time>
      </trkpt>
      <trkpt lat="42.69501" lon="0.64183">
        <ele>2289</ele>
        <time>2021-10-17T09:40:19Z</time>
      </trkpt>
      <trkpt lat="42.69492" lon="0.64177">
        <ele>2289</ele>
        <time>2021-10-17T09:40:28Z</time>
      </trkpt>
      <trkpt lat="42.69484" lon="0.64171">
        <ele>2289</ele>
        <time>2021-10-17T09:40:36Z</time>
      </trkpt>
      <trkpt lat="42.69475" lon="0.64168">
        <ele>2289</ele>
        <time>2021-10-17T09:40:45Z</time>
      </trkpt>
      <trkpt lat="42.69465" lon="0.64166">
        <ele>2289</ele>
        <time>2021-10-17T09:40:52Z</time>
      </trkpt>
      <trkpt lat="42.69456" lon="0.64168">
        <ele>2289</ele>
        <time>2021-10-17T09:41:01Z</time>
      </trkpt>
      <trkpt lat="42.69447" lon="0.64165">
        <ele>2289</ele>
        <time>2021-10-17T09:41:13Z</time>
      </trkpt>
      <trkpt lat="42.6944" lon="0.64157">
        <ele>2289</ele>
        <time>2021-10-17T09:41:27Z</time>
      </trkpt>
      <trkpt lat="42.69434" lon="0.64146">
        <ele>2289</ele>
        <time>2021-10-17T09:41:38Z</time>
      </trkpt>
      <trkpt lat="42.69429" lon="0.64136">
        <ele>2289</ele>
        <time>2021-10-17T09:41:45Z</time>
      </trkpt>
      <trkpt lat="42.69423" lon="0.64126">
        <ele>2289</ele>
        <time>2021-10-17T09:42:09Z</time>
      </trkpt>
      <trkpt lat="42.69417" lon="0.64115">
        <ele>2289</ele>
        <time>2021-10-17T09:42:23Z</time>
      </trkpt>
      <trkpt lat="42.6941" lon="0.64106">
        <ele>2289</ele>
        <time>2021-10-17T09:42:33Z</time>
      </trkpt>
      <trkpt lat="42.69404" lon="0.64097">
        <ele>2289</ele>
        <time>2021-10-17T09:42:41Z</time>
      </trkpt>
      <trkpt lat="42.69399" lon="0.64086">
        <ele>2289</ele>
        <time>2021-10-17T09:42:50Z</time>
      </trkpt>
      <trkpt lat="42.69395" lon="0.64075">
        <ele>2289</ele>
        <time>2021-10-17T09:42:57Z</time>
      </trkpt>
      <trkpt lat="42.69405" lon="0.64073">
        <ele>2337</ele>
        <time>2021-10-17T09:43:24Z</time>
      </trkpt>
      <trkpt lat="42.69397" lon="0.64065">
        <ele>2337</ele>
        <time>2021-10-17T09:43:35Z</time>
      </trkpt>
      <trkpt lat="42.69389" lon="0.64059">
        <ele>2337</ele>
        <time>2021-10-17T09:43:44Z</time>
      </trkpt>
      <trkpt lat="42.69383" lon="0.64049">
        <ele>2337</ele>
        <time>2021-10-17T09:43:52Z</time>
      </trkpt>
      <trkpt lat="42.69381" lon="0.64062">
        <ele>2344</ele>
        <time>2021-10-17T09:44:04Z</time>
      </trkpt>
      <trkpt lat="42.69387" lon="0.64071">
        <ele>2344</ele>
        <time>2021-10-17T09:44:16Z</time>
      </trkpt>
      <trkpt lat="42.69386" lon="0.64084">
        <ele>2344</ele>
        <time>2021-10-17T09:44:30Z</time>
      </trkpt>
      <trkpt lat="42.69386" lon="0.64098">
        <ele>2344</ele>
        <time>2021-10-17T09:44:40Z</time>
      </trkpt>
      <trkpt lat="42.69378" lon="0.64094">
        <ele>2344</ele>
        <time>2021-10-17T09:45:08Z</time>
      </trkpt>
      <trkpt lat="42.69373" lon="0.64083">
        <ele>2344</ele>
        <time>2021-10-17T09:45:16Z</time>
      </trkpt>
      <trkpt lat="42.69366" lon="0.64074">
        <ele>2344</ele>
        <time>2021-10-17T09:45:28Z</time>
      </trkpt>
      <trkpt lat="42.69361" lon="0.64063">
        <ele>2344</ele>
        <time>2021-10-17T09:45:39Z</time>
      </trkpt>
      <trkpt lat="42.69359" lon="0.64051">
        <ele>2344</ele>
        <time>2021-10-17T09:45:50Z</time>
      </trkpt>
      <trkpt lat="42.69355" lon="0.64038">
        <ele>2344</ele>
        <time>2021-10-17T09:46:00Z</time>
      </trkpt>
      <trkpt lat="42.69347" lon="0.64033">
        <ele>2344</ele>
        <time>2021-10-17T09:46:10Z</time>
      </trkpt>
      <trkpt lat="42.69338" lon="0.64028">
        <ele>2344</ele>
        <time>2021-10-17T09:46:22Z</time>
      </trkpt>
      <trkpt lat="42.69345" lon="0.64037">
        <ele>2344</ele>
        <time>2021-10-17T09:46:38Z</time>
      </trkpt>
      <trkpt lat="42.69346" lon="0.64049">
        <ele>2344</ele>
        <time>2021-10-17T09:46:56Z</time>
      </trkpt>
      <trkpt lat="42.69346" lon="0.64062">
        <ele>2344</ele>
        <time>2021-10-17T09:47:22Z</time>
      </trkpt>
      <trkpt lat="42.69337" lon="0.64059">
        <ele>2344</ele>
        <time>2021-10-17T09:47:36Z</time>
      </trkpt>
      <trkpt lat="42.69331" lon="0.6405">
        <ele>2344</ele>
        <time>2021-10-17T09:47:47Z</time>
      </trkpt>
      <trkpt lat="42.69324" lon="0.64042">
        <ele>2344</ele>
        <time>2021-10-17T09:47:59Z</time>
      </trkpt>
      <trkpt lat="42.69327" lon="0.64054">
        <ele>2344</ele>
        <time>2021-10-17T09:48:32Z</time>
      </trkpt>
      <trkpt lat="42.69317" lon="0.64056">
        <ele>2344</ele>
        <time>2021-10-17T09:48:55Z</time>
      </trkpt>
      <trkpt lat="42.69309" lon="0.64051">
        <ele>2344</ele>
        <time>2021-10-17T09:49:12Z</time>
      </trkpt>
      <trkpt lat="42.69314" lon="0.64062">
        <ele>2344</ele>
        <time>2021-10-17T09:49:32Z</time>
      </trkpt>
      <trkpt lat="42.69318" lon="0.64074">
        <ele>2344</ele>
        <time>2021-10-17T09:49:43Z</time>
      </trkpt>
      <trkpt lat="42.69318" lon="0.64086">
        <ele>2344</ele>
        <time>2021-10-17T09:49:51Z</time>
      </trkpt>
      <trkpt lat="42.6931" lon="0.64081">
        <ele>2344</ele>
        <time>2021-10-17T09:50:03Z</time>
      </trkpt>
      <trkpt lat="42.69304" lon="0.64072">
        <ele>2344</ele>
        <time>2021-10-17T09:50:12Z</time>
      </trkpt>
      <trkpt lat="42.69303" lon="0.64084">
        <ele>2344</ele>
        <time>2021-10-17T09:50:25Z</time>
      </trkpt>
      <trkpt lat="42.69296" lon="0.64077">
        <ele>2344</ele>
        <time>2021-10-17T09:51:02Z</time>
      </trkpt>
      <trkpt lat="42.69299" lon="0.64089">
        <ele>2344</ele>
        <time>2021-10-17T09:51:27Z</time>
      </trkpt>
      <trkpt lat="42.6929" lon="0.64093">
        <ele>2344</ele>
        <time>2021-10-17T09:51:43Z</time>
      </trkpt>
      <trkpt lat="42.6929" lon="0.64106">
        <ele>2344</ele>
        <time>2021-10-17T09:52:39Z</time>
      </trkpt>
      <trkpt lat="42.69282" lon="0.64113">
        <ele>2344</ele>
        <time>2021-10-17T09:53:20Z</time>
      </trkpt>
      <trkpt lat="42.69273" lon="0.64114">
        <ele>2344</ele>
        <time>2021-10-17T09:53:38Z</time>
      </trkpt>
      <trkpt lat="42.69263" lon="0.64115">
        <ele>2344</ele>
        <time>2021-10-17T09:54:56Z</time>
      </trkpt>
      <trkpt lat="42.69271" lon="0.64122">
        <ele>2431</ele>
        <time>2021-10-17T09:58:54Z</time>
      </trkpt>
      <trkpt lat="42.69262" lon="0.64118">
        <ele>2431</ele>
        <time>2021-10-17T10:02:22Z</time>
      </trkpt>
      <trkpt lat="42.69252" lon="0.64117">
        <ele>2431</ele>
        <time>2021-10-17T10:02:37Z</time>
      </trkpt>
      <trkpt lat="42.69243" lon="0.64121">
        <ele>2422</ele>
        <time>2021-10-17T10:03:04Z</time>
      </trkpt>
      <trkpt lat="42.69237" lon="0.64109">
        <ele>2422</ele>
        <time>2021-10-17T10:03:16Z</time>
      </trkpt>
      <trkpt lat="42.69229" lon="0.64102">
        <ele>2422</ele>
        <time>2021-10-17T10:03:29Z</time>
      </trkpt>
      <trkpt lat="42.69222" lon="0.64093">
        <ele>2422</ele>
        <time>2021-10-17T10:03:46Z</time>
      </trkpt>
      <trkpt lat="42.69219" lon="0.64105">
        <ele>2422</ele>
        <time>2021-10-17T10:03:59Z</time>
      </trkpt>
      <trkpt lat="42.6921" lon="0.64098">
        <ele>2411</ele>
        <time>2021-10-17T10:04:14Z</time>
      </trkpt>
      <trkpt lat="42.69206" lon="0.64086">
        <ele>2411</ele>
        <time>2021-10-17T10:04:25Z</time>
      </trkpt>
      <trkpt lat="42.69198" lon="0.64092">
        <ele>2406</ele>
        <time>2021-10-17T10:04:44Z</time>
      </trkpt>
      <trkpt lat="42.69198" lon="0.64079">
        <ele>2402</ele>
        <time>2021-10-17T10:04:54Z</time>
      </trkpt>
      <trkpt lat="42.69192" lon="0.6407">
        <ele>2402</ele>
        <time>2021-10-17T10:05:05Z</time>
      </trkpt>
      <trkpt lat="42.69188" lon="0.64059">
        <ele>2402</ele>
        <time>2021-10-17T10:05:16Z</time>
      </trkpt>
      <trkpt lat="42.69186" lon="0.64046">
        <ele>2402</ele>
        <time>2021-10-17T10:05:26Z</time>
      </trkpt>
      <trkpt lat="42.69183" lon="0.64034">
        <ele>2402</ele>
        <time>2021-10-17T10:05:40Z</time>
      </trkpt>
      <trkpt lat="42.69181" lon="0.64022">
        <ele>2402</ele>
        <time>2021-10-17T10:05:48Z</time>
      </trkpt>
      <trkpt lat="42.69183" lon="0.64009">
        <ele>2402</ele>
        <time>2021-10-17T10:06:00Z</time>
      </trkpt>
      <trkpt lat="42.69181" lon="0.63996">
        <ele>2402</ele>
        <time>2021-10-17T10:06:15Z</time>
      </trkpt>
      <trkpt lat="42.69176" lon="0.63983">
        <ele>2402</ele>
        <time>2021-10-17T10:06:26Z</time>
      </trkpt>
      <trkpt lat="42.69171" lon="0.63972">
        <ele>2402</ele>
        <time>2021-10-17T10:06:33Z</time>
      </trkpt>
      <trkpt lat="42.69167" lon="0.63961">
        <ele>2402</ele>
        <time>2021-10-17T10:06:42Z</time>
      </trkpt>
      <trkpt lat="42.69157" lon="0.63939">
        <ele>2402</ele>
        <time>2021-10-17T10:06:58Z</time>
      </trkpt>
      <trkpt lat="42.69154" lon="0.63952">
        <ele>2402</ele>
        <time>2021-10-17T10:07:19Z</time>
      </trkpt>
      <trkpt lat="42.69154" lon="0.63966">
        <ele>2402</ele>
        <time>2021-10-17T10:07:27Z</time>
      </trkpt>
      <trkpt lat="42.69153" lon="0.63978">
        <ele>2373</ele>
        <time>2021-10-17T10:07:34Z</time>
      </trkpt>
      <trkpt lat="42.69152" lon="0.63991">
        <ele>2373</ele>
        <time>2021-10-17T10:07:41Z</time>
      </trkpt>
      <trkpt lat="42.6915" lon="0.64005">
        <ele>2373</ele>
        <time>2021-10-17T10:07:49Z</time>
      </trkpt>
      <trkpt lat="42.69146" lon="0.64016">
        <ele>2373</ele>
        <time>2021-10-17T10:07:58Z</time>
      </trkpt>
      <trkpt lat="42.69138" lon="0.64033">
        <ele>2373</ele>
        <time>2021-10-17T10:08:11Z</time>
      </trkpt>
      <trkpt lat="42.69131" lon="0.64042">
        <ele>2373</ele>
        <time>2021-10-17T10:08:21Z</time>
      </trkpt>
      <trkpt lat="42.69128" lon="0.64054">
        <ele>2373</ele>
        <time>2021-10-17T10:08:43Z</time>
      </trkpt>
      <trkpt lat="42.69136" lon="0.64076">
        <ele>2373</ele>
        <time>2021-10-17T10:09:00Z</time>
      </trkpt>
      <trkpt lat="42.69136" lon="0.64079">
        <ele>2373</ele>
        <time>2021-10-17T10:09:02Z</time>
      </trkpt>
      <trkpt lat="42.69135" lon="0.64082">
        <ele>2373</ele>
        <time>2021-10-17T10:09:05Z</time>
      </trkpt>
      <trkpt lat="42.69136" lon="0.64084">
        <ele>2373</ele>
        <time>2021-10-17T10:09:33Z</time>
      </trkpt>
      <trkpt lat="42.69135" lon="0.64086">
        <ele>2373</ele>
        <time>2021-10-17T10:10:53Z</time>
      </trkpt>
      <trkpt lat="42.69137" lon="0.64089">
        <ele>2373</ele>
        <time>2021-10-17T10:10:56Z</time>
      </trkpt>
      <trkpt lat="42.69138" lon="0.64092">
        <ele>2373</ele>
        <time>2021-10-17T10:10:59Z</time>
      </trkpt>
      <trkpt lat="42.69139" lon="0.64095">
        <ele>2373</ele>
        <time>2021-10-17T10:11:01Z</time>
      </trkpt>
      <trkpt lat="42.6914" lon="0.64098">
        <ele>2373</ele>
        <time>2021-10-17T10:11:03Z</time>
      </trkpt>
      <trkpt lat="42.69141" lon="0.64101">
        <ele>2373</ele>
        <time>2021-10-17T10:11:05Z</time>
      </trkpt>
      <trkpt lat="42.69142" lon="0.64103">
        <ele>2373</ele>
        <time>2021-10-17T10:11:07Z</time>
      </trkpt>
      <trkpt lat="42.69143" lon="0.64106">
        <ele>2373</ele>
        <time>2021-10-17T10:11:09Z</time>
      </trkpt>
      <trkpt lat="42.69144" lon="0.64109">
        <ele>2373</ele>
        <time>2021-10-17T10:11:11Z</time>
      </trkpt>
      <trkpt lat="42.69144" lon="0.64112">
        <ele>2373</ele>
        <time>2021-10-17T10:11:13Z</time>
      </trkpt>
      <trkpt lat="42.69145" lon="0.64115">
        <ele>2373</ele>
        <time>2021-10-17T10:11:15Z</time>
      </trkpt>
      <trkpt lat="42.69144" lon="0.64118">
        <ele>2373</ele>
        <time>2021-10-17T10:11:17Z</time>
      </trkpt>
      <trkpt lat="42.69145" lon="0.64121">
        <ele>2373</ele>
        <time>2021-10-17T10:11:20Z</time>
      </trkpt>
      <trkpt lat="42.69145" lon="0.64124">
        <ele>2373</ele>
        <time>2021-10-17T10:11:22Z</time>
      </trkpt>
      <trkpt lat="42.69145" lon="0.64126">
        <ele>2363</ele>
        <time>2021-10-17T10:11:24Z</time>
      </trkpt>
      <trkpt lat="42.69146" lon="0.64129">
        <ele>2363</ele>
        <time>2021-10-17T10:11:27Z</time>
      </trkpt>
      <trkpt lat="42.69147" lon="0.64133">
        <ele>2363</ele>
        <time>2021-10-17T10:11:30Z</time>
      </trkpt>
      <trkpt lat="42.69145" lon="0.64136">
        <ele>2363</ele>
        <time>2021-10-17T10:11:33Z</time>
      </trkpt>
      <trkpt lat="42.69146" lon="0.64138">
        <ele>2363</ele>
        <time>2021-10-17T10:11:36Z</time>
      </trkpt>
      <trkpt lat="42.69148" lon="0.6414">
        <ele>2363</ele>
        <time>2021-10-17T10:11:38Z</time>
      </trkpt>
      <trkpt lat="42.69149" lon="0.64142">
        <ele>2363</ele>
        <time>2021-10-17T10:11:40Z</time>
      </trkpt>
      <trkpt lat="42.6915" lon="0.64144">
        <ele>2363</ele>
        <time>2021-10-17T10:11:42Z</time>
      </trkpt>
      <trkpt lat="42.69151" lon="0.64147">
        <ele>2363</ele>
        <time>2021-10-17T10:11:45Z</time>
      </trkpt>
      <trkpt lat="42.69151" lon="0.6415">
        <ele>2363</ele>
        <time>2021-10-17T10:11:47Z</time>
      </trkpt>
      <trkpt lat="42.6915" lon="0.64153">
        <ele>2363</ele>
        <time>2021-10-17T10:11:50Z</time>
      </trkpt>
      <trkpt lat="42.69151" lon="0.64156">
        <ele>2363</ele>
        <time>2021-10-17T10:11:53Z</time>
      </trkpt>
      <trkpt lat="42.69151" lon="0.64159">
        <ele>2363</ele>
        <time>2021-10-17T10:11:55Z</time>
      </trkpt>
      <trkpt lat="42.69151" lon="0.64162">
        <ele>2363</ele>
        <time>2021-10-17T10:11:58Z</time>
      </trkpt>
      <trkpt lat="42.69151" lon="0.64165">
        <ele>2363</ele>
        <time>2021-10-17T10:12:01Z</time>
      </trkpt>
      <trkpt lat="42.6915" lon="0.64168">
        <ele>2363</ele>
        <time>2021-10-17T10:12:03Z</time>
      </trkpt>
      <trkpt lat="42.6915" lon="0.64171">
        <ele>2363</ele>
        <time>2021-10-17T10:12:05Z</time>
      </trkpt>
      <trkpt lat="42.69151" lon="0.64173">
        <ele>2363</ele>
        <time>2021-10-17T10:12:07Z</time>
      </trkpt>
      <trkpt lat="42.69151" lon="0.64176">
        <ele>2363</ele>
        <time>2021-10-17T10:12:10Z</time>
      </trkpt>
      <trkpt lat="42.69151" lon="0.64179">
        <ele>2363</ele>
        <time>2021-10-17T10:12:13Z</time>
      </trkpt>
      <trkpt lat="42.69152" lon="0.64182">
        <ele>2363</ele>
        <time>2021-10-17T10:12:15Z</time>
      </trkpt>
      <trkpt lat="42.69152" lon="0.64184">
        <ele>2363</ele>
        <time>2021-10-17T10:12:17Z</time>
      </trkpt>
      <trkpt lat="42.69153" lon="0.64188">
        <ele>2363</ele>
        <time>2021-10-17T10:12:19Z</time>
      </trkpt>
      <trkpt lat="42.69153" lon="0.64191">
        <ele>2363</ele>
        <time>2021-10-17T10:12:21Z</time>
      </trkpt>
      <trkpt lat="42.69152" lon="0.64194">
        <ele>2363</ele>
        <time>2021-10-17T10:12:23Z</time>
      </trkpt>
      <trkpt lat="42.69152" lon="0.64198">
        <ele>2363</ele>
        <time>2021-10-17T10:12:25Z</time>
      </trkpt>
      <trkpt lat="42.69151" lon="0.64201">
        <ele>2363</ele>
        <time>2021-10-17T10:12:27Z</time>
      </trkpt>
      <trkpt lat="42.69151" lon="0.64205">
        <ele>2363</ele>
        <time>2021-10-17T10:12:29Z</time>
      </trkpt>
      <trkpt lat="42.6915" lon="0.64208">
        <ele>2363</ele>
        <time>2021-10-17T10:12:31Z</time>
      </trkpt>
      <trkpt lat="42.6915" lon="0.64211">
        <ele>2363</ele>
        <time>2021-10-17T10:12:33Z</time>
      </trkpt>
      <trkpt lat="42.6915" lon="0.64214">
        <ele>2363</ele>
        <time>2021-10-17T10:12:35Z</time>
      </trkpt>
      <trkpt lat="42.69149" lon="0.64218">
        <ele>2363</ele>
        <time>2021-10-17T10:12:37Z</time>
      </trkpt>
      <trkpt lat="42.69148" lon="0.64221">
        <ele>2363</ele>
        <time>2021-10-17T10:12:39Z</time>
      </trkpt>
      <trkpt lat="42.69146" lon="0.64223">
        <ele>2363</ele>
        <time>2021-10-17T10:12:41Z</time>
      </trkpt>
      <trkpt lat="42.69145" lon="0.64226">
        <ele>2363</ele>
        <time>2021-10-17T10:12:44Z</time>
      </trkpt>
      <trkpt lat="42.69145" lon="0.6423">
        <ele>2363</ele>
        <time>2021-10-17T10:12:47Z</time>
      </trkpt>
      <trkpt lat="42.69144" lon="0.64232">
        <ele>2363</ele>
        <time>2021-10-17T10:12:49Z</time>
      </trkpt>
      <trkpt lat="42.69143" lon="0.64234">
        <ele>2363</ele>
        <time>2021-10-17T10:12:52Z</time>
      </trkpt>
      <trkpt lat="42.69144" lon="0.64237">
        <ele>2363</ele>
        <time>2021-10-17T10:12:55Z</time>
      </trkpt>
      <trkpt lat="42.69145" lon="0.64239">
        <ele>2363</ele>
        <time>2021-10-17T10:12:57Z</time>
      </trkpt>
      <trkpt lat="42.69146" lon="0.64242">
        <ele>2363</ele>
        <time>2021-10-17T10:12:59Z</time>
      </trkpt>
      <trkpt lat="42.69145" lon="0.64244">
        <ele>2363</ele>
        <time>2021-10-17T10:13:01Z</time>
      </trkpt>
      <trkpt lat="42.69144" lon="0.64247">
        <ele>2363</ele>
        <time>2021-10-17T10:13:03Z</time>
      </trkpt>
      <trkpt lat="42.69144" lon="0.6425">
        <ele>2363</ele>
        <time>2021-10-17T10:13:05Z</time>
      </trkpt>
      <trkpt lat="42.69145" lon="0.64252">
        <ele>2363</ele>
        <time>2021-10-17T10:13:08Z</time>
      </trkpt>
      <trkpt lat="42.69144" lon="0.64255">
        <ele>2363</ele>
        <time>2021-10-17T10:13:12Z</time>
      </trkpt>
      <trkpt lat="42.69143" lon="0.64257">
        <ele>2363</ele>
        <time>2021-10-17T10:13:15Z</time>
      </trkpt>
      <trkpt lat="42.69142" lon="0.6426">
        <ele>2363</ele>
        <time>2021-10-17T10:13:17Z</time>
      </trkpt>
      <trkpt lat="42.69142" lon="0.64262">
        <ele>2363</ele>
        <time>2021-10-17T10:13:19Z</time>
      </trkpt>
      <trkpt lat="42.69142" lon="0.64265">
        <ele>2363</ele>
        <time>2021-10-17T10:13:22Z</time>
      </trkpt>
      <trkpt lat="42.69142" lon="0.64268">
        <ele>2363</ele>
        <time>2021-10-17T10:13:25Z</time>
      </trkpt>
      <trkpt lat="42.69141" lon="0.64272">
        <ele>2363</ele>
        <time>2021-10-17T10:13:28Z</time>
      </trkpt>
      <trkpt lat="42.6914" lon="0.64275">
        <ele>2363</ele>
        <time>2021-10-17T10:13:31Z</time>
      </trkpt>
      <trkpt lat="42.69139" lon="0.64277">
        <ele>2363</ele>
        <time>2021-10-17T10:13:33Z</time>
      </trkpt>
      <trkpt lat="42.69138" lon="0.64279">
        <ele>2363</ele>
        <time>2021-10-17T10:13:35Z</time>
      </trkpt>
      <trkpt lat="42.69137" lon="0.64282">
        <ele>2363</ele>
        <time>2021-10-17T10:13:37Z</time>
      </trkpt>
      <trkpt lat="42.69136" lon="0.64284">
        <ele>2363</ele>
        <time>2021-10-17T10:13:40Z</time>
      </trkpt>
      <trkpt lat="42.69134" lon="0.64287">
        <ele>2363</ele>
        <time>2021-10-17T10:13:43Z</time>
      </trkpt>
      <trkpt lat="42.69133" lon="0.6429">
        <ele>2363</ele>
        <time>2021-10-17T10:13:45Z</time>
      </trkpt>
      <trkpt lat="42.69132" lon="0.64294">
        <ele>2363</ele>
        <time>2021-10-17T10:13:48Z</time>
      </trkpt>
      <trkpt lat="42.69132" lon="0.64296">
        <ele>2363</ele>
        <time>2021-10-17T10:13:50Z</time>
      </trkpt>
      <trkpt lat="42.6913" lon="0.64299">
        <ele>2363</ele>
        <time>2021-10-17T10:13:52Z</time>
      </trkpt>
      <trkpt lat="42.69129" lon="0.64301">
        <ele>2363</ele>
        <time>2021-10-17T10:13:54Z</time>
      </trkpt>
      <trkpt lat="42.69127" lon="0.64304">
        <ele>2363</ele>
        <time>2021-10-17T10:13:56Z</time>
      </trkpt>
      <trkpt lat="42.69126" lon="0.64307">
        <ele>2363</ele>
        <time>2021-10-17T10:13:58Z</time>
      </trkpt>
      <trkpt lat="42.69125" lon="0.64311">
        <ele>2363</ele>
        <time>2021-10-17T10:14:00Z</time>
      </trkpt>
      <trkpt lat="42.69124" lon="0.64314">
        <ele>2363</ele>
        <time>2021-10-17T10:14:02Z</time>
      </trkpt>
      <trkpt lat="42.69123" lon="0.64316">
        <ele>2338</ele>
        <time>2021-10-17T10:14:04Z</time>
      </trkpt>
      <trkpt lat="42.69122" lon="0.64319">
        <ele>2338</ele>
        <time>2021-10-17T10:14:06Z</time>
      </trkpt>
      <trkpt lat="42.6912" lon="0.64321">
        <ele>2338</ele>
        <time>2021-10-17T10:14:08Z</time>
      </trkpt>
      <trkpt lat="42.69119" lon="0.64323">
        <ele>2338</ele>
        <time>2021-10-17T10:14:10Z</time>
      </trkpt>
      <trkpt lat="42.69118" lon="0.64326">
        <ele>2338</ele>
        <time>2021-10-17T10:14:12Z</time>
      </trkpt>
      <trkpt lat="42.69117" lon="0.64329">
        <ele>2338</ele>
        <time>2021-10-17T10:14:14Z</time>
      </trkpt>
      <trkpt lat="42.69117" lon="0.64331">
        <ele>2338</ele>
        <time>2021-10-17T10:14:16Z</time>
      </trkpt>
      <trkpt lat="42.69117" lon="0.64334">
        <ele>2338</ele>
        <time>2021-10-17T10:14:18Z</time>
      </trkpt>
      <trkpt lat="42.69116" lon="0.64337">
        <ele>2338</ele>
        <time>2021-10-17T10:14:20Z</time>
      </trkpt>
      <trkpt lat="42.69116" lon="0.6434">
        <ele>2338</ele>
        <time>2021-10-17T10:14:22Z</time>
      </trkpt>
      <trkpt lat="42.69116" lon="0.64343">
        <ele>2338</ele>
        <time>2021-10-17T10:14:24Z</time>
      </trkpt>
      <trkpt lat="42.69116" lon="0.64346">
        <ele>2338</ele>
        <time>2021-10-17T10:14:27Z</time>
      </trkpt>
      <trkpt lat="42.69116" lon="0.64349">
        <ele>2338</ele>
        <time>2021-10-17T10:14:30Z</time>
      </trkpt>
      <trkpt lat="42.69116" lon="0.64353">
        <ele>2338</ele>
        <time>2021-10-17T10:14:32Z</time>
      </trkpt>
      <trkpt lat="42.69115" lon="0.64356">
        <ele>2337</ele>
        <time>2021-10-17T10:14:34Z</time>
      </trkpt>
      <trkpt lat="42.69113" lon="0.64359">
        <ele>2337</ele>
        <time>2021-10-17T10:14:36Z</time>
      </trkpt>
      <trkpt lat="42.69112" lon="0.64363">
        <ele>2337</ele>
        <time>2021-10-17T10:14:38Z</time>
      </trkpt>
      <trkpt lat="42.69111" lon="0.64366">
        <ele>2337</ele>
        <time>2021-10-17T10:14:40Z</time>
      </trkpt>
      <trkpt lat="42.6911" lon="0.6437">
        <ele>2337</ele>
        <time>2021-10-17T10:14:42Z</time>
      </trkpt>
      <trkpt lat="42.69108" lon="0.64373">
        <ele>2336</ele>
        <time>2021-10-17T10:14:44Z</time>
      </trkpt>
      <trkpt lat="42.69107" lon="0.64376">
        <ele>2336</ele>
        <time>2021-10-17T10:14:46Z</time>
      </trkpt>
      <trkpt lat="42.69107" lon="0.6438">
        <ele>2336</ele>
        <time>2021-10-17T10:14:48Z</time>
      </trkpt>
      <trkpt lat="42.69106" lon="0.64383">
        <ele>2336</ele>
        <time>2021-10-17T10:14:50Z</time>
      </trkpt>
      <trkpt lat="42.69105" lon="0.64387">
        <ele>2336</ele>
        <time>2021-10-17T10:14:52Z</time>
      </trkpt>
      <trkpt lat="42.69105" lon="0.64391">
        <ele>2336</ele>
        <time>2021-10-17T10:14:54Z</time>
      </trkpt>
      <trkpt lat="42.69104" lon="0.64394">
        <ele>2336</ele>
        <time>2021-10-17T10:14:56Z</time>
      </trkpt>
      <trkpt lat="42.69103" lon="0.64397">
        <ele>2336</ele>
        <time>2021-10-17T10:14:58Z</time>
      </trkpt>
      <trkpt lat="42.69102" lon="0.644">
        <ele>2336</ele>
        <time>2021-10-17T10:15:00Z</time>
      </trkpt>
      <trkpt lat="42.69102" lon="0.64403">
        <ele>2336</ele>
        <time>2021-10-17T10:15:02Z</time>
      </trkpt>
      <trkpt lat="42.69101" lon="0.64405">
        <ele>2335</ele>
        <time>2021-10-17T10:15:04Z</time>
      </trkpt>
      <trkpt lat="42.69101" lon="0.64408">
        <ele>2335</ele>
        <time>2021-10-17T10:15:07Z</time>
      </trkpt>
      <trkpt lat="42.69101" lon="0.64411">
        <ele>2335</ele>
        <time>2021-10-17T10:15:10Z</time>
      </trkpt>
      <trkpt lat="42.691" lon="0.64414">
        <ele>2335</ele>
        <time>2021-10-17T10:15:13Z</time>
      </trkpt>
      <trkpt lat="42.69099" lon="0.64416">
        <ele>2335</ele>
        <time>2021-10-17T10:15:16Z</time>
      </trkpt>
      <trkpt lat="42.69097" lon="0.64419">
        <ele>2335</ele>
        <time>2021-10-17T10:15:19Z</time>
      </trkpt>
      <trkpt lat="42.69096" lon="0.64422">
        <ele>2335</ele>
        <time>2021-10-17T10:15:21Z</time>
      </trkpt>
      <trkpt lat="42.69094" lon="0.64424">
        <ele>2335</ele>
        <time>2021-10-17T10:15:23Z</time>
      </trkpt>
      <trkpt lat="42.69092" lon="0.64425">
        <ele>2335</ele>
        <time>2021-10-17T10:15:25Z</time>
      </trkpt>
      <trkpt lat="42.6909" lon="0.64426">
        <ele>2335</ele>
        <time>2021-10-17T10:15:27Z</time>
      </trkpt>
      <trkpt lat="42.69088" lon="0.64428">
        <ele>2335</ele>
        <time>2021-10-17T10:15:29Z</time>
      </trkpt>
      <trkpt lat="42.69087" lon="0.6443">
        <ele>2335</ele>
        <time>2021-10-17T10:15:31Z</time>
      </trkpt>
      <trkpt lat="42.69086" lon="0.64433">
        <ele>2335</ele>
        <time>2021-10-17T10:15:33Z</time>
      </trkpt>
      <trkpt lat="42.69085" lon="0.64435">
        <ele>2335</ele>
        <time>2021-10-17T10:15:35Z</time>
      </trkpt>
      <trkpt lat="42.69084" lon="0.64437">
        <ele>2335</ele>
        <time>2021-10-17T10:15:37Z</time>
      </trkpt>
      <trkpt lat="42.69081" lon="0.64439">
        <ele>2335</ele>
        <time>2021-10-17T10:15:39Z</time>
      </trkpt>
      <trkpt lat="42.6908" lon="0.64441">
        <ele>2335</ele>
        <time>2021-10-17T10:15:41Z</time>
      </trkpt>
      <trkpt lat="42.69078" lon="0.64444">
        <ele>2335</ele>
        <time>2021-10-17T10:15:43Z</time>
      </trkpt>
      <trkpt lat="42.69076" lon="0.64446">
        <ele>2335</ele>
        <time>2021-10-17T10:15:45Z</time>
      </trkpt>
      <trkpt lat="42.69074" lon="0.64448">
        <ele>2335</ele>
        <time>2021-10-17T10:15:47Z</time>
      </trkpt>
      <trkpt lat="42.69072" lon="0.64449">
        <ele>2335</ele>
        <time>2021-10-17T10:15:49Z</time>
      </trkpt>
      <trkpt lat="42.6907" lon="0.64451">
        <ele>2335</ele>
        <time>2021-10-17T10:15:51Z</time>
      </trkpt>
      <trkpt lat="42.69069" lon="0.64453">
        <ele>2335</ele>
        <time>2021-10-17T10:15:53Z</time>
      </trkpt>
      <trkpt lat="42.69067" lon="0.64455">
        <ele>2328</ele>
        <time>2021-10-17T10:15:55Z</time>
      </trkpt>
      <trkpt lat="42.69065" lon="0.64458">
        <ele>2328</ele>
        <time>2021-10-17T10:15:57Z</time>
      </trkpt>
      <trkpt lat="42.69064" lon="0.6446">
        <ele>2328</ele>
        <time>2021-10-17T10:15:59Z</time>
      </trkpt>
      <trkpt lat="42.69063" lon="0.64463">
        <ele>2328</ele>
        <time>2021-10-17T10:16:01Z</time>
      </trkpt>
      <trkpt lat="42.69062" lon="0.64465">
        <ele>2328</ele>
        <time>2021-10-17T10:16:03Z</time>
      </trkpt>
      <trkpt lat="42.69061" lon="0.64467">
        <ele>2328</ele>
        <time>2021-10-17T10:16:26Z</time>
      </trkpt>
      <trkpt lat="42.69059" lon="0.64469">
        <ele>2328</ele>
        <time>2021-10-17T10:17:29Z</time>
      </trkpt>
      <trkpt lat="42.69058" lon="0.64472">
        <ele>2328</ele>
        <time>2021-10-17T10:17:31Z</time>
      </trkpt>
      <trkpt lat="42.69056" lon="0.64474">
        <ele>2328</ele>
        <time>2021-10-17T10:17:33Z</time>
      </trkpt>
      <trkpt lat="42.69055" lon="0.64477">
        <ele>2328</ele>
        <time>2021-10-17T10:17:35Z</time>
      </trkpt>
      <trkpt lat="42.69053" lon="0.64479">
        <ele>2328</ele>
        <time>2021-10-17T10:17:37Z</time>
      </trkpt>
      <trkpt lat="42.69053" lon="0.64483">
        <ele>2328</ele>
        <time>2021-10-17T10:17:40Z</time>
      </trkpt>
      <trkpt lat="42.69052" lon="0.64485">
        <ele>2328</ele>
        <time>2021-10-17T10:17:42Z</time>
      </trkpt>
      <trkpt lat="42.69051" lon="0.64487">
        <ele>2326</ele>
        <time>2021-10-17T10:17:44Z</time>
      </trkpt>
      <trkpt lat="42.69049" lon="0.6449">
        <ele>2326</ele>
        <time>2021-10-17T10:17:47Z</time>
      </trkpt>
      <trkpt lat="42.69049" lon="0.64493">
        <ele>2326</ele>
        <time>2021-10-17T10:17:51Z</time>
      </trkpt>
      <trkpt lat="42.69048" lon="0.64496">
        <ele>2322</ele>
        <time>2021-10-17T10:17:54Z</time>
      </trkpt>
      <trkpt lat="42.69045" lon="0.64498">
        <ele>2322</ele>
        <time>2021-10-17T10:17:57Z</time>
      </trkpt>
      <trkpt lat="42.69044" lon="0.64499">
        <ele>2322</ele>
        <time>2021-10-17T10:17:59Z</time>
      </trkpt>
      <trkpt lat="42.69043" lon="0.64502">
        <ele>2322</ele>
        <time>2021-10-17T10:18:01Z</time>
      </trkpt>
      <trkpt lat="42.69043" lon="0.64505">
        <ele>2322</ele>
        <time>2021-10-17T10:18:03Z</time>
      </trkpt>
      <trkpt lat="42.69043" lon="0.64507">
        <ele>2322</ele>
        <time>2021-10-17T10:18:05Z</time>
      </trkpt>
      <trkpt lat="42.69043" lon="0.6451">
        <ele>2322</ele>
        <time>2021-10-17T10:18:07Z</time>
      </trkpt>
      <trkpt lat="42.69043" lon="0.64513">
        <ele>2322</ele>
        <time>2021-10-17T10:18:09Z</time>
      </trkpt>
      <trkpt lat="42.69043" lon="0.64516">
        <ele>2322</ele>
        <time>2021-10-17T10:18:11Z</time>
      </trkpt>
      <trkpt lat="42.69041" lon="0.64518">
        <ele>2322</ele>
        <time>2021-10-17T10:18:13Z</time>
      </trkpt>
      <trkpt lat="42.69039" lon="0.64519">
        <ele>2322</ele>
        <time>2021-10-17T10:18:15Z</time>
      </trkpt>
      <trkpt lat="42.69037" lon="0.64521">
        <ele>2322</ele>
        <time>2021-10-17T10:18:18Z</time>
      </trkpt>
      <trkpt lat="42.69035" lon="0.64522">
        <ele>2322</ele>
        <time>2021-10-17T10:18:20Z</time>
      </trkpt>
      <trkpt lat="42.69034" lon="0.64524">
        <ele>2322</ele>
        <time>2021-10-17T10:18:22Z</time>
      </trkpt>
      <trkpt lat="42.69032" lon="0.64525">
        <ele>2317</ele>
        <time>2021-10-17T10:18:24Z</time>
      </trkpt>
      <trkpt lat="42.6903" lon="0.64527">
        <ele>2317</ele>
        <time>2021-10-17T10:18:26Z</time>
      </trkpt>
      <trkpt lat="42.69029" lon="0.64528">
        <ele>2317</ele>
        <time>2021-10-17T10:18:28Z</time>
      </trkpt>
      <trkpt lat="42.69027" lon="0.6453">
        <ele>2317</ele>
        <time>2021-10-17T10:18:30Z</time>
      </trkpt>
      <trkpt lat="42.69025" lon="0.64532">
        <ele>2317</ele>
        <time>2021-10-17T10:18:32Z</time>
      </trkpt>
      <trkpt lat="42.69024" lon="0.64534">
        <ele>2317</ele>
        <time>2021-10-17T10:18:35Z</time>
      </trkpt>
      <trkpt lat="42.69025" lon="0.64536">
        <ele>2317</ele>
        <time>2021-10-17T10:18:38Z</time>
      </trkpt>
      <trkpt lat="42.69027" lon="0.64539">
        <ele>2317</ele>
        <time>2021-10-17T10:18:41Z</time>
      </trkpt>
      <trkpt lat="42.69028" lon="0.64541">
        <ele>2317</ele>
        <time>2021-10-17T10:18:43Z</time>
      </trkpt>
      <trkpt lat="42.69029" lon="0.64544">
        <ele>2317</ele>
        <time>2021-10-17T10:18:45Z</time>
      </trkpt>
      <trkpt lat="42.6903" lon="0.64546">
        <ele>2317</ele>
        <time>2021-10-17T10:18:47Z</time>
      </trkpt>
      <trkpt lat="42.69032" lon="0.64549">
        <ele>2317</ele>
        <time>2021-10-17T10:18:50Z</time>
      </trkpt>
      <trkpt lat="42.69033" lon="0.64551">
        <ele>2317</ele>
        <time>2021-10-17T10:18:52Z</time>
      </trkpt>
      <trkpt lat="42.69034" lon="0.64555">
        <ele>2310</ele>
        <time>2021-10-17T10:18:54Z</time>
      </trkpt>
      <trkpt lat="42.69034" lon="0.64558">
        <ele>2310</ele>
        <time>2021-10-17T10:18:56Z</time>
      </trkpt>
      <trkpt lat="42.69034" lon="0.64562">
        <ele>2310</ele>
        <time>2021-10-17T10:18:58Z</time>
      </trkpt>
      <trkpt lat="42.69033" lon="0.64565">
        <ele>2310</ele>
        <time>2021-10-17T10:19:00Z</time>
      </trkpt>
      <trkpt lat="42.69033" lon="0.64569">
        <ele>2310</ele>
        <time>2021-10-17T10:19:02Z</time>
      </trkpt>
      <trkpt lat="42.69033" lon="0.64573">
        <ele>2310</ele>
        <time>2021-10-17T10:19:04Z</time>
      </trkpt>
      <trkpt lat="42.69034" lon="0.64576">
        <ele>2310</ele>
        <time>2021-10-17T10:19:06Z</time>
      </trkpt>
      <trkpt lat="42.69034" lon="0.6458">
        <ele>2310</ele>
        <time>2021-10-17T10:19:08Z</time>
      </trkpt>
      <trkpt lat="42.69034" lon="0.64584">
        <ele>2310</ele>
        <time>2021-10-17T10:19:10Z</time>
      </trkpt>
      <trkpt lat="42.69034" lon="0.64588">
        <ele>2310</ele>
        <time>2021-10-17T10:19:12Z</time>
      </trkpt>
      <trkpt lat="42.69034" lon="0.64592">
        <ele>2306</ele>
        <time>2021-10-17T10:19:14Z</time>
      </trkpt>
      <trkpt lat="42.69034" lon="0.64595">
        <ele>2306</ele>
        <time>2021-10-17T10:19:16Z</time>
      </trkpt>
      <trkpt lat="42.69035" lon="0.64599">
        <ele>2306</ele>
        <time>2021-10-17T10:19:18Z</time>
      </trkpt>
      <trkpt lat="42.69036" lon="0.64602">
        <ele>2306</ele>
        <time>2021-10-17T10:19:20Z</time>
      </trkpt>
      <trkpt lat="42.69035" lon="0.64606">
        <ele>2306</ele>
        <time>2021-10-17T10:19:22Z</time>
      </trkpt>
      <trkpt lat="42.69035" lon="0.64609">
        <ele>2305</ele>
        <time>2021-10-17T10:19:24Z</time>
      </trkpt>
      <trkpt lat="42.69035" lon="0.64612">
        <ele>2305</ele>
        <time>2021-10-17T10:19:27Z</time>
      </trkpt>
      <trkpt lat="42.69036" lon="0.64615">
        <ele>2305</ele>
        <time>2021-10-17T10:19:29Z</time>
      </trkpt>
      <trkpt lat="42.69037" lon="0.64618">
        <ele>2305</ele>
        <time>2021-10-17T10:19:31Z</time>
      </trkpt>
      <trkpt lat="42.69037" lon="0.64621">
        <ele>2305</ele>
        <time>2021-10-17T10:19:33Z</time>
      </trkpt>
      <trkpt lat="42.69037" lon="0.64624">
        <ele>2305</ele>
        <time>2021-10-17T10:19:35Z</time>
      </trkpt>
      <trkpt lat="42.69036" lon="0.64627">
        <ele>2305</ele>
        <time>2021-10-17T10:19:37Z</time>
      </trkpt>
      <trkpt lat="42.69035" lon="0.6463">
        <ele>2305</ele>
        <time>2021-10-17T10:19:39Z</time>
      </trkpt>
      <trkpt lat="42.69033" lon="0.64633">
        <ele>2305</ele>
        <time>2021-10-17T10:19:41Z</time>
      </trkpt>
      <trkpt lat="42.69031" lon="0.64634">
        <ele>2305</ele>
        <time>2021-10-17T10:19:43Z</time>
      </trkpt>
      <trkpt lat="42.6903" lon="0.64637">
        <ele>2305</ele>
        <time>2021-10-17T10:19:45Z</time>
      </trkpt>
      <trkpt lat="42.69031" lon="0.64641">
        <ele>2305</ele>
        <time>2021-10-17T10:19:48Z</time>
      </trkpt>
      <trkpt lat="42.69031" lon="0.64644">
        <ele>2305</ele>
        <time>2021-10-17T10:19:50Z</time>
      </trkpt>
      <trkpt lat="42.69031" lon="0.64647">
        <ele>2305</ele>
        <time>2021-10-17T10:19:52Z</time>
      </trkpt>
      <trkpt lat="42.69031" lon="0.6465">
        <ele>2304</ele>
        <time>2021-10-17T10:19:54Z</time>
      </trkpt>
      <trkpt lat="42.6903" lon="0.64653">
        <ele>2304</ele>
        <time>2021-10-17T10:19:56Z</time>
      </trkpt>
      <trkpt lat="42.6903" lon="0.64656">
        <ele>2304</ele>
        <time>2021-10-17T10:19:58Z</time>
      </trkpt>
      <trkpt lat="42.69029" lon="0.64659">
        <ele>2304</ele>
        <time>2021-10-17T10:20:00Z</time>
      </trkpt>
      <trkpt lat="42.69028" lon="0.64662">
        <ele>2304</ele>
        <time>2021-10-17T10:20:02Z</time>
      </trkpt>
      <trkpt lat="42.69028" lon="0.64664">
        <ele>2303</ele>
        <time>2021-10-17T10:20:04Z</time>
      </trkpt>
      <trkpt lat="42.69028" lon="0.64667">
        <ele>2303</ele>
        <time>2021-10-17T10:20:06Z</time>
      </trkpt>
      <trkpt lat="42.69027" lon="0.6467">
        <ele>2303</ele>
        <time>2021-10-17T10:20:08Z</time>
      </trkpt>
      <trkpt lat="42.69026" lon="0.64673">
        <ele>2303</ele>
        <time>2021-10-17T10:20:10Z</time>
      </trkpt>
      <trkpt lat="42.69025" lon="0.64675">
        <ele>2303</ele>
        <time>2021-10-17T10:20:12Z</time>
      </trkpt>
      <trkpt lat="42.69024" lon="0.64678">
        <ele>2304</ele>
        <time>2021-10-17T10:20:14Z</time>
      </trkpt>
      <trkpt lat="42.69023" lon="0.6468">
        <ele>2304</ele>
        <time>2021-10-17T10:20:17Z</time>
      </trkpt>
      <trkpt lat="42.69023" lon="0.64683">
        <ele>2304</ele>
        <time>2021-10-17T10:20:19Z</time>
      </trkpt>
      <trkpt lat="42.69022" lon="0.64686">
        <ele>2304</ele>
        <time>2021-10-17T10:20:22Z</time>
      </trkpt>
      <trkpt lat="42.69023" lon="0.6469">
        <ele>2304</ele>
        <time>2021-10-17T10:20:25Z</time>
      </trkpt>
      <trkpt lat="42.69023" lon="0.64693">
        <ele>2304</ele>
        <time>2021-10-17T10:20:27Z</time>
      </trkpt>
      <trkpt lat="42.69022" lon="0.64695">
        <ele>2304</ele>
        <time>2021-10-17T10:20:29Z</time>
      </trkpt>
      <trkpt lat="42.69022" lon="0.64698">
        <ele>2304</ele>
        <time>2021-10-17T10:20:31Z</time>
      </trkpt>
      <trkpt lat="42.69021" lon="0.64701">
        <ele>2306</ele>
        <time>2021-10-17T10:20:34Z</time>
      </trkpt>
      <trkpt lat="42.69022" lon="0.64704">
        <ele>2306</ele>
        <time>2021-10-17T10:20:37Z</time>
      </trkpt>
      <trkpt lat="42.69023" lon="0.64706">
        <ele>2306</ele>
        <time>2021-10-17T10:20:40Z</time>
      </trkpt>
      <trkpt lat="42.69024" lon="0.64709">
        <ele>2306</ele>
        <time>2021-10-17T10:20:43Z</time>
      </trkpt>
      <trkpt lat="42.69025" lon="0.64712">
        <ele>2306</ele>
        <time>2021-10-17T10:20:46Z</time>
      </trkpt>
      <trkpt lat="42.69025" lon="0.64715">
        <ele>2308</ele>
        <time>2021-10-17T10:21:04Z</time>
      </trkpt>
      <trkpt lat="42.69026" lon="0.64718">
        <ele>2308</ele>
        <time>2021-10-17T10:21:07Z</time>
      </trkpt>
      <trkpt lat="42.69026" lon="0.64721">
        <ele>2308</ele>
        <time>2021-10-17T10:21:09Z</time>
      </trkpt>
      <trkpt lat="42.69027" lon="0.64724">
        <ele>2308</ele>
        <time>2021-10-17T10:21:12Z</time>
      </trkpt>
      <trkpt lat="42.69026" lon="0.64726">
        <ele>2311</ele>
        <time>2021-10-17T10:21:14Z</time>
      </trkpt>
      <trkpt lat="42.69026" lon="0.6473">
        <ele>2311</ele>
        <time>2021-10-17T10:21:17Z</time>
      </trkpt>
      <trkpt lat="42.69026" lon="0.64733">
        <ele>2311</ele>
        <time>2021-10-17T10:21:19Z</time>
      </trkpt>
      <trkpt lat="42.69026" lon="0.64735">
        <ele>2311</ele>
        <time>2021-10-17T10:21:21Z</time>
      </trkpt>
      <trkpt lat="42.69027" lon="0.64739">
        <ele>2311</ele>
        <time>2021-10-17T10:21:23Z</time>
      </trkpt>
      <trkpt lat="42.69027" lon="0.64743">
        <ele>2311</ele>
        <time>2021-10-17T10:21:25Z</time>
      </trkpt>
      <trkpt lat="42.69027" lon="0.64746">
        <ele>2311</ele>
        <time>2021-10-17T10:21:27Z</time>
      </trkpt>
      <trkpt lat="42.69027" lon="0.64749">
        <ele>2311</ele>
        <time>2021-10-17T10:21:29Z</time>
      </trkpt>
      <trkpt lat="42.69028" lon="0.64752">
        <ele>2311</ele>
        <time>2021-10-17T10:21:31Z</time>
      </trkpt>
      <trkpt lat="42.69028" lon="0.64756">
        <ele>2311</ele>
        <time>2021-10-17T10:21:33Z</time>
      </trkpt>
      <trkpt lat="42.69028" lon="0.64759">
        <ele>2311</ele>
        <time>2021-10-17T10:21:35Z</time>
      </trkpt>
      <trkpt lat="42.69028" lon="0.64763">
        <ele>2311</ele>
        <time>2021-10-17T10:21:37Z</time>
      </trkpt>
      <trkpt lat="42.69028" lon="0.64766">
        <ele>2311</ele>
        <time>2021-10-17T10:21:39Z</time>
      </trkpt>
      <trkpt lat="42.69027" lon="0.64769">
        <ele>2311</ele>
        <time>2021-10-17T10:21:41Z</time>
      </trkpt>
      <trkpt lat="42.69027" lon="0.64772">
        <ele>2311</ele>
        <time>2021-10-17T10:21:43Z</time>
      </trkpt>
      <trkpt lat="42.69027" lon="0.64775">
        <ele>2311</ele>
        <time>2021-10-17T10:21:45Z</time>
      </trkpt>
      <trkpt lat="42.69027" lon="0.64778">
        <ele>2311</ele>
        <time>2021-10-17T10:21:47Z</time>
      </trkpt>
      <trkpt lat="42.69027" lon="0.64781">
        <ele>2311</ele>
        <time>2021-10-17T10:21:49Z</time>
      </trkpt>
      <trkpt lat="42.69027" lon="0.64784">
        <ele>2311</ele>
        <time>2021-10-17T10:21:51Z</time>
      </trkpt>
      <trkpt lat="42.69027" lon="0.64788">
        <ele>2311</ele>
        <time>2021-10-17T10:21:53Z</time>
      </trkpt>
      <trkpt lat="42.69026" lon="0.64791">
        <ele>2311</ele>
        <time>2021-10-17T10:21:55Z</time>
      </trkpt>
      <trkpt lat="42.69026" lon="0.64795">
        <ele>2311</ele>
        <time>2021-10-17T10:21:57Z</time>
      </trkpt>
      <trkpt lat="42.69025" lon="0.64798">
        <ele>2311</ele>
        <time>2021-10-17T10:21:59Z</time>
      </trkpt>
      <trkpt lat="42.69024" lon="0.648">
        <ele>2311</ele>
        <time>2021-10-17T10:22:01Z</time>
      </trkpt>
      <trkpt lat="42.69023" lon="0.64803">
        <ele>2311</ele>
        <time>2021-10-17T10:22:03Z</time>
      </trkpt>
      <trkpt lat="42.69022" lon="0.64806">
        <ele>2311</ele>
        <time>2021-10-17T10:22:05Z</time>
      </trkpt>
      <trkpt lat="42.69021" lon="0.64808">
        <ele>2311</ele>
        <time>2021-10-17T10:22:07Z</time>
      </trkpt>
      <trkpt lat="42.69019" lon="0.64811">
        <ele>2311</ele>
        <time>2021-10-17T10:22:09Z</time>
      </trkpt>
      <trkpt lat="42.69018" lon="0.64813">
        <ele>2311</ele>
        <time>2021-10-17T10:22:12Z</time>
      </trkpt>
      <trkpt lat="42.69017" lon="0.64815">
        <ele>2311</ele>
        <time>2021-10-17T10:22:14Z</time>
      </trkpt>
      <trkpt lat="42.69015" lon="0.64817">
        <ele>2311</ele>
        <time>2021-10-17T10:22:17Z</time>
      </trkpt>
      <trkpt lat="42.69013" lon="0.64819">
        <ele>2311</ele>
        <time>2021-10-17T10:22:19Z</time>
      </trkpt>
      <trkpt lat="42.69012" lon="0.64821">
        <ele>2311</ele>
        <time>2021-10-17T10:22:22Z</time>
      </trkpt>
      <trkpt lat="42.6901" lon="0.64823">
        <ele>2316</ele>
        <time>2021-10-17T10:22:24Z</time>
      </trkpt>
      <trkpt lat="42.69008" lon="0.64825">
        <ele>2316</ele>
        <time>2021-10-17T10:22:27Z</time>
      </trkpt>
      <trkpt lat="42.69006" lon="0.64826">
        <ele>2316</ele>
        <time>2021-10-17T10:22:30Z</time>
      </trkpt>
      <trkpt lat="42.69004" lon="0.64828">
        <ele>2316</ele>
        <time>2021-10-17T10:22:32Z</time>
      </trkpt>
      <trkpt lat="42.69003" lon="0.6483">
        <ele>2316</ele>
        <time>2021-10-17T10:22:34Z</time>
      </trkpt>
      <trkpt lat="42.69002" lon="0.64833">
        <ele>2316</ele>
        <time>2021-10-17T10:22:36Z</time>
      </trkpt>
      <trkpt lat="42.69001" lon="0.64836">
        <ele>2316</ele>
        <time>2021-10-17T10:22:38Z</time>
      </trkpt>
      <trkpt lat="42.69001" lon="0.64839">
        <ele>2316</ele>
        <time>2021-10-17T10:22:40Z</time>
      </trkpt>
      <trkpt lat="42.69001" lon="0.64843">
        <ele>2316</ele>
        <time>2021-10-17T10:22:42Z</time>
      </trkpt>
      <trkpt lat="42.69001" lon="0.64846">
        <ele>2318</ele>
        <time>2021-10-17T10:22:44Z</time>
      </trkpt>
      <trkpt lat="42.69" lon="0.64849">
        <ele>2318</ele>
        <time>2021-10-17T10:22:46Z</time>
      </trkpt>
      <trkpt lat="42.69" lon="0.64852">
        <ele>2318</ele>
        <time>2021-10-17T10:22:48Z</time>
      </trkpt>
      <trkpt lat="42.69" lon="0.64855">
        <ele>2318</ele>
        <time>2021-10-17T10:22:50Z</time>
      </trkpt>
      <trkpt lat="42.69" lon="0.64858">
        <ele>2318</ele>
        <time>2021-10-17T10:22:52Z</time>
      </trkpt>
      <trkpt lat="42.69001" lon="0.64861">
        <ele>2318</ele>
        <time>2021-10-17T10:22:54Z</time>
      </trkpt>
      <trkpt lat="42.69001" lon="0.64864">
        <ele>2318</ele>
        <time>2021-10-17T10:22:56Z</time>
      </trkpt>
      <trkpt lat="42.69002" lon="0.64867">
        <ele>2318</ele>
        <time>2021-10-17T10:22:58Z</time>
      </trkpt>
      <trkpt lat="42.69002" lon="0.6487">
        <ele>2318</ele>
        <time>2021-10-17T10:23:00Z</time>
      </trkpt>
      <trkpt lat="42.69002" lon="0.64874">
        <ele>2318</ele>
        <time>2021-10-17T10:23:02Z</time>
      </trkpt>
      <trkpt lat="42.69003" lon="0.64877">
        <ele>2318</ele>
        <time>2021-10-17T10:23:04Z</time>
      </trkpt>
      <trkpt lat="42.69003" lon="0.64881">
        <ele>2318</ele>
        <time>2021-10-17T10:23:06Z</time>
      </trkpt>
      <trkpt lat="42.69004" lon="0.64884">
        <ele>2318</ele>
        <time>2021-10-17T10:23:08Z</time>
      </trkpt>
      <trkpt lat="42.69004" lon="0.64887">
        <ele>2318</ele>
        <time>2021-10-17T10:23:10Z</time>
      </trkpt>
      <trkpt lat="42.69005" lon="0.64891">
        <ele>2318</ele>
        <time>2021-10-17T10:23:12Z</time>
      </trkpt>
      <trkpt lat="42.69005" lon="0.64894">
        <ele>2319</ele>
        <time>2021-10-17T10:23:14Z</time>
      </trkpt>
      <trkpt lat="42.69005" lon="0.64897">
        <ele>2319</ele>
        <time>2021-10-17T10:23:16Z</time>
      </trkpt>
      <trkpt lat="42.69005" lon="0.64899">
        <ele>2319</ele>
        <time>2021-10-17T10:23:18Z</time>
      </trkpt>
      <trkpt lat="42.69005" lon="0.64902">
        <ele>2319</ele>
        <time>2021-10-17T10:23:20Z</time>
      </trkpt>
      <trkpt lat="42.69004" lon="0.64904">
        <ele>2319</ele>
        <time>2021-10-17T10:23:22Z</time>
      </trkpt>
      <trkpt lat="42.69003" lon="0.64907">
        <ele>2319</ele>
        <time>2021-10-17T10:23:25Z</time>
      </trkpt>
      <trkpt lat="42.69001" lon="0.64905">
        <ele>2319</ele>
        <time>2021-10-17T10:24:05Z</time>
      </trkpt>
      <trkpt lat="42.68999" lon="0.64906">
        <ele>2319</ele>
        <time>2021-10-17T10:24:08Z</time>
      </trkpt>
      <trkpt lat="42.68997" lon="0.64907">
        <ele>2321</ele>
        <time>2021-10-17T10:57:53Z</time>
      </trkpt>
      <trkpt lat="42.68999" lon="0.64914">
        <ele>2321</ele>
        <time>2021-10-17T10:58:00Z</time>
      </trkpt>
      <trkpt lat="42.68997" lon="0.64927">
        <ele>2321</ele>
        <time>2021-10-17T10:58:20Z</time>
      </trkpt>
      <trkpt lat="42.68998" lon="0.6494">
        <ele>2321</ele>
        <time>2021-10-17T10:58:30Z</time>
      </trkpt>
      <trkpt lat="42.68995" lon="0.64952">
        <ele>2321</ele>
        <time>2021-10-17T10:58:41Z</time>
      </trkpt>
      <trkpt lat="42.68989" lon="0.64962">
        <ele>2321</ele>
        <time>2021-10-17T10:58:50Z</time>
      </trkpt>
      <trkpt lat="42.68984" lon="0.64974">
        <ele>2321</ele>
        <time>2021-10-17T10:59:00Z</time>
      </trkpt>
      <trkpt lat="42.6898" lon="0.64985">
        <ele>2321</ele>
        <time>2021-10-17T10:59:11Z</time>
      </trkpt>
      <trkpt lat="42.68979" lon="0.64997">
        <ele>2327</ele>
        <time>2021-10-17T10:59:22Z</time>
      </trkpt>
      <trkpt lat="42.6898" lon="0.6501">
        <ele>2327</ele>
        <time>2021-10-17T10:59:35Z</time>
      </trkpt>
      <trkpt lat="42.68981" lon="0.65022">
        <ele>2327</ele>
        <time>2021-10-17T10:59:47Z</time>
      </trkpt>
      <trkpt lat="42.68982" lon="0.65034">
        <ele>2327</ele>
        <time>2021-10-17T10:59:58Z</time>
      </trkpt>
      <trkpt lat="42.68982" lon="0.65047">
        <ele>2327</ele>
        <time>2021-10-17T11:00:09Z</time>
      </trkpt>
      <trkpt lat="42.68985" lon="0.6506">
        <ele>2334</ele>
        <time>2021-10-17T11:00:22Z</time>
      </trkpt>
      <trkpt lat="42.68985" lon="0.65073">
        <ele>2334</ele>
        <time>2021-10-17T11:00:33Z</time>
      </trkpt>
      <trkpt lat="42.68984" lon="0.65086">
        <ele>2334</ele>
        <time>2021-10-17T11:00:44Z</time>
      </trkpt>
      <trkpt lat="42.68977" lon="0.65102">
        <ele>2334</ele>
        <time>2021-10-17T11:01:06Z</time>
      </trkpt>
      <trkpt lat="42.68972" lon="0.65113">
        <ele>2334</ele>
        <time>2021-10-17T11:01:17Z</time>
      </trkpt>
      <trkpt lat="42.68973" lon="0.65126">
        <ele>2334</ele>
        <time>2021-10-17T11:01:28Z</time>
      </trkpt>
      <trkpt lat="42.68972" lon="0.65138">
        <ele>2334</ele>
        <time>2021-10-17T11:01:39Z</time>
      </trkpt>
      <trkpt lat="42.68975" lon="0.6515">
        <ele>2334</ele>
        <time>2021-10-17T11:01:51Z</time>
      </trkpt>
      <trkpt lat="42.68973" lon="0.65163">
        <ele>2339</ele>
        <time>2021-10-17T11:02:02Z</time>
      </trkpt>
      <trkpt lat="42.6897" lon="0.65175">
        <ele>2339</ele>
        <time>2021-10-17T11:02:13Z</time>
      </trkpt>
      <trkpt lat="42.68968" lon="0.65187">
        <ele>2339</ele>
        <time>2021-10-17T11:02:22Z</time>
      </trkpt>
      <trkpt lat="42.6897" lon="0.652">
        <ele>2339</ele>
        <time>2021-10-17T11:02:35Z</time>
      </trkpt>
      <trkpt lat="42.68973" lon="0.65212">
        <ele>2339</ele>
        <time>2021-10-17T11:02:48Z</time>
      </trkpt>
      <trkpt lat="42.68976" lon="0.65224">
        <ele>2339</ele>
        <time>2021-10-17T11:02:58Z</time>
      </trkpt>
      <trkpt lat="42.6898" lon="0.65237">
        <ele>2339</ele>
        <time>2021-10-17T11:03:07Z</time>
      </trkpt>
      <trkpt lat="42.68984" lon="0.65249">
        <ele>2339</ele>
        <time>2021-10-17T11:03:16Z</time>
      </trkpt>
      <trkpt lat="42.68984" lon="0.65262">
        <ele>2339</ele>
        <time>2021-10-17T11:03:24Z</time>
      </trkpt>
      <trkpt lat="42.68985" lon="0.65274">
        <ele>2339</ele>
        <time>2021-10-17T11:03:32Z</time>
      </trkpt>
      <trkpt lat="42.68988" lon="0.65286">
        <ele>2339</ele>
        <time>2021-10-17T11:03:46Z</time>
      </trkpt>
      <trkpt lat="42.68989" lon="0.65298">
        <ele>2339</ele>
        <time>2021-10-17T11:03:57Z</time>
      </trkpt>
      <trkpt lat="42.68988" lon="0.6531">
        <ele>2339</ele>
        <time>2021-10-17T11:04:06Z</time>
      </trkpt>
      <trkpt lat="42.68992" lon="0.65323">
        <ele>2339</ele>
        <time>2021-10-17T11:04:15Z</time>
      </trkpt>
      <trkpt lat="42.68991" lon="0.65336">
        <ele>2339</ele>
        <time>2021-10-17T11:04:24Z</time>
      </trkpt>
      <trkpt lat="42.68992" lon="0.65348">
        <ele>2339</ele>
        <time>2021-10-17T11:04:34Z</time>
      </trkpt>
      <trkpt lat="42.68988" lon="0.6536">
        <ele>2339</ele>
        <time>2021-10-17T11:04:57Z</time>
      </trkpt>
      <trkpt lat="42.68987" lon="0.65372">
        <ele>2339</ele>
        <time>2021-10-17T11:05:05Z</time>
      </trkpt>
      <trkpt lat="42.68983" lon="0.65385">
        <ele>2339</ele>
        <time>2021-10-17T11:05:15Z</time>
      </trkpt>
      <trkpt lat="42.6898" lon="0.65398">
        <ele>2339</ele>
        <time>2021-10-17T11:05:25Z</time>
      </trkpt>
      <trkpt lat="42.68978" lon="0.6541">
        <ele>2339</ele>
        <time>2021-10-17T11:05:35Z</time>
      </trkpt>
      <trkpt lat="42.68976" lon="0.65422">
        <ele>2339</ele>
        <time>2021-10-17T11:05:44Z</time>
      </trkpt>
      <trkpt lat="42.68975" lon="0.65435">
        <ele>2339</ele>
        <time>2021-10-17T11:05:55Z</time>
      </trkpt>
      <trkpt lat="42.68973" lon="0.65447">
        <ele>2339</ele>
        <time>2021-10-17T11:06:04Z</time>
      </trkpt>
      <trkpt lat="42.68976" lon="0.65459">
        <ele>2339</ele>
        <time>2021-10-17T11:06:14Z</time>
      </trkpt>
      <trkpt lat="42.68973" lon="0.65471">
        <ele>2339</ele>
        <time>2021-10-17T11:06:26Z</time>
      </trkpt>
      <trkpt lat="42.68966" lon="0.6548">
        <ele>2339</ele>
        <time>2021-10-17T11:06:36Z</time>
      </trkpt>
      <trkpt lat="42.68963" lon="0.65492">
        <ele>2339</ele>
        <time>2021-10-17T11:06:48Z</time>
      </trkpt>
      <trkpt lat="42.68964" lon="0.65505">
        <ele>2339</ele>
        <time>2021-10-17T11:07:01Z</time>
      </trkpt>
      <trkpt lat="42.68962" lon="0.65518">
        <ele>2339</ele>
        <time>2021-10-17T11:07:15Z</time>
      </trkpt>
      <trkpt lat="42.68958" lon="0.6553">
        <ele>2339</ele>
        <time>2021-10-17T11:07:28Z</time>
      </trkpt>
      <trkpt lat="42.68953" lon="0.65542">
        <ele>2339</ele>
        <time>2021-10-17T11:07:42Z</time>
      </trkpt>
      <trkpt lat="42.68951" lon="0.65554">
        <ele>2339</ele>
        <time>2021-10-17T11:07:56Z</time>
      </trkpt>
      <trkpt lat="42.68953" lon="0.65566">
        <ele>2339</ele>
        <time>2021-10-17T11:08:15Z</time>
      </trkpt>
      <trkpt lat="42.68956" lon="0.65578">
        <ele>2376</ele>
        <time>2021-10-17T11:08:32Z</time>
      </trkpt>
      <trkpt lat="42.68955" lon="0.6559">
        <ele>2376</ele>
        <time>2021-10-17T11:08:43Z</time>
      </trkpt>
      <trkpt lat="42.68952" lon="0.65603">
        <ele>2376</ele>
        <time>2021-10-17T11:08:57Z</time>
      </trkpt>
      <trkpt lat="42.6895" lon="0.65616">
        <ele>2376</ele>
        <time>2021-10-17T11:09:16Z</time>
      </trkpt>
      <trkpt lat="42.68951" lon="0.65628">
        <ele>2387</ele>
        <time>2021-10-17T11:09:32Z</time>
      </trkpt>
      <trkpt lat="42.68951" lon="0.65641">
        <ele>2387</ele>
        <time>2021-10-17T11:09:47Z</time>
      </trkpt>
      <trkpt lat="42.68955" lon="0.65653">
        <ele>2387</ele>
        <time>2021-10-17T11:10:01Z</time>
      </trkpt>
      <trkpt lat="42.68956" lon="0.65666">
        <ele>2387</ele>
        <time>2021-10-17T11:10:20Z</time>
      </trkpt>
      <trkpt lat="42.68955" lon="0.65678">
        <ele>2387</ele>
        <time>2021-10-17T11:10:30Z</time>
      </trkpt>
      <trkpt lat="42.68955" lon="0.65691">
        <ele>2387</ele>
        <time>2021-10-17T11:10:46Z</time>
      </trkpt>
      <trkpt lat="42.68957" lon="0.65704">
        <ele>2387</ele>
        <time>2021-10-17T11:11:05Z</time>
      </trkpt>
      <trkpt lat="42.68951" lon="0.65714">
        <ele>2387</ele>
        <time>2021-10-17T11:11:16Z</time>
      </trkpt>
      <trkpt lat="42.68947" lon="0.65727">
        <ele>2387</ele>
        <time>2021-10-17T11:11:29Z</time>
      </trkpt>
      <trkpt lat="42.68943" lon="0.65738">
        <ele>2387</ele>
        <time>2021-10-17T11:11:46Z</time>
      </trkpt>
      <trkpt lat="42.68944" lon="0.65751">
        <ele>2387</ele>
        <time>2021-10-17T11:12:20Z</time>
      </trkpt>
      <trkpt lat="42.68945" lon="0.65765">
        <ele>2387</ele>
        <time>2021-10-17T11:12:34Z</time>
      </trkpt>
      <trkpt lat="42.68939" lon="0.65777">
        <ele>2387</ele>
        <time>2021-10-17T11:12:43Z</time>
      </trkpt>
      <trkpt lat="42.68942" lon="0.65789">
        <ele>2387</ele>
        <time>2021-10-17T11:12:57Z</time>
      </trkpt>
      <trkpt lat="42.68941" lon="0.65801">
        <ele>2387</ele>
        <time>2021-10-17T11:13:17Z</time>
      </trkpt>
      <trkpt lat="42.68941" lon="0.65814">
        <ele>2387</ele>
        <time>2021-10-17T11:13:38Z</time>
      </trkpt>
      <trkpt lat="42.68938" lon="0.65826">
        <ele>2427</ele>
        <time>2021-10-17T11:13:52Z</time>
      </trkpt>
      <trkpt lat="42.68935" lon="0.65839">
        <ele>2427</ele>
        <time>2021-10-17T11:14:13Z</time>
      </trkpt>
      <trkpt lat="42.68935" lon="0.65851">
        <ele>2427</ele>
        <time>2021-10-17T11:14:31Z</time>
      </trkpt>
      <trkpt lat="42.68934" lon="0.65864">
        <ele>2427</ele>
        <time>2021-10-17T11:14:42Z</time>
      </trkpt>
      <trkpt lat="42.68931" lon="0.65876">
        <ele>2427</ele>
        <time>2021-10-17T11:14:54Z</time>
      </trkpt>
      <trkpt lat="42.68929" lon="0.65889">
        <ele>2427</ele>
        <time>2021-10-17T11:15:03Z</time>
      </trkpt>
      <trkpt lat="42.68932" lon="0.65902">
        <ele>2427</ele>
        <time>2021-10-17T11:15:17Z</time>
      </trkpt>
      <trkpt lat="42.68937" lon="0.65913">
        <ele>2427</ele>
        <time>2021-10-17T11:15:28Z</time>
      </trkpt>
      <trkpt lat="42.68938" lon="0.65925">
        <ele>2427</ele>
        <time>2021-10-17T11:15:40Z</time>
      </trkpt>
      <trkpt lat="42.68939" lon="0.65938">
        <ele>2427</ele>
        <time>2021-10-17T11:15:51Z</time>
      </trkpt>
      <trkpt lat="42.68939" lon="0.65951">
        <ele>2427</ele>
        <time>2021-10-17T11:16:01Z</time>
      </trkpt>
      <trkpt lat="42.68938" lon="0.65964">
        <ele>2427</ele>
        <time>2021-10-17T11:16:11Z</time>
      </trkpt>
      <trkpt lat="42.68935" lon="0.65977">
        <ele>2427</ele>
        <time>2021-10-17T11:16:20Z</time>
      </trkpt>
      <trkpt lat="42.68931" lon="0.65989">
        <ele>2427</ele>
        <time>2021-10-17T11:16:29Z</time>
      </trkpt>
      <trkpt lat="42.68928" lon="0.66">
        <ele>2427</ele>
        <time>2021-10-17T11:16:39Z</time>
      </trkpt>
      <trkpt lat="42.68933" lon="0.66011">
        <ele>2427</ele>
        <time>2021-10-17T11:16:49Z</time>
      </trkpt>
      <trkpt lat="42.6893" lon="0.66023">
        <ele>2427</ele>
        <time>2021-10-17T11:16:58Z</time>
      </trkpt>
      <trkpt lat="42.68927" lon="0.66034">
        <ele>2427</ele>
        <time>2021-10-17T11:17:06Z</time>
      </trkpt>
      <trkpt lat="42.68921" lon="0.66044">
        <ele>2427</ele>
        <time>2021-10-17T11:17:15Z</time>
      </trkpt>
      <trkpt lat="42.68929" lon="0.66051">
        <ele>2427</ele>
        <time>2021-10-17T11:21:25Z</time>
      </trkpt>
      <trkpt lat="42.68935" lon="0.66062">
        <ele>2427</ele>
        <time>2021-10-17T11:21:37Z</time>
      </trkpt>
      <trkpt lat="42.6894" lon="0.66072">
        <ele>2427</ele>
        <time>2021-10-17T11:21:47Z</time>
      </trkpt>
      <trkpt lat="42.68946" lon="0.66083">
        <ele>2427</ele>
        <time>2021-10-17T11:21:56Z</time>
      </trkpt>
      <trkpt lat="42.68948" lon="0.66096">
        <ele>2427</ele>
        <time>2021-10-17T11:22:05Z</time>
      </trkpt>
      <trkpt lat="42.68938" lon="0.66094">
        <ele>2427</ele>
        <time>2021-10-17T11:22:19Z</time>
      </trkpt>
      <trkpt lat="42.68933" lon="0.66105">
        <ele>2457</ele>
        <time>2021-10-17T11:22:32Z</time>
      </trkpt>
      <trkpt lat="42.68938" lon="0.66117">
        <ele>2457</ele>
        <time>2021-10-17T11:22:50Z</time>
      </trkpt>
      <trkpt lat="42.68938" lon="0.6613">
        <ele>2457</ele>
        <time>2021-10-17T11:23:04Z</time>
      </trkpt>
      <trkpt lat="42.68945" lon="0.66137">
        <ele>2457</ele>
        <time>2021-10-17T11:24:24Z</time>
      </trkpt>
      <trkpt lat="42.6894" lon="0.66148">
        <ele>2457</ele>
        <time>2021-10-17T11:24:31Z</time>
      </trkpt>
      <trkpt lat="42.68945" lon="0.6616">
        <ele>2457</ele>
        <time>2021-10-17T11:24:40Z</time>
      </trkpt>
      <trkpt lat="42.68944" lon="0.66172">
        <ele>2457</ele>
        <time>2021-10-17T11:24:50Z</time>
      </trkpt>
      <trkpt lat="42.68944" lon="0.66185">
        <ele>2457</ele>
        <time>2021-10-17T11:24:57Z</time>
      </trkpt>
      <trkpt lat="42.68946" lon="0.66198">
        <ele>2457</ele>
        <time>2021-10-17T11:25:06Z</time>
      </trkpt>
      <trkpt lat="42.68949" lon="0.6621">
        <ele>2457</ele>
        <time>2021-10-17T11:25:17Z</time>
      </trkpt>
      <trkpt lat="42.6895" lon="0.66222">
        <ele>2457</ele>
        <time>2021-10-17T11:25:29Z</time>
      </trkpt>
      <trkpt lat="42.68952" lon="0.66235">
        <ele>2457</ele>
        <time>2021-10-17T11:25:40Z</time>
      </trkpt>
      <trkpt lat="42.68951" lon="0.66247">
        <ele>2457</ele>
        <time>2021-10-17T11:25:51Z</time>
      </trkpt>
      <trkpt lat="42.68954" lon="0.6626">
        <ele>2457</ele>
        <time>2021-10-17T11:26:01Z</time>
      </trkpt>
      <trkpt lat="42.68956" lon="0.66272">
        <ele>2457</ele>
        <time>2021-10-17T11:26:11Z</time>
      </trkpt>
      <trkpt lat="42.68954" lon="0.66286">
        <ele>2457</ele>
        <time>2021-10-17T11:26:21Z</time>
      </trkpt>
      <trkpt lat="42.68952" lon="0.663">
        <ele>2457</ele>
        <time>2021-10-17T11:26:28Z</time>
      </trkpt>
      <trkpt lat="42.68953" lon="0.66312">
        <ele>2457</ele>
        <time>2021-10-17T11:26:40Z</time>
      </trkpt>
      <trkpt lat="42.68953" lon="0.66325">
        <ele>2457</ele>
        <time>2021-10-17T11:26:48Z</time>
      </trkpt>
      <trkpt lat="42.6895" lon="0.66339">
        <ele>2457</ele>
        <time>2021-10-17T11:26:55Z</time>
      </trkpt>
      <trkpt lat="42.68949" lon="0.66351">
        <ele>2457</ele>
        <time>2021-10-17T11:27:02Z</time>
      </trkpt>
      <trkpt lat="42.68949" lon="0.66365">
        <ele>2457</ele>
        <time>2021-10-17T11:27:08Z</time>
      </trkpt>
      <trkpt lat="42.68946" lon="0.66377">
        <ele>2457</ele>
        <time>2021-10-17T11:27:14Z</time>
      </trkpt>
      <trkpt lat="42.68942" lon="0.66388">
        <ele>2457</ele>
        <time>2021-10-17T11:27:21Z</time>
      </trkpt>
      <trkpt lat="42.68943" lon="0.66402">
        <ele>2457</ele>
        <time>2021-10-17T11:27:27Z</time>
      </trkpt>
      <trkpt lat="42.68943" lon="0.66415">
        <ele>2457</ele>
        <time>2021-10-17T11:27:36Z</time>
      </trkpt>
      <trkpt lat="42.68943" lon="0.66428">
        <ele>2457</ele>
        <time>2021-10-17T11:27:43Z</time>
      </trkpt>
      <trkpt lat="42.6894" lon="0.66441">
        <ele>2457</ele>
        <time>2021-10-17T11:27:50Z</time>
      </trkpt>
      <trkpt lat="42.68936" lon="0.66454">
        <ele>2457</ele>
        <time>2021-10-17T11:27:56Z</time>
      </trkpt>
      <trkpt lat="42.68933" lon="0.66466">
        <ele>2457</ele>
        <time>2021-10-17T11:28:04Z</time>
      </trkpt>
      <trkpt lat="42.6893" lon="0.66477">
        <ele>2457</ele>
        <time>2021-10-17T11:28:11Z</time>
      </trkpt>
      <trkpt lat="42.68929" lon="0.66491">
        <ele>2457</ele>
        <time>2021-10-17T11:28:20Z</time>
      </trkpt>
      <trkpt lat="42.68924" lon="0.66503">
        <ele>2457</ele>
        <time>2021-10-17T11:28:28Z</time>
      </trkpt>
      <trkpt lat="42.6892" lon="0.66514">
        <ele>2457</ele>
        <time>2021-10-17T11:28:35Z</time>
      </trkpt>
      <trkpt lat="42.68918" lon="0.66526">
        <ele>2457</ele>
        <time>2021-10-17T11:28:41Z</time>
      </trkpt>
      <trkpt lat="42.68916" lon="0.6654">
        <ele>2457</ele>
        <time>2021-10-17T11:28:49Z</time>
      </trkpt>
      <trkpt lat="42.6891" lon="0.66551">
        <ele>2457</ele>
        <time>2021-10-17T11:28:57Z</time>
      </trkpt>
      <trkpt lat="42.68907" lon="0.66562">
        <ele>2457</ele>
        <time>2021-10-17T11:29:03Z</time>
      </trkpt>
      <trkpt lat="42.689" lon="0.66573">
        <ele>2457</ele>
        <time>2021-10-17T11:29:09Z</time>
      </trkpt>
      <trkpt lat="42.68894" lon="0.66584">
        <ele>2457</ele>
        <time>2021-10-17T11:29:16Z</time>
      </trkpt>
      <trkpt lat="42.68895" lon="0.66597">
        <ele>2457</ele>
        <time>2021-10-17T11:29:23Z</time>
      </trkpt>
      <trkpt lat="42.68891" lon="0.6661">
        <ele>2457</ele>
        <time>2021-10-17T11:29:30Z</time>
      </trkpt>
      <trkpt lat="42.68892" lon="0.66622">
        <ele>2457</ele>
        <time>2021-10-17T11:29:37Z</time>
      </trkpt>
      <trkpt lat="42.6889" lon="0.66636">
        <ele>2457</ele>
        <time>2021-10-17T11:29:44Z</time>
      </trkpt>
      <trkpt lat="42.68892" lon="0.66649">
        <ele>2457</ele>
        <time>2021-10-17T11:29:51Z</time>
      </trkpt>
      <trkpt lat="42.68893" lon="0.66662">
        <ele>2457</ele>
        <time>2021-10-17T11:29:59Z</time>
      </trkpt>
      <trkpt lat="42.68892" lon="0.66674">
        <ele>2457</ele>
        <time>2021-10-17T11:30:06Z</time>
      </trkpt>
      <trkpt lat="42.68896" lon="0.66687">
        <ele>2457</ele>
        <time>2021-10-17T11:30:14Z</time>
      </trkpt>
      <trkpt lat="42.68897" lon="0.66701">
        <ele>2384</ele>
        <time>2021-10-17T11:30:22Z</time>
      </trkpt>
      <trkpt lat="42.68897" lon="0.66716">
        <ele>2384</ele>
        <time>2021-10-17T11:30:29Z</time>
      </trkpt>
      <trkpt lat="42.68892" lon="0.66728">
        <ele>2384</ele>
        <time>2021-10-17T11:30:38Z</time>
      </trkpt>
      <trkpt lat="42.68886" lon="0.66739">
        <ele>2384</ele>
        <time>2021-10-17T11:30:47Z</time>
      </trkpt>
      <trkpt lat="42.68883" lon="0.66751">
        <ele>2384</ele>
        <time>2021-10-17T11:30:55Z</time>
      </trkpt>
      <trkpt lat="42.6888" lon="0.66762">
        <ele>2384</ele>
        <time>2021-10-17T11:31:05Z</time>
      </trkpt>
      <trkpt lat="42.68878" lon="0.66775">
        <ele>2384</ele>
        <time>2021-10-17T11:31:13Z</time>
      </trkpt>
      <trkpt lat="42.68876" lon="0.66788">
        <ele>2384</ele>
        <time>2021-10-17T11:31:20Z</time>
      </trkpt>
      <trkpt lat="42.68877" lon="0.668">
        <ele>2384</ele>
        <time>2021-10-17T11:31:26Z</time>
      </trkpt>
      <trkpt lat="42.68876" lon="0.66813">
        <ele>2384</ele>
        <time>2021-10-17T11:31:34Z</time>
      </trkpt>
      <trkpt lat="42.68882" lon="0.66822">
        <ele>2384</ele>
        <time>2021-10-17T11:31:46Z</time>
      </trkpt>
      <trkpt lat="42.68889" lon="0.66831">
        <ele>2384</ele>
        <time>2021-10-17T11:31:55Z</time>
      </trkpt>
      <trkpt lat="42.68888" lon="0.66844">
        <ele>2384</ele>
        <time>2021-10-17T11:32:14Z</time>
      </trkpt>
      <trkpt lat="42.68895" lon="0.66852">
        <ele>2384</ele>
        <time>2021-10-17T11:35:23Z</time>
      </trkpt>
      <trkpt lat="42.689" lon="0.66865">
        <ele>2384</ele>
        <time>2021-10-17T11:35:36Z</time>
      </trkpt>
      <trkpt lat="42.68904" lon="0.66877">
        <ele>2384</ele>
        <time>2021-10-17T11:35:46Z</time>
      </trkpt>
      <trkpt lat="42.68908" lon="0.66888">
        <ele>2384</ele>
        <time>2021-10-17T11:35:56Z</time>
      </trkpt>
      <trkpt lat="42.6891" lon="0.66901">
        <ele>2384</ele>
        <time>2021-10-17T11:36:06Z</time>
      </trkpt>
      <trkpt lat="42.68917" lon="0.6691">
        <ele>2384</ele>
        <time>2021-10-17T11:36:17Z</time>
      </trkpt>
      <trkpt lat="42.68924" lon="0.66919">
        <ele>2384</ele>
        <time>2021-10-17T11:36:31Z</time>
      </trkpt>
      <trkpt lat="42.6893" lon="0.66928">
        <ele>2384</ele>
        <time>2021-10-17T11:36:43Z</time>
      </trkpt>
      <trkpt lat="42.68932" lon="0.66941">
        <ele>2384</ele>
        <time>2021-10-17T11:36:58Z</time>
      </trkpt>
      <trkpt lat="42.68933" lon="0.66953">
        <ele>2384</ele>
        <time>2021-10-17T11:37:17Z</time>
      </trkpt>
      <trkpt lat="42.68935" lon="0.66966">
        <ele>2384</ele>
        <time>2021-10-17T11:37:27Z</time>
      </trkpt>
      <trkpt lat="42.68938" lon="0.66978">
        <ele>2384</ele>
        <time>2021-10-17T11:37:39Z</time>
      </trkpt>
      <trkpt lat="42.68942" lon="0.66989">
        <ele>2384</ele>
        <time>2021-10-17T11:37:55Z</time>
      </trkpt>
      <trkpt lat="42.68948" lon="0.66979">
        <ele>2384</ele>
        <time>2021-10-17T11:38:31Z</time>
      </trkpt>
      <trkpt lat="42.68946" lon="0.66991">
        <ele>2384</ele>
        <time>2021-10-17T11:39:04Z</time>
      </trkpt>
      <trkpt lat="42.68951" lon="0.67002">
        <ele>2384</ele>
        <time>2021-10-17T11:39:15Z</time>
      </trkpt>
      <trkpt lat="42.68956" lon="0.67014">
        <ele>2384</ele>
        <time>2021-10-17T11:39:25Z</time>
      </trkpt>
      <trkpt lat="42.68961" lon="0.67026">
        <ele>2384</ele>
        <time>2021-10-17T11:39:45Z</time>
      </trkpt>
      <trkpt lat="42.68963" lon="0.67039">
        <ele>2384</ele>
        <time>2021-10-17T11:39:53Z</time>
      </trkpt>
      <trkpt lat="42.68968" lon="0.6705">
        <ele>2384</ele>
        <time>2021-10-17T11:40:03Z</time>
      </trkpt>
      <trkpt lat="42.68975" lon="0.67059">
        <ele>2384</ele>
        <time>2021-10-17T11:40:16Z</time>
      </trkpt>
      <trkpt lat="42.6898" lon="0.6707">
        <ele>2384</ele>
        <time>2021-10-17T11:40:35Z</time>
      </trkpt>
      <trkpt lat="42.68983" lon="0.67082">
        <ele>2384</ele>
        <time>2021-10-17T11:40:50Z</time>
      </trkpt>
      <trkpt lat="42.68987" lon="0.67094">
        <ele>2384</ele>
        <time>2021-10-17T11:41:11Z</time>
      </trkpt>
      <trkpt lat="42.68993" lon="0.67103">
        <ele>2384</ele>
        <time>2021-10-17T11:41:31Z</time>
      </trkpt>
      <trkpt lat="42.68993" lon="0.67116">
        <ele>2423</ele>
        <time>2021-10-17T11:41:42Z</time>
      </trkpt>
      <trkpt lat="42.68995" lon="0.67128">
        <ele>2423</ele>
        <time>2021-10-17T11:41:50Z</time>
      </trkpt>
      <trkpt lat="42.68995" lon="0.67141">
        <ele>2423</ele>
        <time>2021-10-17T11:42:00Z</time>
      </trkpt>
      <trkpt lat="42.69005" lon="0.67144">
        <ele>2426</ele>
        <time>2021-10-17T11:44:22Z</time>
      </trkpt>
      <trkpt lat="42.69009" lon="0.67156">
        <ele>2426</ele>
        <time>2021-10-17T11:44:31Z</time>
      </trkpt>
      <trkpt lat="42.6901" lon="0.6717">
        <ele>2426</ele>
        <time>2021-10-17T11:44:37Z</time>
      </trkpt>
      <trkpt lat="42.69015" lon="0.67181">
        <ele>2426</ele>
        <time>2021-10-17T11:44:45Z</time>
      </trkpt>
      <trkpt lat="42.6902" lon="0.67192">
        <ele>2426</ele>
        <time>2021-10-17T11:44:55Z</time>
      </trkpt>
      <trkpt lat="42.69026" lon="0.67203">
        <ele>2426</ele>
        <time>2021-10-17T11:45:03Z</time>
      </trkpt>
      <trkpt lat="42.69032" lon="0.67214">
        <ele>2426</ele>
        <time>2021-10-17T11:45:11Z</time>
      </trkpt>
      <trkpt lat="42.6904" lon="0.67222">
        <ele>2426</ele>
        <time>2021-10-17T11:45:18Z</time>
      </trkpt>
      <trkpt lat="42.69048" lon="0.67231">
        <ele>2426</ele>
        <time>2021-10-17T11:45:26Z</time>
      </trkpt>
      <trkpt lat="42.69056" lon="0.67239">
        <ele>2426</ele>
        <time>2021-10-17T11:46:00Z</time>
      </trkpt>
      <trkpt lat="42.6906" lon="0.6725">
        <ele>2426</ele>
        <time>2021-10-17T11:46:06Z</time>
      </trkpt>
      <trkpt lat="42.69063" lon="0.67263">
        <ele>2426</ele>
        <time>2021-10-17T11:46:13Z</time>
      </trkpt>
      <trkpt lat="42.69071" lon="0.67272">
        <ele>2426</ele>
        <time>2021-10-17T11:46:23Z</time>
      </trkpt>
      <trkpt lat="42.69077" lon="0.67281">
        <ele>2426</ele>
        <time>2021-10-17T11:46:31Z</time>
      </trkpt>
      <trkpt lat="42.69083" lon="0.67291">
        <ele>2426</ele>
        <time>2021-10-17T11:46:38Z</time>
      </trkpt>
      <trkpt lat="42.69089" lon="0.673">
        <ele>2426</ele>
        <time>2021-10-17T11:46:46Z</time>
      </trkpt>
      <trkpt lat="42.69096" lon="0.6731">
        <ele>2426</ele>
        <time>2021-10-17T11:46:51Z</time>
      </trkpt>
      <trkpt lat="42.69106" lon="0.67315">
        <ele>2426</ele>
        <time>2021-10-17T11:47:00Z</time>
      </trkpt>
      <trkpt lat="42.69114" lon="0.6732">
        <ele>2426</ele>
        <time>2021-10-17T11:47:08Z</time>
      </trkpt>
      <trkpt lat="42.69122" lon="0.67327">
        <ele>2426</ele>
        <time>2021-10-17T11:47:18Z</time>
      </trkpt>
      <trkpt lat="42.69129" lon="0.67335">
        <ele>2426</ele>
        <time>2021-10-17T11:47:29Z</time>
      </trkpt>
      <trkpt lat="42.69138" lon="0.67337">
        <ele>2426</ele>
        <time>2021-10-17T11:47:41Z</time>
      </trkpt>
      <trkpt lat="42.69148" lon="0.67336">
        <ele>2426</ele>
        <time>2021-10-17T11:47:48Z</time>
      </trkpt>
      <trkpt lat="42.69158" lon="0.67338">
        <ele>2426</ele>
        <time>2021-10-17T11:48:11Z</time>
      </trkpt>
      <trkpt lat="42.69166" lon="0.67345">
        <ele>2426</ele>
        <time>2021-10-17T11:48:17Z</time>
      </trkpt>
      <trkpt lat="42.69175" lon="0.6735">
        <ele>2426</ele>
        <time>2021-10-17T11:48:26Z</time>
      </trkpt>
      <trkpt lat="42.69182" lon="0.67359">
        <ele>2426</ele>
        <time>2021-10-17T11:48:33Z</time>
      </trkpt>
      <trkpt lat="42.69188" lon="0.67369">
        <ele>2426</ele>
        <time>2021-10-17T11:48:39Z</time>
      </trkpt>
      <trkpt lat="42.69196" lon="0.67377">
        <ele>2426</ele>
        <time>2021-10-17T11:48:47Z</time>
      </trkpt>
      <trkpt lat="42.69204" lon="0.67385">
        <ele>2426</ele>
        <time>2021-10-17T11:48:54Z</time>
      </trkpt>
      <trkpt lat="42.69213" lon="0.6739">
        <ele>2373</ele>
        <time>2021-10-17T11:49:02Z</time>
      </trkpt>
      <trkpt lat="42.6922" lon="0.67398">
        <ele>2373</ele>
        <time>2021-10-17T11:49:11Z</time>
      </trkpt>
      <trkpt lat="42.69228" lon="0.67405">
        <ele>2373</ele>
        <time>2021-10-17T11:49:17Z</time>
      </trkpt>
      <trkpt lat="42.69236" lon="0.67411">
        <ele>2373</ele>
        <time>2021-10-17T11:49:23Z</time>
      </trkpt>
      <trkpt lat="42.69245" lon="0.67415">
        <ele>2370</ele>
        <time>2021-10-17T11:49:32Z</time>
      </trkpt>
      <trkpt lat="42.69254" lon="0.67412">
        <ele>2370</ele>
        <time>2021-10-17T11:49:37Z</time>
      </trkpt>
      <trkpt lat="42.69265" lon="0.6741">
        <ele>2370</ele>
        <time>2021-10-17T11:49:44Z</time>
      </trkpt>
      <trkpt lat="42.69275" lon="0.67408">
        <ele>2366</ele>
        <time>2021-10-17T11:49:52Z</time>
      </trkpt>
      <trkpt lat="42.69283" lon="0.67403">
        <ele>2366</ele>
        <time>2021-10-17T11:49:59Z</time>
      </trkpt>
      <trkpt lat="42.69291" lon="0.67396">
        <ele>2366</ele>
        <time>2021-10-17T11:50:08Z</time>
      </trkpt>
      <trkpt lat="42.69301" lon="0.67397">
        <ele>2366</ele>
        <time>2021-10-17T11:50:15Z</time>
      </trkpt>
      <trkpt lat="42.69306" lon="0.67408">
        <ele>2358</ele>
        <time>2021-10-17T11:50:22Z</time>
      </trkpt>
      <trkpt lat="42.69313" lon="0.67418">
        <ele>2358</ele>
        <time>2021-10-17T11:50:29Z</time>
      </trkpt>
      <trkpt lat="42.69323" lon="0.67421">
        <ele>2358</ele>
        <time>2021-10-17T11:50:37Z</time>
      </trkpt>
      <trkpt lat="42.69333" lon="0.67418">
        <ele>2358</ele>
        <time>2021-10-17T11:50:46Z</time>
      </trkpt>
      <trkpt lat="42.69341" lon="0.67421">
        <ele>2358</ele>
        <time>2021-10-17T11:50:54Z</time>
      </trkpt>
      <trkpt lat="42.6935" lon="0.67417">
        <ele>2358</ele>
        <time>2021-10-17T11:51:04Z</time>
      </trkpt>
      <trkpt lat="42.69359" lon="0.67411">
        <ele>2358</ele>
        <time>2021-10-17T11:51:10Z</time>
      </trkpt>
      <trkpt lat="42.69369" lon="0.67417">
        <ele>2358</ele>
        <time>2021-10-17T11:51:18Z</time>
      </trkpt>
      <trkpt lat="42.69379" lon="0.67414">
        <ele>2358</ele>
        <time>2021-10-17T11:51:25Z</time>
      </trkpt>
      <trkpt lat="42.69387" lon="0.6741">
        <ele>2358</ele>
        <time>2021-10-17T11:51:34Z</time>
      </trkpt>
      <trkpt lat="42.69396" lon="0.67415">
        <ele>2358</ele>
        <time>2021-10-17T11:51:45Z</time>
      </trkpt>
      <trkpt lat="42.69401" lon="0.67425">
        <ele>2358</ele>
        <time>2021-10-17T11:52:14Z</time>
      </trkpt>
      <trkpt lat="42.69404" lon="0.67437">
        <ele>2358</ele>
        <time>2021-10-17T11:52:24Z</time>
      </trkpt>
      <trkpt lat="42.69412" lon="0.67442">
        <ele>2358</ele>
        <time>2021-10-17T11:52:34Z</time>
      </trkpt>
      <trkpt lat="42.69421" lon="0.67438">
        <ele>2358</ele>
        <time>2021-10-17T11:52:43Z</time>
      </trkpt>
      <trkpt lat="42.6943" lon="0.67442">
        <ele>2358</ele>
        <time>2021-10-17T11:52:55Z</time>
      </trkpt>
      <trkpt lat="42.6944" lon="0.67446">
        <ele>2358</ele>
        <time>2021-10-17T11:53:04Z</time>
      </trkpt>
      <trkpt lat="42.69449" lon="0.6745">
        <ele>2358</ele>
        <time>2021-10-17T11:53:14Z</time>
      </trkpt>
      <trkpt lat="42.69459" lon="0.67451">
        <ele>2358</ele>
        <time>2021-10-17T11:53:24Z</time>
      </trkpt>
      <trkpt lat="42.69468" lon="0.67449">
        <ele>2358</ele>
        <time>2021-10-17T11:53:33Z</time>
      </trkpt>
      <trkpt lat="42.69478" lon="0.67445">
        <ele>2320</ele>
        <time>2021-10-17T11:53:42Z</time>
      </trkpt>
      <trkpt lat="42.69487" lon="0.67443">
        <ele>2320</ele>
        <time>2021-10-17T11:53:48Z</time>
      </trkpt>
      <trkpt lat="42.69495" lon="0.67436">
        <ele>2320</ele>
        <time>2021-10-17T11:53:54Z</time>
      </trkpt>
      <trkpt lat="42.69502" lon="0.67428">
        <ele>2316</ele>
        <time>2021-10-17T11:54:02Z</time>
      </trkpt>
      <trkpt lat="42.69513" lon="0.67428">
        <ele>2316</ele>
        <time>2021-10-17T11:54:11Z</time>
      </trkpt>
      <trkpt lat="42.69523" lon="0.67427">
        <ele>2316</ele>
        <time>2021-10-17T11:54:20Z</time>
      </trkpt>
      <trkpt lat="42.69533" lon="0.67423">
        <ele>2316</ele>
        <time>2021-10-17T11:54:26Z</time>
      </trkpt>
      <trkpt lat="42.69542" lon="0.6742">
        <ele>2316</ele>
        <time>2021-10-17T11:54:33Z</time>
      </trkpt>
      <trkpt lat="42.69551" lon="0.67422">
        <ele>2316</ele>
        <time>2021-10-17T11:54:40Z</time>
      </trkpt>
      <trkpt lat="42.6956" lon="0.67424">
        <ele>2316</ele>
        <time>2021-10-17T11:54:50Z</time>
      </trkpt>
      <trkpt lat="42.69569" lon="0.67425">
        <ele>2316</ele>
        <time>2021-10-17T11:54:59Z</time>
      </trkpt>
      <trkpt lat="42.69578" lon="0.67429">
        <ele>2316</ele>
        <time>2021-10-17T11:55:11Z</time>
      </trkpt>
      <trkpt lat="42.69587" lon="0.67433">
        <ele>2316</ele>
        <time>2021-10-17T11:55:19Z</time>
      </trkpt>
      <trkpt lat="42.69594" lon="0.67424">
        <ele>2316</ele>
        <time>2021-10-17T11:55:29Z</time>
      </trkpt>
      <trkpt lat="42.69602" lon="0.67418">
        <ele>2316</ele>
        <time>2021-10-17T11:55:37Z</time>
      </trkpt>
      <trkpt lat="42.69612" lon="0.67417">
        <ele>2316</ele>
        <time>2021-10-17T11:55:50Z</time>
      </trkpt>
      <trkpt lat="42.69623" lon="0.67413">
        <ele>2316</ele>
        <time>2021-10-17T11:56:00Z</time>
      </trkpt>
      <trkpt lat="42.69633" lon="0.67414">
        <ele>2316</ele>
        <time>2021-10-17T11:56:08Z</time>
      </trkpt>
      <trkpt lat="42.69642" lon="0.67414">
        <ele>2316</ele>
        <time>2021-10-17T11:56:18Z</time>
      </trkpt>
      <trkpt lat="42.6965" lon="0.67408">
        <ele>2316</ele>
        <time>2021-10-17T11:56:28Z</time>
      </trkpt>
      <trkpt lat="42.6966" lon="0.67407">
        <ele>2316</ele>
        <time>2021-10-17T11:56:41Z</time>
      </trkpt>
      <trkpt lat="42.69669" lon="0.67405">
        <ele>2316</ele>
        <time>2021-10-17T11:56:48Z</time>
      </trkpt>
      <trkpt lat="42.69677" lon="0.67399">
        <ele>2316</ele>
        <time>2021-10-17T11:56:57Z</time>
      </trkpt>
      <trkpt lat="42.69685" lon="0.67393">
        <ele>2316</ele>
        <time>2021-10-17T11:57:06Z</time>
      </trkpt>
      <trkpt lat="42.69694" lon="0.67388">
        <ele>2316</ele>
        <time>2021-10-17T11:57:15Z</time>
      </trkpt>
      <trkpt lat="42.69702" lon="0.67384">
        <ele>2316</ele>
        <time>2021-10-17T11:57:20Z</time>
      </trkpt>
      <trkpt lat="42.69712" lon="0.6738">
        <ele>2316</ele>
        <time>2021-10-17T11:57:29Z</time>
      </trkpt>
      <trkpt lat="42.69722" lon="0.67377">
        <ele>2316</ele>
        <time>2021-10-17T11:57:37Z</time>
      </trkpt>
      <trkpt lat="42.69732" lon="0.67375">
        <ele>2316</ele>
        <time>2021-10-17T11:57:49Z</time>
      </trkpt>
      <trkpt lat="42.69741" lon="0.67378">
        <ele>2316</ele>
        <time>2021-10-17T11:57:57Z</time>
      </trkpt>
      <trkpt lat="42.69751" lon="0.6738">
        <ele>2316</ele>
        <time>2021-10-17T11:58:04Z</time>
      </trkpt>
      <trkpt lat="42.69759" lon="0.67388">
        <ele>2316</ele>
        <time>2021-10-17T11:58:11Z</time>
      </trkpt>
      <trkpt lat="42.69776" lon="0.67394">
        <ele>2316</ele>
        <time>2021-10-17T11:58:25Z</time>
      </trkpt>
      <trkpt lat="42.69785" lon="0.67397">
        <ele>2316</ele>
        <time>2021-10-17T11:58:34Z</time>
      </trkpt>
      <trkpt lat="42.69796" lon="0.67398">
        <ele>2257</ele>
        <time>2021-10-17T11:58:42Z</time>
      </trkpt>
      <trkpt lat="42.69805" lon="0.67397">
        <ele>2257</ele>
        <time>2021-10-17T11:58:51Z</time>
      </trkpt>
      <trkpt lat="42.69815" lon="0.67396">
        <ele>2257</ele>
        <time>2021-10-17T11:58:56Z</time>
      </trkpt>
      <trkpt lat="42.69823" lon="0.67394">
        <ele>2257</ele>
        <time>2021-10-17T11:59:04Z</time>
      </trkpt>
      <trkpt lat="42.69833" lon="0.67392">
        <ele>2257</ele>
        <time>2021-10-17T11:59:15Z</time>
      </trkpt>
      <trkpt lat="42.69841" lon="0.67386">
        <ele>2257</ele>
        <time>2021-10-17T11:59:26Z</time>
      </trkpt>
      <trkpt lat="42.69849" lon="0.67379">
        <ele>2257</ele>
        <time>2021-10-17T11:59:34Z</time>
      </trkpt>
      <trkpt lat="42.69858" lon="0.67379">
        <ele>2243</ele>
        <time>2021-10-17T11:59:42Z</time>
      </trkpt>
      <trkpt lat="42.69867" lon="0.67383">
        <ele>2243</ele>
        <time>2021-10-17T11:59:50Z</time>
      </trkpt>
      <trkpt lat="42.69877" lon="0.67383">
        <ele>2236</ele>
        <time>2021-10-17T12:00:02Z</time>
      </trkpt>
      <trkpt lat="42.69886" lon="0.67384">
        <ele>2236</ele>
        <time>2021-10-17T12:00:13Z</time>
      </trkpt>
      <trkpt lat="42.69897" lon="0.67383">
        <ele>2236</ele>
        <time>2021-10-17T12:00:24Z</time>
      </trkpt>
      <trkpt lat="42.69906" lon="0.67379">
        <ele>2230</ele>
        <time>2021-10-17T12:00:32Z</time>
      </trkpt>
      <trkpt lat="42.69916" lon="0.67379">
        <ele>2228</ele>
        <time>2021-10-17T12:00:42Z</time>
      </trkpt>
      <trkpt lat="42.69926" lon="0.67382">
        <ele>2228</ele>
        <time>2021-10-17T12:00:50Z</time>
      </trkpt>
      <trkpt lat="42.69935" lon="0.67385">
        <ele>2228</ele>
        <time>2021-10-17T12:00:57Z</time>
      </trkpt>
      <trkpt lat="42.69944" lon="0.67388">
        <ele>2228</ele>
        <time>2021-10-17T12:01:06Z</time>
      </trkpt>
      <trkpt lat="42.69954" lon="0.67388">
        <ele>2228</ele>
        <time>2021-10-17T12:01:15Z</time>
      </trkpt>
      <trkpt lat="42.69964" lon="0.67391">
        <ele>2228</ele>
        <time>2021-10-17T12:01:26Z</time>
      </trkpt>
      <trkpt lat="42.69971" lon="0.67399">
        <ele>2228</ele>
        <time>2021-10-17T12:01:36Z</time>
      </trkpt>
      <trkpt lat="42.69979" lon="0.67406">
        <ele>2228</ele>
        <time>2021-10-17T12:01:45Z</time>
      </trkpt>
      <trkpt lat="42.69984" lon="0.67417">
        <ele>2228</ele>
        <time>2021-10-17T12:01:57Z</time>
      </trkpt>
      <trkpt lat="42.6999" lon="0.67428">
        <ele>2228</ele>
        <time>2021-10-17T12:02:03Z</time>
      </trkpt>
      <trkpt lat="42.69996" lon="0.67438">
        <ele>2228</ele>
        <time>2021-10-17T12:02:13Z</time>
      </trkpt>
      <trkpt lat="42.70003" lon="0.67449">
        <ele>2228</ele>
        <time>2021-10-17T12:02:24Z</time>
      </trkpt>
      <trkpt lat="42.7001" lon="0.67457">
        <ele>2228</ele>
        <time>2021-10-17T12:07:59Z</time>
      </trkpt>
      <trkpt lat="42.70019" lon="0.67462">
        <ele>2228</ele>
        <time>2021-10-17T12:08:11Z</time>
      </trkpt>
      <trkpt lat="42.70027" lon="0.67468">
        <ele>2228</ele>
        <time>2021-10-17T12:08:24Z</time>
      </trkpt>
      <trkpt lat="42.70036" lon="0.67473">
        <ele>2228</ele>
        <time>2021-10-17T12:08:43Z</time>
      </trkpt>
      <trkpt lat="42.70045" lon="0.67468">
        <ele>2228</ele>
        <time>2021-10-17T12:08:59Z</time>
      </trkpt>
      <trkpt lat="42.70054" lon="0.67471">
        <ele>2228</ele>
        <time>2021-10-17T12:09:07Z</time>
      </trkpt>
      <trkpt lat="42.70062" lon="0.67479">
        <ele>2228</ele>
        <time>2021-10-17T12:09:21Z</time>
      </trkpt>
      <trkpt lat="42.70071" lon="0.67481">
        <ele>2228</ele>
        <time>2021-10-17T12:09:35Z</time>
      </trkpt>
      <trkpt lat="42.70079" lon="0.67488">
        <ele>2228</ele>
        <time>2021-10-17T12:09:57Z</time>
      </trkpt>
      <trkpt lat="42.70088" lon="0.6749">
        <ele>2228</ele>
        <time>2021-10-17T12:10:13Z</time>
      </trkpt>
      <trkpt lat="42.70097" lon="0.67494">
        <ele>2228</ele>
        <time>2021-10-17T12:10:24Z</time>
      </trkpt>
      <trkpt lat="42.70105" lon="0.67502">
        <ele>2228</ele>
        <time>2021-10-17T12:10:36Z</time>
      </trkpt>
      <trkpt lat="42.70114" lon="0.67506">
        <ele>2228</ele>
        <time>2021-10-17T12:10:46Z</time>
      </trkpt>
      <trkpt lat="42.70124" lon="0.6751">
        <ele>2228</ele>
        <time>2021-10-17T12:10:55Z</time>
      </trkpt>
      <trkpt lat="42.70132" lon="0.67517">
        <ele>2228</ele>
        <time>2021-10-17T12:11:08Z</time>
      </trkpt>
      <trkpt lat="42.70142" lon="0.67516">
        <ele>2228</ele>
        <time>2021-10-17T12:11:16Z</time>
      </trkpt>
      <trkpt lat="42.7015" lon="0.67523">
        <ele>2228</ele>
        <time>2021-10-17T12:11:30Z</time>
      </trkpt>
      <trkpt lat="42.70159" lon="0.67529">
        <ele>2228</ele>
        <time>2021-10-17T12:11:40Z</time>
      </trkpt>
      <trkpt lat="42.70167" lon="0.67534">
        <ele>2228</ele>
        <time>2021-10-17T12:11:55Z</time>
      </trkpt>
      <trkpt lat="42.70175" lon="0.67538">
        <ele>2228</ele>
        <time>2021-10-17T12:12:06Z</time>
      </trkpt>
      <trkpt lat="42.70184" lon="0.67542">
        <ele>2228</ele>
        <time>2021-10-17T12:12:23Z</time>
      </trkpt>
      <trkpt lat="42.70194" lon="0.67548">
        <ele>2228</ele>
        <time>2021-10-17T12:12:36Z</time>
      </trkpt>
      <trkpt lat="42.70198" lon="0.67559">
        <ele>2142</ele>
        <time>2021-10-17T12:12:42Z</time>
      </trkpt>
      <trkpt lat="42.70207" lon="0.6756">
        <ele>2139</ele>
        <time>2021-10-17T12:12:52Z</time>
      </trkpt>
      <trkpt lat="42.70216" lon="0.67557">
        <ele>2139</ele>
        <time>2021-10-17T12:12:59Z</time>
      </trkpt>
      <trkpt lat="42.70225" lon="0.67559">
        <ele>2139</ele>
        <time>2021-10-17T12:13:17Z</time>
      </trkpt>
      <trkpt lat="42.70235" lon="0.67562">
        <ele>2139</ele>
        <time>2021-10-17T12:13:25Z</time>
      </trkpt>
      <trkpt lat="42.70244" lon="0.67567">
        <ele>2139</ele>
        <time>2021-10-17T12:13:29Z</time>
      </trkpt>
      <trkpt lat="42.70252" lon="0.67574">
        <ele>2139</ele>
        <time>2021-10-17T12:13:36Z</time>
      </trkpt>
      <trkpt lat="42.70259" lon="0.67583">
        <ele>2139</ele>
        <time>2021-10-17T12:13:44Z</time>
      </trkpt>
      <trkpt lat="42.70268" lon="0.6758">
        <ele>2139</ele>
        <time>2021-10-17T12:13:57Z</time>
      </trkpt>
      <trkpt lat="42.70278" lon="0.67578">
        <ele>2139</ele>
        <time>2021-10-17T12:14:09Z</time>
      </trkpt>
      <trkpt lat="42.70284" lon="0.67587">
        <ele>2139</ele>
        <time>2021-10-17T12:14:14Z</time>
      </trkpt>
      <trkpt lat="42.70293" lon="0.67594">
        <ele>2139</ele>
        <time>2021-10-17T12:14:19Z</time>
      </trkpt>
      <trkpt lat="42.70301" lon="0.67599">
        <ele>2139</ele>
        <time>2021-10-17T12:14:27Z</time>
      </trkpt>
      <trkpt lat="42.7031" lon="0.67602">
        <ele>2139</ele>
        <time>2021-10-17T12:14:35Z</time>
      </trkpt>
      <trkpt lat="42.70318" lon="0.67608">
        <ele>2139</ele>
        <time>2021-10-17T12:14:41Z</time>
      </trkpt>
      <trkpt lat="42.70329" lon="0.67605">
        <ele>2139</ele>
        <time>2021-10-17T12:14:56Z</time>
      </trkpt>
      <trkpt lat="42.70338" lon="0.67603">
        <ele>2139</ele>
        <time>2021-10-17T12:15:05Z</time>
      </trkpt>
      <trkpt lat="42.70344" lon="0.67612">
        <ele>2097</ele>
        <time>2021-10-17T12:15:12Z</time>
      </trkpt>
      <trkpt lat="42.70342" lon="0.67625">
        <ele>2094</ele>
        <time>2021-10-17T12:15:22Z</time>
      </trkpt>
      <trkpt lat="42.7034" lon="0.67637">
        <ele>2094</ele>
        <time>2021-10-17T12:15:25Z</time>
      </trkpt>
      <trkpt lat="42.70339" lon="0.6765">
        <ele>2094</ele>
        <time>2021-10-17T12:15:36Z</time>
      </trkpt>
      <trkpt lat="42.70334" lon="0.67661">
        <ele>2087</ele>
        <time>2021-10-17T12:15:42Z</time>
      </trkpt>
      <trkpt lat="42.7033" lon="0.67673">
        <ele>2087</ele>
        <time>2021-10-17T12:15:46Z</time>
      </trkpt>
      <trkpt lat="42.70329" lon="0.67686">
        <ele>2087</ele>
        <time>2021-10-17T12:15:57Z</time>
      </trkpt>
      <trkpt lat="42.70325" lon="0.67697">
        <ele>2087</ele>
        <time>2021-10-17T12:16:01Z</time>
      </trkpt>
      <trkpt lat="42.7032" lon="0.67709">
        <ele>2087</ele>
        <time>2021-10-17T12:16:10Z</time>
      </trkpt>
      <trkpt lat="42.70314" lon="0.67718">
        <ele>2087</ele>
        <time>2021-10-17T12:16:14Z</time>
      </trkpt>
      <trkpt lat="42.7031" lon="0.67731">
        <ele>2087</ele>
        <time>2021-10-17T12:16:25Z</time>
      </trkpt>
      <trkpt lat="42.70315" lon="0.67741">
        <ele>2087</ele>
        <time>2021-10-17T12:16:34Z</time>
      </trkpt>
      <trkpt lat="42.70325" lon="0.67736">
        <ele>2087</ele>
        <time>2021-10-17T12:16:39Z</time>
      </trkpt>
      <trkpt lat="42.70334" lon="0.67737">
        <ele>2087</ele>
        <time>2021-10-17T12:16:47Z</time>
      </trkpt>
      <trkpt lat="42.70336" lon="0.6775">
        <ele>2087</ele>
        <time>2021-10-17T12:16:55Z</time>
      </trkpt>
      <trkpt lat="42.70341" lon="0.67761">
        <ele>2087</ele>
        <time>2021-10-17T12:19:47Z</time>
      </trkpt>
      <trkpt lat="42.7035" lon="0.67759">
        <ele>2087</ele>
        <time>2021-10-17T12:21:28Z</time>
      </trkpt>
      <trkpt lat="42.70359" lon="0.67756">
        <ele>2087</ele>
        <time>2021-10-17T12:21:35Z</time>
      </trkpt>
      <trkpt lat="42.70368" lon="0.67755">
        <ele>2059</ele>
        <time>2021-10-17T12:21:42Z</time>
      </trkpt>
      <trkpt lat="42.70377" lon="0.67753">
        <ele>2059</ele>
        <time>2021-10-17T12:21:50Z</time>
      </trkpt>
      <trkpt lat="42.70387" lon="0.6775">
        <ele>2059</ele>
        <time>2021-10-17T12:22:10Z</time>
      </trkpt>
      <trkpt lat="42.70397" lon="0.67749">
        <ele>2059</ele>
        <time>2021-10-17T12:22:16Z</time>
      </trkpt>
      <trkpt lat="42.70405" lon="0.67744">
        <ele>2059</ele>
        <time>2021-10-17T12:22:25Z</time>
      </trkpt>
      <trkpt lat="42.70414" lon="0.67744">
        <ele>2059</ele>
        <time>2021-10-17T12:22:30Z</time>
      </trkpt>
      <trkpt lat="42.70424" lon="0.67744">
        <ele>2059</ele>
        <time>2021-10-17T12:22:38Z</time>
      </trkpt>
      <trkpt lat="42.70433" lon="0.67741">
        <ele>2059</ele>
        <time>2021-10-17T12:22:46Z</time>
      </trkpt>
      <trkpt lat="42.70443" lon="0.67739">
        <ele>2059</ele>
        <time>2021-10-17T12:22:55Z</time>
      </trkpt>
      <trkpt lat="42.70452" lon="0.67737">
        <ele>2048</ele>
        <time>2021-10-17T12:23:02Z</time>
      </trkpt>
      <trkpt lat="42.70462" lon="0.67739">
        <ele>2047</ele>
        <time>2021-10-17T12:23:12Z</time>
      </trkpt>
      <trkpt lat="42.70472" lon="0.6774">
        <ele>2047</ele>
        <time>2021-10-17T12:23:19Z</time>
      </trkpt>
      <trkpt lat="42.7048" lon="0.67748">
        <ele>2047</ele>
        <time>2021-10-17T12:23:29Z</time>
      </trkpt>
      <trkpt lat="42.70489" lon="0.67751">
        <ele>2047</ele>
        <time>2021-10-17T12:23:37Z</time>
      </trkpt>
      <trkpt lat="42.70499" lon="0.67752">
        <ele>2047</ele>
        <time>2021-10-17T12:23:42Z</time>
      </trkpt>
      <trkpt lat="42.70508" lon="0.67752">
        <ele>2047</ele>
        <time>2021-10-17T12:23:50Z</time>
      </trkpt>
      <trkpt lat="42.70518" lon="0.67754">
        <ele>2035</ele>
        <time>2021-10-17T12:24:02Z</time>
      </trkpt>
      <trkpt lat="42.70528" lon="0.67754">
        <ele>2035</ele>
        <time>2021-10-17T12:24:09Z</time>
      </trkpt>
      <trkpt lat="42.70539" lon="0.67755">
        <ele>2035</ele>
        <time>2021-10-17T12:24:17Z</time>
      </trkpt>
      <trkpt lat="42.70548" lon="0.67758">
        <ele>2035</ele>
        <time>2021-10-17T12:24:24Z</time>
      </trkpt>
      <trkpt lat="42.70557" lon="0.67763">
        <ele>2035</ele>
        <time>2021-10-17T12:24:31Z</time>
      </trkpt>
      <trkpt lat="42.70565" lon="0.67769">
        <ele>2035</ele>
        <time>2021-10-17T12:24:38Z</time>
      </trkpt>
      <trkpt lat="42.70574" lon="0.67775">
        <ele>2035</ele>
        <time>2021-10-17T12:24:46Z</time>
      </trkpt>
      <trkpt lat="42.70583" lon="0.67778">
        <ele>2035</ele>
        <time>2021-10-17T12:24:54Z</time>
      </trkpt>
      <trkpt lat="42.70592" lon="0.67783">
        <ele>2024</ele>
        <time>2021-10-17T12:25:02Z</time>
      </trkpt>
      <trkpt lat="42.70601" lon="0.67789">
        <ele>2024</ele>
        <time>2021-10-17T12:25:11Z</time>
      </trkpt>
      <trkpt lat="42.7061" lon="0.67792">
        <ele>2024</ele>
        <time>2021-10-17T12:25:19Z</time>
      </trkpt>
      <trkpt lat="42.7062" lon="0.67794">
        <ele>2024</ele>
        <time>2021-10-17T12:25:30Z</time>
      </trkpt>
      <trkpt lat="42.70629" lon="0.67796">
        <ele>2024</ele>
        <time>2021-10-17T12:25:40Z</time>
      </trkpt>
      <trkpt lat="42.70637" lon="0.67801">
        <ele>2024</ele>
        <time>2021-10-17T12:25:47Z</time>
      </trkpt>
      <trkpt lat="42.70645" lon="0.67809">
        <ele>2024</ele>
        <time>2021-10-17T12:25:57Z</time>
      </trkpt>
      <trkpt lat="42.70653" lon="0.67816">
        <ele>2024</ele>
        <time>2021-10-17T12:26:07Z</time>
      </trkpt>
      <trkpt lat="42.70662" lon="0.6782">
        <ele>2024</ele>
        <time>2021-10-17T12:26:18Z</time>
      </trkpt>
      <trkpt lat="42.70668" lon="0.6783">
        <ele>2024</ele>
        <time>2021-10-17T12:26:28Z</time>
      </trkpt>
      <trkpt lat="42.70675" lon="0.67838">
        <ele>2024</ele>
        <time>2021-10-17T12:26:36Z</time>
      </trkpt>
      <trkpt lat="42.70684" lon="0.67839">
        <ele>2024</ele>
        <time>2021-10-17T12:26:48Z</time>
      </trkpt>
      <trkpt lat="42.70694" lon="0.67838">
        <ele>2024</ele>
        <time>2021-10-17T12:26:57Z</time>
      </trkpt>
      <trkpt lat="42.70702" lon="0.67842">
        <ele>2024</ele>
        <time>2021-10-17T12:27:05Z</time>
      </trkpt>
      <trkpt lat="42.70713" lon="0.67846">
        <ele>2024</ele>
        <time>2021-10-17T12:27:11Z</time>
      </trkpt>
      <trkpt lat="42.70723" lon="0.67847">
        <ele>2024</ele>
        <time>2021-10-17T12:27:23Z</time>
      </trkpt>
      <trkpt lat="42.70733" lon="0.67846">
        <ele>2024</ele>
        <time>2021-10-17T12:27:31Z</time>
      </trkpt>
      <trkpt lat="42.70738" lon="0.67835">
        <ele>2024</ele>
        <time>2021-10-17T12:27:41Z</time>
      </trkpt>
      <trkpt lat="42.70747" lon="0.6783">
        <ele>2024</ele>
        <time>2021-10-17T12:27:45Z</time>
      </trkpt>
      <trkpt lat="42.70756" lon="0.67827">
        <ele>2024</ele>
        <time>2021-10-17T12:27:55Z</time>
      </trkpt>
      <trkpt lat="42.70764" lon="0.67818">
        <ele>2024</ele>
        <time>2021-10-17T12:28:04Z</time>
      </trkpt>
      <trkpt lat="42.70773" lon="0.67823">
        <ele>2024</ele>
        <time>2021-10-17T12:28:19Z</time>
      </trkpt>
      <trkpt lat="42.70781" lon="0.67831">
        <ele>2024</ele>
        <time>2021-10-17T12:29:06Z</time>
      </trkpt>
      <trkpt lat="42.7079" lon="0.67832">
        <ele>2024</ele>
        <time>2021-10-17T12:30:05Z</time>
      </trkpt>
      <trkpt lat="42.708" lon="0.67831">
        <ele>1974</ele>
        <time>2021-10-17T12:30:12Z</time>
      </trkpt>
      <trkpt lat="42.7081" lon="0.67833">
        <ele>1974</ele>
        <time>2021-10-17T12:30:17Z</time>
      </trkpt>
      <trkpt lat="42.70819" lon="0.67834">
        <ele>1974</ele>
        <time>2021-10-17T12:30:21Z</time>
      </trkpt>
      <trkpt lat="42.70828" lon="0.67825">
        <ele>1974</ele>
        <time>2021-10-17T12:30:28Z</time>
      </trkpt>
      <trkpt lat="42.70837" lon="0.67822">
        <ele>1974</ele>
        <time>2021-10-17T12:30:33Z</time>
      </trkpt>
      <trkpt lat="42.70846" lon="0.67817">
        <ele>1974</ele>
        <time>2021-10-17T12:30:48Z</time>
      </trkpt>
      <trkpt lat="42.7085" lon="0.67804">
        <ele>1974</ele>
        <time>2021-10-17T12:30:58Z</time>
      </trkpt>
      <trkpt lat="42.70854" lon="0.67793">
        <ele>1974</ele>
        <time>2021-10-17T12:31:08Z</time>
      </trkpt>
      <trkpt lat="42.70856" lon="0.67781">
        <ele>1974</ele>
        <time>2021-10-17T12:31:14Z</time>
      </trkpt>
      <trkpt lat="42.70858" lon="0.67768">
        <ele>1974</ele>
        <time>2021-10-17T12:31:24Z</time>
      </trkpt>
      <trkpt lat="42.70861" lon="0.67754">
        <ele>1948</ele>
        <time>2021-10-17T12:31:32Z</time>
      </trkpt>
      <trkpt lat="42.70867" lon="0.67745">
        <ele>1948</ele>
        <time>2021-10-17T12:31:38Z</time>
      </trkpt>
      <trkpt lat="42.70872" lon="0.67733">
        <ele>1948</ele>
        <time>2021-10-17T12:31:43Z</time>
      </trkpt>
      <trkpt lat="42.70873" lon="0.67721">
        <ele>1948</ele>
        <time>2021-10-17T12:31:50Z</time>
      </trkpt>
      <trkpt lat="42.70879" lon="0.6771">
        <ele>1948</ele>
        <time>2021-10-17T12:31:56Z</time>
      </trkpt>
      <trkpt lat="42.70883" lon="0.67699">
        <ele>1948</ele>
        <time>2021-10-17T12:32:04Z</time>
      </trkpt>
      <trkpt lat="42.70887" lon="0.67686">
        <ele>1948</ele>
        <time>2021-10-17T12:32:12Z</time>
      </trkpt>
      <trkpt lat="42.70896" lon="0.67677">
        <ele>1948</ele>
        <time>2021-10-17T12:32:17Z</time>
      </trkpt>
      <trkpt lat="42.70901" lon="0.67666">
        <ele>1948</ele>
        <time>2021-10-17T12:32:26Z</time>
      </trkpt>
      <trkpt lat="42.70907" lon="0.67655">
        <ele>1932</ele>
        <time>2021-10-17T12:32:32Z</time>
      </trkpt>
      <trkpt lat="42.70909" lon="0.67642">
        <ele>1932</ele>
        <time>2021-10-17T12:32:41Z</time>
      </trkpt>
      <trkpt lat="42.70918" lon="0.67637">
        <ele>1932</ele>
        <time>2021-10-17T12:32:51Z</time>
      </trkpt>
      <trkpt lat="42.70923" lon="0.67626">
        <ele>1932</ele>
        <time>2021-10-17T12:33:01Z</time>
      </trkpt>
      <trkpt lat="42.70928" lon="0.67615">
        <ele>1932</ele>
        <time>2021-10-17T12:33:16Z</time>
      </trkpt>
      <trkpt lat="42.70928" lon="0.67601">
        <ele>1932</ele>
        <time>2021-10-17T12:33:24Z</time>
      </trkpt>
      <trkpt lat="42.7093" lon="0.67589">
        <ele>1932</ele>
        <time>2021-10-17T12:33:33Z</time>
      </trkpt>
      <trkpt lat="42.70932" lon="0.67576">
        <ele>1932</ele>
        <time>2021-10-17T12:33:44Z</time>
      </trkpt>
      <trkpt lat="42.70937" lon="0.67565">
        <ele>1932</ele>
        <time>2021-10-17T12:33:54Z</time>
      </trkpt>
      <trkpt lat="42.70943" lon="0.67556">
        <ele>1932</ele>
        <time>2021-10-17T12:34:05Z</time>
      </trkpt>
      <trkpt lat="42.70953" lon="0.6755">
        <ele>1932</ele>
        <time>2021-10-17T12:34:15Z</time>
      </trkpt>
      <trkpt lat="42.70959" lon="0.67541">
        <ele>1904</ele>
        <time>2021-10-17T12:34:22Z</time>
      </trkpt>
      <trkpt lat="42.70966" lon="0.67533">
        <ele>1904</ele>
        <time>2021-10-17T12:34:43Z</time>
      </trkpt>
      <trkpt lat="42.70976" lon="0.67531">
        <ele>1904</ele>
        <time>2021-10-17T12:34:56Z</time>
      </trkpt>
      <trkpt lat="42.70984" lon="0.67525">
        <ele>1904</ele>
        <time>2021-10-17T12:35:04Z</time>
      </trkpt>
      <trkpt lat="42.70992" lon="0.6752">
        <ele>1904</ele>
        <time>2021-10-17T12:35:13Z</time>
      </trkpt>
      <trkpt lat="42.71" lon="0.67512">
        <ele>1904</ele>
        <time>2021-10-17T12:35:20Z</time>
      </trkpt>
      <trkpt lat="42.71009" lon="0.67506">
        <ele>1904</ele>
        <time>2021-10-17T12:35:28Z</time>
      </trkpt>
      <trkpt lat="42.71018" lon="0.67502">
        <ele>1904</ele>
        <time>2021-10-17T12:35:36Z</time>
      </trkpt>
      <trkpt lat="42.71028" lon="0.67499">
        <ele>1904</ele>
        <time>2021-10-17T12:35:43Z</time>
      </trkpt>
      <trkpt lat="42.71038" lon="0.67495">
        <ele>1904</ele>
        <time>2021-10-17T12:35:54Z</time>
      </trkpt>
      <trkpt lat="42.71047" lon="0.67491">
        <ele>1904</ele>
        <time>2021-10-17T12:35:58Z</time>
      </trkpt>
      <trkpt lat="42.71057" lon="0.67486">
        <ele>1904</ele>
        <time>2021-10-17T12:36:07Z</time>
      </trkpt>
      <trkpt lat="42.71066" lon="0.67483">
        <ele>1904</ele>
        <time>2021-10-17T12:36:15Z</time>
      </trkpt>
      <trkpt lat="42.71076" lon="0.67481">
        <ele>1883</ele>
        <time>2021-10-17T12:36:32Z</time>
      </trkpt>
      <trkpt lat="42.71086" lon="0.6748">
        <ele>1883</ele>
        <time>2021-10-17T12:36:40Z</time>
      </trkpt>
      <trkpt lat="42.71095" lon="0.67483">
        <ele>1883</ele>
        <time>2021-10-17T12:36:47Z</time>
      </trkpt>
      <trkpt lat="42.71104" lon="0.67484">
        <ele>1883</ele>
        <time>2021-10-17T12:36:57Z</time>
      </trkpt>
      <trkpt lat="42.71113" lon="0.67479">
        <ele>1883</ele>
        <time>2021-10-17T12:37:05Z</time>
      </trkpt>
      <trkpt lat="42.71121" lon="0.67472">
        <ele>1883</ele>
        <time>2021-10-17T12:37:28Z</time>
      </trkpt>
      <trkpt lat="42.71132" lon="0.67471">
        <ele>1883</ele>
        <time>2021-10-17T12:37:37Z</time>
      </trkpt>
      <trkpt lat="42.71141" lon="0.67469">
        <ele>1883</ele>
        <time>2021-10-17T12:37:53Z</time>
      </trkpt>
      <trkpt lat="42.71147" lon="0.6746">
        <ele>1883</ele>
        <time>2021-10-17T12:38:05Z</time>
      </trkpt>
      <trkpt lat="42.71157" lon="0.67453">
        <ele>1866</ele>
        <time>2021-10-17T12:38:12Z</time>
      </trkpt>
      <trkpt lat="42.71166" lon="0.67449">
        <ele>1866</ele>
        <time>2021-10-17T12:38:18Z</time>
      </trkpt>
      <trkpt lat="42.71174" lon="0.67443">
        <ele>1866</ele>
        <time>2021-10-17T12:38:27Z</time>
      </trkpt>
      <trkpt lat="42.71181" lon="0.67433">
        <ele>1866</ele>
        <time>2021-10-17T12:38:33Z</time>
      </trkpt>
      <trkpt lat="42.71187" lon="0.67423">
        <ele>1866</ele>
        <time>2021-10-17T12:38:43Z</time>
      </trkpt>
      <trkpt lat="42.71196" lon="0.6742">
        <ele>1866</ele>
        <time>2021-10-17T12:39:51Z</time>
      </trkpt>
      <trkpt lat="42.71202" lon="0.67411">
        <ele>1866</ele>
        <time>2021-10-17T12:40:07Z</time>
      </trkpt>
      <trkpt lat="42.71211" lon="0.67407">
        <ele>1866</ele>
        <time>2021-10-17T12:40:17Z</time>
      </trkpt>
      <trkpt lat="42.71218" lon="0.67398">
        <ele>1866</ele>
        <time>2021-10-17T12:40:25Z</time>
      </trkpt>
      <trkpt lat="42.71227" lon="0.67392">
        <ele>1866</ele>
        <time>2021-10-17T12:40:34Z</time>
      </trkpt>
      <trkpt lat="42.71237" lon="0.67388">
        <ele>1866</ele>
        <time>2021-10-17T12:40:43Z</time>
      </trkpt>
      <trkpt lat="42.71246" lon="0.67382">
        <ele>1866</ele>
        <time>2021-10-17T12:40:51Z</time>
      </trkpt>
      <trkpt lat="42.71253" lon="0.67374">
        <ele>1866</ele>
        <time>2021-10-17T12:40:59Z</time>
      </trkpt>
      <trkpt lat="42.71259" lon="0.67364">
        <ele>1866</ele>
        <time>2021-10-17T12:41:06Z</time>
      </trkpt>
      <trkpt lat="42.71267" lon="0.67356">
        <ele>1866</ele>
        <time>2021-10-17T12:41:14Z</time>
      </trkpt>
      <trkpt lat="42.71275" lon="0.6735">
        <ele>1866</ele>
        <time>2021-10-17T12:41:21Z</time>
      </trkpt>
      <trkpt lat="42.71285" lon="0.67346">
        <ele>1866</ele>
        <time>2021-10-17T12:41:29Z</time>
      </trkpt>
      <trkpt lat="42.71293" lon="0.67337">
        <ele>1866</ele>
        <time>2021-10-17T12:41:37Z</time>
      </trkpt>
      <trkpt lat="42.71302" lon="0.67335">
        <ele>1866</ele>
        <time>2021-10-17T12:41:44Z</time>
      </trkpt>
      <trkpt lat="42.71312" lon="0.67329">
        <ele>1830</ele>
        <time>2021-10-17T12:41:52Z</time>
      </trkpt>
      <trkpt lat="42.7132" lon="0.67323">
        <ele>1830</ele>
        <time>2021-10-17T12:42:01Z</time>
      </trkpt>
      <trkpt lat="42.71327" lon="0.67315">
        <ele>1830</ele>
        <time>2021-10-17T12:42:12Z</time>
      </trkpt>
      <trkpt lat="42.71334" lon="0.67306">
        <ele>1830</ele>
        <time>2021-10-17T12:42:19Z</time>
      </trkpt>
      <trkpt lat="42.71339" lon="0.67296">
        <ele>1830</ele>
        <time>2021-10-17T12:42:27Z</time>
      </trkpt>
      <trkpt lat="42.71348" lon="0.67292">
        <ele>1830</ele>
        <time>2021-10-17T12:42:36Z</time>
      </trkpt>
      <trkpt lat="42.71356" lon="0.67286">
        <ele>1830</ele>
        <time>2021-10-17T12:42:45Z</time>
      </trkpt>
      <trkpt lat="42.71365" lon="0.67279">
        <ele>1830</ele>
        <time>2021-10-17T12:42:55Z</time>
      </trkpt>
      <trkpt lat="42.71356" lon="0.67271">
        <ele>1830</ele>
        <time>2021-10-17T12:43:08Z</time>
      </trkpt>
      <trkpt lat="42.71358" lon="0.67259">
        <ele>1830</ele>
        <time>2021-10-17T12:43:17Z</time>
      </trkpt>
      <trkpt lat="42.71366" lon="0.67251">
        <ele>1830</ele>
        <time>2021-10-17T12:43:25Z</time>
      </trkpt>
      <trkpt lat="42.71376" lon="0.67255">
        <ele>1830</ele>
        <time>2021-10-17T12:43:35Z</time>
      </trkpt>
      <trkpt lat="42.71385" lon="0.6725">
        <ele>1830</ele>
        <time>2021-10-17T12:43:44Z</time>
      </trkpt>
      <trkpt lat="42.71392" lon="0.6724">
        <ele>1830</ele>
        <time>2021-10-17T12:43:53Z</time>
      </trkpt>
      <trkpt lat="42.714" lon="0.6723">
        <ele>1830</ele>
        <time>2021-10-17T12:44:00Z</time>
      </trkpt>
      <trkpt lat="42.71408" lon="0.67224">
        <ele>1830</ele>
        <time>2021-10-17T12:44:08Z</time>
      </trkpt>
      <trkpt lat="42.71417" lon="0.67221">
        <ele>1830</ele>
        <time>2021-10-17T12:44:15Z</time>
      </trkpt>
      <trkpt lat="42.71425" lon="0.67216">
        <ele>1830</ele>
        <time>2021-10-17T12:44:23Z</time>
      </trkpt>
      <trkpt lat="42.71434" lon="0.67212">
        <ele>1830</ele>
        <time>2021-10-17T12:44:31Z</time>
      </trkpt>
      <trkpt lat="42.7144" lon="0.67203">
        <ele>1830</ele>
        <time>2021-10-17T12:44:38Z</time>
      </trkpt>
      <trkpt lat="42.71443" lon="0.6719">
        <ele>1830</ele>
        <time>2021-10-17T12:44:45Z</time>
      </trkpt>
      <trkpt lat="42.71444" lon="0.67177">
        <ele>1790</ele>
        <time>2021-10-17T12:44:52Z</time>
      </trkpt>
      <trkpt lat="42.71445" lon="0.67164">
        <ele>1790</ele>
        <time>2021-10-17T12:45:00Z</time>
      </trkpt>
      <trkpt lat="42.71447" lon="0.67151">
        <ele>1790</ele>
        <time>2021-10-17T12:45:07Z</time>
      </trkpt>
      <trkpt lat="42.71451" lon="0.67137">
        <ele>1790</ele>
        <time>2021-10-17T12:45:19Z</time>
      </trkpt>
      <trkpt lat="42.71453" lon="0.67124">
        <ele>1790</ele>
        <time>2021-10-17T12:45:28Z</time>
      </trkpt>
      <trkpt lat="42.71456" lon="0.67112">
        <ele>1780</ele>
        <time>2021-10-17T12:45:32Z</time>
      </trkpt>
      <trkpt lat="42.71461" lon="0.671">
        <ele>1780</ele>
        <time>2021-10-17T12:45:41Z</time>
      </trkpt>
      <trkpt lat="42.71468" lon="0.67092">
        <ele>1780</ele>
        <time>2021-10-17T12:45:45Z</time>
      </trkpt>
      <trkpt lat="42.7147" lon="0.67079">
        <ele>1780</ele>
        <time>2021-10-17T12:45:54Z</time>
      </trkpt>
      <trkpt lat="42.71474" lon="0.67067">
        <ele>1780</ele>
        <time>2021-10-17T12:45:59Z</time>
      </trkpt>
      <trkpt lat="42.71478" lon="0.67056">
        <ele>1780</ele>
        <time>2021-10-17T12:46:08Z</time>
      </trkpt>
      <trkpt lat="42.7148" lon="0.67043">
        <ele>1780</ele>
        <time>2021-10-17T12:46:18Z</time>
      </trkpt>
      <trkpt lat="42.71486" lon="0.67033">
        <ele>1780</ele>
        <time>2021-10-17T12:46:38Z</time>
      </trkpt>
      <trkpt lat="42.71493" lon="0.67025">
        <ele>1780</ele>
        <time>2021-10-17T12:46:47Z</time>
      </trkpt>
      <trkpt lat="42.71499" lon="0.67014">
        <ele>1780</ele>
        <time>2021-10-17T12:46:56Z</time>
      </trkpt>
      <trkpt lat="42.71505" lon="0.67003">
        <ele>1780</ele>
        <time>2021-10-17T12:47:05Z</time>
      </trkpt>
      <trkpt lat="42.71514" lon="0.66996">
        <ele>1780</ele>
        <time>2021-10-17T12:47:13Z</time>
      </trkpt>
      <trkpt lat="42.71523" lon="0.66989">
        <ele>1780</ele>
        <time>2021-10-17T12:47:19Z</time>
      </trkpt>
      <trkpt lat="42.71531" lon="0.66984">
        <ele>1780</ele>
        <time>2021-10-17T12:47:24Z</time>
      </trkpt>
      <trkpt lat="42.71539" lon="0.66979">
        <ele>1759</ele>
        <time>2021-10-17T12:47:32Z</time>
      </trkpt>
      <trkpt lat="42.71547" lon="0.66972">
        <ele>1759</ele>
        <time>2021-10-17T12:47:40Z</time>
      </trkpt>
      <trkpt lat="42.71556" lon="0.66966">
        <ele>1759</ele>
        <time>2021-10-17T12:47:45Z</time>
      </trkpt>
      <trkpt lat="42.71562" lon="0.66956">
        <ele>1759</ele>
        <time>2021-10-17T12:47:53Z</time>
      </trkpt>
      <trkpt lat="42.71568" lon="0.66946">
        <ele>1759</ele>
        <time>2021-10-17T12:48:01Z</time>
      </trkpt>
      <trkpt lat="42.71575" lon="0.66937">
        <ele>1759</ele>
        <time>2021-10-17T12:48:09Z</time>
      </trkpt>
      <trkpt lat="42.71584" lon="0.66932">
        <ele>1759</ele>
        <time>2021-10-17T12:48:15Z</time>
      </trkpt>
      <trkpt lat="42.71593" lon="0.66928">
        <ele>1759</ele>
        <time>2021-10-17T12:48:26Z</time>
      </trkpt>
      <trkpt lat="42.71603" lon="0.66927">
        <ele>1759</ele>
        <time>2021-10-17T12:48:31Z</time>
      </trkpt>
      <trkpt lat="42.71611" lon="0.6692">
        <ele>1759</ele>
        <time>2021-10-17T12:48:39Z</time>
      </trkpt>
      <trkpt lat="42.7162" lon="0.66914">
        <ele>1759</ele>
        <time>2021-10-17T12:48:44Z</time>
      </trkpt>
      <trkpt lat="42.71627" lon="0.66906">
        <ele>1742</ele>
        <time>2021-10-17T12:48:52Z</time>
      </trkpt>
      <trkpt lat="42.71635" lon="0.66899">
        <ele>1742</ele>
        <time>2021-10-17T12:49:01Z</time>
      </trkpt>
      <trkpt lat="42.71644" lon="0.66896">
        <ele>1742</ele>
        <time>2021-10-17T12:49:06Z</time>
      </trkpt>
      <trkpt lat="42.7165" lon="0.66887">
        <ele>1742</ele>
        <time>2021-10-17T12:49:16Z</time>
      </trkpt>
      <trkpt lat="42.71659" lon="0.66882">
        <ele>1739</ele>
        <time>2021-10-17T12:49:22Z</time>
      </trkpt>
      <trkpt lat="42.71666" lon="0.66873">
        <ele>1739</ele>
        <time>2021-10-17T12:49:29Z</time>
      </trkpt>
      <trkpt lat="42.71676" lon="0.6687">
        <ele>1739</ele>
        <time>2021-10-17T12:49:35Z</time>
      </trkpt>
      <trkpt lat="42.71685" lon="0.66866">
        <ele>1737</ele>
        <time>2021-10-17T12:49:42Z</time>
      </trkpt>
      <trkpt lat="42.71695" lon="0.66863">
        <ele>1737</ele>
        <time>2021-10-17T12:49:49Z</time>
      </trkpt>
      <trkpt lat="42.71704" lon="0.66859">
        <ele>1737</ele>
        <time>2021-10-17T12:49:55Z</time>
      </trkpt>
      <trkpt lat="42.71713" lon="0.66854">
        <ele>1737</ele>
        <time>2021-10-17T12:50:04Z</time>
      </trkpt>
      <trkpt lat="42.7172" lon="0.66847">
        <ele>1737</ele>
        <time>2021-10-17T12:50:11Z</time>
      </trkpt>
      <trkpt lat="42.71728" lon="0.66841">
        <ele>1737</ele>
        <time>2021-10-17T12:50:18Z</time>
      </trkpt>
      <trkpt lat="42.71735" lon="0.66833">
        <ele>1737</ele>
        <time>2021-10-17T12:50:25Z</time>
      </trkpt>
      <trkpt lat="42.71743" lon="0.66826">
        <ele>1737</ele>
        <time>2021-10-17T12:50:34Z</time>
      </trkpt>
      <trkpt lat="42.71752" lon="0.66825">
        <ele>1737</ele>
        <time>2021-10-17T12:50:43Z</time>
      </trkpt>
      <trkpt lat="42.71754" lon="0.66813">
        <ele>1737</ele>
        <time>2021-10-17T12:50:51Z</time>
      </trkpt>
      <trkpt lat="42.71755" lon="0.668">
        <ele>1737</ele>
        <time>2021-10-17T12:50:58Z</time>
      </trkpt>
      <trkpt lat="42.71759" lon="0.66789">
        <ele>1737</ele>
        <time>2021-10-17T12:51:03Z</time>
      </trkpt>
      <trkpt lat="42.71762" lon="0.66775">
        <ele>1737</ele>
        <time>2021-10-17T12:51:11Z</time>
      </trkpt>
      <trkpt lat="42.71765" lon="0.66762">
        <ele>1737</ele>
        <time>2021-10-17T12:51:20Z</time>
      </trkpt>
      <trkpt lat="42.71769" lon="0.66749">
        <ele>1737</ele>
        <time>2021-10-17T12:51:27Z</time>
      </trkpt>
      <trkpt lat="42.71775" lon="0.66739">
        <ele>1732</ele>
        <time>2021-10-17T12:51:32Z</time>
      </trkpt>
      <trkpt lat="42.71777" lon="0.66727">
        <ele>1732</ele>
        <time>2021-10-17T12:51:42Z</time>
      </trkpt>
      <trkpt lat="42.71782" lon="0.66715">
        <ele>1732</ele>
        <time>2021-10-17T12:51:47Z</time>
      </trkpt>
      <trkpt lat="42.71786" lon="0.66705">
        <ele>1732</ele>
        <time>2021-10-17T12:51:53Z</time>
      </trkpt>
      <trkpt lat="42.7179" lon="0.66675">
        <ele>1732</ele>
        <time>2021-10-17T12:52:12Z</time>
      </trkpt>
      <trkpt lat="42.71792" lon="0.66663">
        <ele>1732</ele>
        <time>2021-10-17T12:52:20Z</time>
      </trkpt>
      <trkpt lat="42.71793" lon="0.66651">
        <ele>1732</ele>
        <time>2021-10-17T12:52:28Z</time>
      </trkpt>
      <trkpt lat="42.71796" lon="0.66645">
        <ele>1732</ele>
        <time>2021-10-17T12:59:37Z</time>
      </trkpt>
      <trkpt lat="42.7184" lon="0.66564">
        <ele>1728</ele>
        <time>2021-10-17T13:08:27Z</time>
      </trkpt>
      <trkpt lat="42.71842" lon="0.66559">
        <ele>1728</ele>
        <time>2021-10-17T13:08:31Z</time>
      </trkpt>
      <trkpt lat="42.71843" lon="0.66546">
        <ele>1728</ele>
        <time>2021-10-17T13:08:43Z</time>
      </trkpt>
      <trkpt lat="42.71848" lon="0.66535">
        <ele>1728</ele>
        <time>2021-10-17T13:08:52Z</time>
      </trkpt>
      <trkpt lat="42.71857" lon="0.66529">
        <ele>1728</ele>
        <time>2021-10-17T13:09:01Z</time>
      </trkpt>
      <trkpt lat="42.71864" lon="0.6652">
        <ele>1728</ele>
        <time>2021-10-17T13:09:09Z</time>
      </trkpt>
      <trkpt lat="42.7186" lon="0.66508">
        <ele>1724</ele>
        <time>2021-10-17T13:09:16Z</time>
      </trkpt>
      <trkpt lat="42.71857" lon="0.66496">
        <ele>1724</ele>
        <time>2021-10-17T13:09:27Z</time>
      </trkpt>
      <trkpt lat="42.71855" lon="0.66483">
        <ele>1724</ele>
        <time>2021-10-17T13:09:33Z</time>
      </trkpt>
      <trkpt lat="42.71863" lon="0.66475">
        <ele>1724</ele>
        <time>2021-10-17T13:09:45Z</time>
      </trkpt>
      <trkpt lat="42.71858" lon="0.66465">
        <ele>1724</ele>
        <time>2021-10-17T13:09:58Z</time>
      </trkpt>
      <trkpt lat="42.71871" lon="0.66452">
        <ele>1724</ele>
        <time>2021-10-17T13:10:19Z</time>
      </trkpt>
      <trkpt lat="42.71869" lon="0.66439">
        <ele>1724</ele>
        <time>2021-10-17T13:10:33Z</time>
      </trkpt>
      <trkpt lat="42.71878" lon="0.66442">
        <ele>1724</ele>
        <time>2021-10-17T13:10:44Z</time>
      </trkpt>
      <trkpt lat="42.71888" lon="0.66436">
        <ele>1724</ele>
        <time>2021-10-17T13:10:54Z</time>
      </trkpt>
      <trkpt lat="42.71897" lon="0.66433">
        <ele>1724</ele>
        <time>2021-10-17T13:11:03Z</time>
      </trkpt>
      <trkpt lat="42.71904" lon="0.66422">
        <ele>1724</ele>
        <time>2021-10-17T13:11:12Z</time>
      </trkpt>
      <trkpt lat="42.71912" lon="0.66415">
        <ele>1724</ele>
        <time>2021-10-17T13:11:21Z</time>
      </trkpt>
      <trkpt lat="42.7192" lon="0.66408">
        <ele>1687</ele>
        <time>2021-10-17T13:11:36Z</time>
      </trkpt>
      <trkpt lat="42.71928" lon="0.66399">
        <ele>1687</ele>
        <time>2021-10-17T13:11:41Z</time>
      </trkpt>
      <trkpt lat="42.71934" lon="0.66389">
        <ele>1687</ele>
        <time>2021-10-17T13:11:51Z</time>
      </trkpt>
      <trkpt lat="42.71938" lon="0.66376">
        <ele>1687</ele>
        <time>2021-10-17T13:12:02Z</time>
      </trkpt>
      <trkpt lat="42.71943" lon="0.66366">
        <ele>1681</ele>
        <time>2021-10-17T13:12:06Z</time>
      </trkpt>
      <trkpt lat="42.7195" lon="0.66354">
        <ele>1680</ele>
        <time>2021-10-17T13:12:16Z</time>
      </trkpt>
      <trkpt lat="42.71956" lon="0.66344">
        <ele>1680</ele>
        <time>2021-10-17T13:12:27Z</time>
      </trkpt>
      <trkpt lat="42.71962" lon="0.66335">
        <ele>1680</ele>
        <time>2021-10-17T13:12:36Z</time>
      </trkpt>
      <trkpt lat="42.71965" lon="0.66323">
        <ele>1680</ele>
        <time>2021-10-17T13:12:40Z</time>
      </trkpt>
      <trkpt lat="42.7197" lon="0.66312">
        <ele>1680</ele>
        <time>2021-10-17T13:12:48Z</time>
      </trkpt>
      <trkpt lat="42.71979" lon="0.66308">
        <ele>1666</ele>
        <time>2021-10-17T13:12:56Z</time>
      </trkpt>
      <trkpt lat="42.71984" lon="0.66297">
        <ele>1666</ele>
        <time>2021-10-17T13:13:05Z</time>
      </trkpt>
      <trkpt lat="42.71984" lon="0.66285">
        <ele>1666</ele>
        <time>2021-10-17T13:13:10Z</time>
      </trkpt>
      <trkpt lat="42.71984" lon="0.66272">
        <ele>1666</ele>
        <time>2021-10-17T13:13:18Z</time>
      </trkpt>
      <trkpt lat="42.71985" lon="0.66259">
        <ele>1661</ele>
        <time>2021-10-17T13:13:26Z</time>
      </trkpt>
      <trkpt lat="42.71991" lon="0.66248">
        <ele>1661</ele>
        <time>2021-10-17T13:13:32Z</time>
      </trkpt>
      <trkpt lat="42.71999" lon="0.6624">
        <ele>1661</ele>
        <time>2021-10-17T13:13:41Z</time>
      </trkpt>
      <trkpt lat="42.72008" lon="0.66235">
        <ele>1661</ele>
        <time>2021-10-17T13:13:45Z</time>
      </trkpt>
      <trkpt lat="42.72012" lon="0.66223">
        <ele>1661</ele>
        <time>2021-10-17T13:13:55Z</time>
      </trkpt>
      <trkpt lat="42.72014" lon="0.66211">
        <ele>1661</ele>
        <time>2021-10-17T13:14:02Z</time>
      </trkpt>
      <trkpt lat="42.72015" lon="0.66198">
        <ele>1661</ele>
        <time>2021-10-17T13:14:09Z</time>
      </trkpt>
      <trkpt lat="42.72019" lon="0.66187">
        <ele>1642</ele>
        <time>2021-10-17T13:14:16Z</time>
      </trkpt>
      <trkpt lat="42.72017" lon="0.66174">
        <ele>1642</ele>
        <time>2021-10-17T13:14:24Z</time>
      </trkpt>
      <trkpt lat="42.72007" lon="0.66175">
        <ele>1642</ele>
        <time>2021-10-17T13:14:35Z</time>
      </trkpt>
      <trkpt lat="42.71998" lon="0.6618">
        <ele>1642</ele>
        <time>2021-10-17T13:14:39Z</time>
      </trkpt>
      <trkpt lat="42.71989" lon="0.66186">
        <ele>1635</ele>
        <time>2021-10-17T13:14:46Z</time>
      </trkpt>
      <trkpt lat="42.7198" lon="0.66185">
        <ele>1635</ele>
        <time>2021-10-17T13:14:51Z</time>
      </trkpt>
      <trkpt lat="42.71971" lon="0.66188">
        <ele>1635</ele>
        <time>2021-10-17T13:15:04Z</time>
      </trkpt>
      <trkpt lat="42.71963" lon="0.66181">
        <ele>1635</ele>
        <time>2021-10-17T13:15:09Z</time>
      </trkpt>
      <trkpt lat="42.71954" lon="0.66185">
        <ele>1635</ele>
        <time>2021-10-17T13:15:21Z</time>
      </trkpt>
      <trkpt lat="42.71945" lon="0.6619">
        <ele>1621</ele>
        <time>2021-10-17T13:15:26Z</time>
      </trkpt>
      <trkpt lat="42.71936" lon="0.66195">
        <ele>1621</ele>
        <time>2021-10-17T13:15:33Z</time>
      </trkpt>
      <trkpt lat="42.71927" lon="0.66198">
        <ele>1621</ele>
        <time>2021-10-17T13:15:39Z</time>
      </trkpt>
      <trkpt lat="42.71917" lon="0.66201">
        <ele>1621</ele>
        <time>2021-10-17T13:15:48Z</time>
      </trkpt>
      <trkpt lat="42.71909" lon="0.66209">
        <ele>1621</ele>
        <time>2021-10-17T13:16:01Z</time>
      </trkpt>
      <trkpt lat="42.71914" lon="0.66197">
        <ele>1621</ele>
        <time>2021-10-17T13:16:19Z</time>
      </trkpt>
      <trkpt lat="42.71922" lon="0.66186">
        <ele>1621</ele>
        <time>2021-10-17T13:16:24Z</time>
      </trkpt>
      <trkpt lat="42.71928" lon="0.66176">
        <ele>1621</ele>
        <time>2021-10-17T13:16:31Z</time>
      </trkpt>
      <trkpt lat="42.71934" lon="0.66164">
        <ele>1621</ele>
        <time>2021-10-17T13:16:44Z</time>
      </trkpt>
      <trkpt lat="42.71942" lon="0.66156">
        <ele>1621</ele>
        <time>2021-10-17T13:16:49Z</time>
      </trkpt>
      <trkpt lat="42.71952" lon="0.66151">
        <ele>1621</ele>
        <time>2021-10-17T13:16:59Z</time>
      </trkpt>
      <trkpt lat="42.71944" lon="0.66141">
        <ele>1621</ele>
        <time>2021-10-17T13:17:11Z</time>
      </trkpt>
      <trkpt lat="42.71935" lon="0.66145">
        <ele>1621</ele>
        <time>2021-10-17T13:17:15Z</time>
      </trkpt>
      <trkpt lat="42.71925" lon="0.66144">
        <ele>1621</ele>
        <time>2021-10-17T13:17:25Z</time>
      </trkpt>
      <trkpt lat="42.71915" lon="0.66144">
        <ele>1621</ele>
        <time>2021-10-17T13:17:35Z</time>
      </trkpt>
      <trkpt lat="42.71906" lon="0.66151">
        <ele>1621</ele>
        <time>2021-10-17T13:17:44Z</time>
      </trkpt>
      <trkpt lat="42.71898" lon="0.66153">
        <ele>1621</ele>
        <time>2021-10-17T13:17:51Z</time>
      </trkpt>
      <trkpt lat="42.71891" lon="0.66162">
        <ele>1621</ele>
        <time>2021-10-17T13:17:57Z</time>
      </trkpt>
      <trkpt lat="42.71884" lon="0.6617">
        <ele>1621</ele>
        <time>2021-10-17T13:18:03Z</time>
      </trkpt>
      <trkpt lat="42.71874" lon="0.66175">
        <ele>1621</ele>
        <time>2021-10-17T13:18:08Z</time>
      </trkpt>
      <trkpt lat="42.71864" lon="0.66179">
        <ele>1621</ele>
        <time>2021-10-17T13:18:24Z</time>
      </trkpt>
      <trkpt lat="42.71856" lon="0.66187">
        <ele>1621</ele>
        <time>2021-10-17T13:18:30Z</time>
      </trkpt>
      <trkpt lat="42.71849" lon="0.66195">
        <ele>1621</ele>
        <time>2021-10-17T13:18:38Z</time>
      </trkpt>
      <trkpt lat="42.71842" lon="0.66207">
        <ele>1621</ele>
        <time>2021-10-17T13:18:45Z</time>
      </trkpt>
      <trkpt lat="42.71838" lon="0.66219">
        <ele>1621</ele>
        <time>2021-10-17T13:18:50Z</time>
      </trkpt>
      <trkpt lat="42.71831" lon="0.66228">
        <ele>1621</ele>
        <time>2021-10-17T13:19:00Z</time>
      </trkpt>
      <trkpt lat="42.71821" lon="0.66239">
        <ele>1621</ele>
        <time>2021-10-17T13:19:10Z</time>
      </trkpt>
      <trkpt lat="42.71811" lon="0.66245">
        <ele>1621</ele>
        <time>2021-10-17T13:19:16Z</time>
      </trkpt>
      <trkpt lat="42.718" lon="0.66243">
        <ele>1621</ele>
        <time>2021-10-17T13:19:25Z</time>
      </trkpt>
      <trkpt lat="42.7179" lon="0.66245">
        <ele>1621</ele>
        <time>2021-10-17T13:19:33Z</time>
      </trkpt>
      <trkpt lat="42.71782" lon="0.66254">
        <ele>1621</ele>
        <time>2021-10-17T13:19:38Z</time>
      </trkpt>
      <trkpt lat="42.71776" lon="0.66265">
        <ele>1621</ele>
        <time>2021-10-17T13:19:48Z</time>
      </trkpt>
      <trkpt lat="42.71771" lon="0.66277">
        <ele>1621</ele>
        <time>2021-10-17T13:19:59Z</time>
      </trkpt>
      <trkpt lat="42.71763" lon="0.66288">
        <ele>1621</ele>
        <time>2021-10-17T13:20:07Z</time>
      </trkpt>
      <trkpt lat="42.71755" lon="0.66294">
        <ele>1621</ele>
        <time>2021-10-17T13:20:14Z</time>
      </trkpt>
      <trkpt lat="42.71755" lon="0.66282">
        <ele>1621</ele>
        <time>2021-10-17T13:20:21Z</time>
      </trkpt>
      <trkpt lat="42.71753" lon="0.66269">
        <ele>1621</ele>
        <time>2021-10-17T13:20:28Z</time>
      </trkpt>
      <trkpt lat="42.71754" lon="0.66255">
        <ele>1621</ele>
        <time>2021-10-17T13:20:35Z</time>
      </trkpt>
      <trkpt lat="42.71756" lon="0.66243">
        <ele>1621</ele>
        <time>2021-10-17T13:20:41Z</time>
      </trkpt>
      <trkpt lat="42.7176" lon="0.66231">
        <ele>1621</ele>
        <time>2021-10-17T13:20:50Z</time>
      </trkpt>
      <trkpt lat="42.71764" lon="0.66218">
        <ele>1621</ele>
        <time>2021-10-17T13:21:05Z</time>
      </trkpt>
      <trkpt lat="42.71769" lon="0.66208">
        <ele>1621</ele>
        <time>2021-10-17T13:21:13Z</time>
      </trkpt>
      <trkpt lat="42.71775" lon="0.66197">
        <ele>1621</ele>
        <time>2021-10-17T13:21:18Z</time>
      </trkpt>
      <trkpt lat="42.71781" lon="0.66184">
        <ele>1621</ele>
        <time>2021-10-17T13:21:26Z</time>
      </trkpt>
      <trkpt lat="42.71788" lon="0.66176">
        <ele>1621</ele>
        <time>2021-10-17T13:21:33Z</time>
      </trkpt>
      <trkpt lat="42.71793" lon="0.66165">
        <ele>1621</ele>
        <time>2021-10-17T13:21:39Z</time>
      </trkpt>
      <trkpt lat="42.71794" lon="0.66152">
        <ele>1621</ele>
        <time>2021-10-17T13:21:44Z</time>
      </trkpt>
      <trkpt lat="42.71798" lon="0.6614">
        <ele>1621</ele>
        <time>2021-10-17T13:21:55Z</time>
      </trkpt>
      <trkpt lat="42.718" lon="0.66126">
        <ele>1621</ele>
        <time>2021-10-17T13:22:01Z</time>
      </trkpt>
      <trkpt lat="42.71805" lon="0.66115">
        <ele>1621</ele>
        <time>2021-10-17T13:22:13Z</time>
      </trkpt>
      <trkpt lat="42.71812" lon="0.66106">
        <ele>1621</ele>
        <time>2021-10-17T13:22:22Z</time>
      </trkpt>
      <trkpt lat="42.71815" lon="0.66093">
        <ele>1621</ele>
        <time>2021-10-17T13:22:27Z</time>
      </trkpt>
      <trkpt lat="42.71817" lon="0.66081">
        <ele>1621</ele>
        <time>2021-10-17T13:22:34Z</time>
      </trkpt>
      <trkpt lat="42.71824" lon="0.6607">
        <ele>1621</ele>
        <time>2021-10-17T13:22:45Z</time>
      </trkpt>
      <trkpt lat="42.71828" lon="0.66058">
        <ele>1621</ele>
        <time>2021-10-17T13:22:49Z</time>
      </trkpt>
      <trkpt lat="42.71833" lon="0.66046">
        <ele>1621</ele>
        <time>2021-10-17T13:22:57Z</time>
      </trkpt>
      <trkpt lat="42.71838" lon="0.66036">
        <ele>1621</ele>
        <time>2021-10-17T13:23:05Z</time>
      </trkpt>
      <trkpt lat="42.71844" lon="0.66026">
        <ele>1621</ele>
        <time>2021-10-17T13:23:13Z</time>
      </trkpt>
      <trkpt lat="42.7185" lon="0.66017">
        <ele>1621</ele>
        <time>2021-10-17T13:23:21Z</time>
      </trkpt>
      <trkpt lat="42.71853" lon="0.66005">
        <ele>1621</ele>
        <time>2021-10-17T13:23:28Z</time>
      </trkpt>
      <trkpt lat="42.71857" lon="0.65991">
        <ele>1621</ele>
        <time>2021-10-17T13:23:35Z</time>
      </trkpt>
      <trkpt lat="42.7186" lon="0.65979">
        <ele>1621</ele>
        <time>2021-10-17T13:23:41Z</time>
      </trkpt>
      <trkpt lat="42.71851" lon="0.65983">
        <ele>1621</ele>
        <time>2021-10-17T13:23:59Z</time>
      </trkpt>
      <trkpt lat="42.71853" lon="0.65969">
        <ele>1621</ele>
        <time>2021-10-17T13:24:18Z</time>
      </trkpt>
      <trkpt lat="42.71857" lon="0.65958">
        <ele>1621</ele>
        <time>2021-10-17T13:24:25Z</time>
      </trkpt>
      <trkpt lat="42.71862" lon="0.65945">
        <ele>1621</ele>
        <time>2021-10-17T13:24:32Z</time>
      </trkpt>
      <trkpt lat="42.71869" lon="0.65937">
        <ele>1621</ele>
        <time>2021-10-17T13:24:39Z</time>
      </trkpt>
      <trkpt lat="42.71875" lon="0.65926">
        <ele>1621</ele>
        <time>2021-10-17T13:24:48Z</time>
      </trkpt>
      <trkpt lat="42.71864" lon="0.65932">
        <ele>1621</ele>
        <time>2021-10-17T13:25:01Z</time>
      </trkpt>
      <trkpt lat="42.71855" lon="0.6594">
        <ele>1621</ele>
        <time>2021-10-17T13:25:08Z</time>
      </trkpt>
      <trkpt lat="42.71845" lon="0.65947">
        <ele>1469</ele>
        <time>2021-10-17T13:25:16Z</time>
      </trkpt>
      <trkpt lat="42.71835" lon="0.65952">
        <ele>1469</ele>
        <time>2021-10-17T13:25:24Z</time>
      </trkpt>
      <trkpt lat="42.71825" lon="0.65953">
        <ele>1469</ele>
        <time>2021-10-17T13:25:34Z</time>
      </trkpt>
      <trkpt lat="42.71816" lon="0.65959">
        <ele>1469</ele>
        <time>2021-10-17T13:25:41Z</time>
      </trkpt>
      <trkpt lat="42.71808" lon="0.65967">
        <ele>1469</ele>
        <time>2021-10-17T13:25:49Z</time>
      </trkpt>
      <trkpt lat="42.7181" lon="0.65955">
        <ele>1469</ele>
        <time>2021-10-17T13:26:03Z</time>
      </trkpt>
      <trkpt lat="42.71813" lon="0.65943">
        <ele>1469</ele>
        <time>2021-10-17T13:26:13Z</time>
      </trkpt>
      <trkpt lat="42.71817" lon="0.65928">
        <ele>1469</ele>
        <time>2021-10-17T13:26:20Z</time>
      </trkpt>
      <trkpt lat="42.71821" lon="0.65916">
        <ele>1469</ele>
        <time>2021-10-17T13:26:26Z</time>
      </trkpt>
      <trkpt lat="42.71831" lon="0.65894">
        <ele>1469</ele>
        <time>2021-10-17T13:26:40Z</time>
      </trkpt>
      <trkpt lat="42.71831" lon="0.65879">
        <ele>1469</ele>
        <time>2021-10-17T13:26:45Z</time>
      </trkpt>
      <trkpt lat="42.71839" lon="0.65871">
        <ele>1469</ele>
        <time>2021-10-17T13:26:51Z</time>
      </trkpt>
      <trkpt lat="42.71849" lon="0.65868">
        <ele>1469</ele>
        <time>2021-10-17T13:26:58Z</time>
      </trkpt>
      <trkpt lat="42.71839" lon="0.65871">
        <ele>1469</ele>
        <time>2021-10-17T13:27:21Z</time>
      </trkpt>
      <trkpt lat="42.7183" lon="0.65876">
        <ele>1469</ele>
        <time>2021-10-17T13:27:28Z</time>
      </trkpt>
      <trkpt lat="42.71821" lon="0.65877">
        <ele>1469</ele>
        <time>2021-10-17T13:27:32Z</time>
      </trkpt>
      <trkpt lat="42.71823" lon="0.65864">
        <ele>1469</ele>
        <time>2021-10-17T13:27:43Z</time>
      </trkpt>
      <trkpt lat="42.71831" lon="0.65856">
        <ele>1469</ele>
        <time>2021-10-17T13:27:49Z</time>
      </trkpt>
      <trkpt lat="42.71838" lon="0.65845">
        <ele>1438</ele>
        <time>2021-10-17T13:27:56Z</time>
      </trkpt>
      <trkpt lat="42.71842" lon="0.65831">
        <ele>1438</ele>
        <time>2021-10-17T13:28:01Z</time>
      </trkpt>
      <trkpt lat="42.71851" lon="0.65829">
        <ele>1438</ele>
        <time>2021-10-17T13:28:10Z</time>
      </trkpt>
      <trkpt lat="42.71861" lon="0.65825">
        <ele>1438</ele>
        <time>2021-10-17T13:28:18Z</time>
      </trkpt>
      <trkpt lat="42.71871" lon="0.65825">
        <ele>1438</ele>
        <time>2021-10-17T13:28:23Z</time>
      </trkpt>
      <trkpt lat="42.71882" lon="0.65824">
        <ele>1438</ele>
        <time>2021-10-17T13:28:30Z</time>
      </trkpt>
      <trkpt lat="42.71889" lon="0.65815">
        <ele>1438</ele>
        <time>2021-10-17T13:28:37Z</time>
      </trkpt>
      <trkpt lat="42.71895" lon="0.65804">
        <ele>1430</ele>
        <time>2021-10-17T13:28:46Z</time>
      </trkpt>
      <trkpt lat="42.71905" lon="0.65803">
        <ele>1430</ele>
        <time>2021-10-17T13:28:53Z</time>
      </trkpt>
      <trkpt lat="42.71912" lon="0.65792">
        <ele>1430</ele>
        <time>2021-10-17T13:29:00Z</time>
      </trkpt>
      <trkpt lat="42.71921" lon="0.65786">
        <ele>1430</ele>
        <time>2021-10-17T13:29:08Z</time>
      </trkpt>
      <trkpt lat="42.71928" lon="0.65775">
        <ele>1425</ele>
        <time>2021-10-17T13:29:16Z</time>
      </trkpt>
      <trkpt lat="42.71934" lon="0.65764">
        <ele>1425</ele>
        <time>2021-10-17T13:29:24Z</time>
      </trkpt>
      <trkpt lat="42.71941" lon="0.65754">
        <ele>1425</ele>
        <time>2021-10-17T13:29:31Z</time>
      </trkpt>
      <trkpt lat="42.71948" lon="0.65746">
        <ele>1425</ele>
        <time>2021-10-17T13:29:38Z</time>
      </trkpt>
      <trkpt lat="42.71955" lon="0.65739">
        <ele>1425</ele>
        <time>2021-10-17T13:29:44Z</time>
      </trkpt>
      <trkpt lat="42.71964" lon="0.65734">
        <ele>1425</ele>
        <time>2021-10-17T13:29:52Z</time>
      </trkpt>
      <trkpt lat="42.71973" lon="0.65728">
        <ele>1425</ele>
        <time>2021-10-17T13:30:02Z</time>
      </trkpt>
      <trkpt lat="42.71981" lon="0.65722">
        <ele>1425</ele>
        <time>2021-10-17T13:30:10Z</time>
      </trkpt>
      <trkpt lat="42.71989" lon="0.65716">
        <ele>1425</ele>
        <time>2021-10-17T13:30:18Z</time>
      </trkpt>
      <trkpt lat="42.71998" lon="0.65707">
        <ele>1412</ele>
        <time>2021-10-17T13:30:26Z</time>
      </trkpt>
      <trkpt lat="42.72002" lon="0.65695">
        <ele>1412</ele>
        <time>2021-10-17T13:30:30Z</time>
      </trkpt>
      <trkpt lat="42.72002" lon="0.65681">
        <ele>1412</ele>
        <time>2021-10-17T13:30:38Z</time>
      </trkpt>
      <trkpt lat="42.72005" lon="0.65666">
        <ele>1408</ele>
        <time>2021-10-17T13:30:46Z</time>
      </trkpt>
      <trkpt lat="42.72013" lon="0.65656">
        <ele>1407</ele>
        <time>2021-10-17T13:30:57Z</time>
      </trkpt>
      <trkpt lat="42.7202" lon="0.65645">
        <ele>1407</ele>
        <time>2021-10-17T13:31:05Z</time>
      </trkpt>
      <trkpt lat="42.72022" lon="0.65632">
        <ele>1407</ele>
        <time>2021-10-17T13:31:11Z</time>
      </trkpt>
      <trkpt lat="42.72026" lon="0.6562">
        <ele>1407</ele>
        <time>2021-10-17T13:31:20Z</time>
      </trkpt>
      <trkpt lat="42.72032" lon="0.6561">
        <ele>1407</ele>
        <time>2021-10-17T13:31:28Z</time>
      </trkpt>
      <trkpt lat="42.72038" lon="0.65598">
        <ele>1407</ele>
        <time>2021-10-17T13:31:33Z</time>
      </trkpt>
      <trkpt lat="42.72043" lon="0.65587">
        <ele>1407</ele>
        <time>2021-10-17T13:31:41Z</time>
      </trkpt>
      <trkpt lat="42.72049" lon="0.65575">
        <ele>1407</ele>
        <time>2021-10-17T13:31:53Z</time>
      </trkpt>
      <trkpt lat="42.72056" lon="0.65566">
        <ele>1407</ele>
        <time>2021-10-17T13:32:00Z</time>
      </trkpt>
      <trkpt lat="42.72062" lon="0.65557">
        <ele>1395</ele>
        <time>2021-10-17T13:32:06Z</time>
      </trkpt>
      <trkpt lat="42.72068" lon="0.65547">
        <ele>1395</ele>
        <time>2021-10-17T13:32:11Z</time>
      </trkpt>
      <trkpt lat="42.72076" lon="0.65537">
        <ele>1395</ele>
        <time>2021-10-17T13:32:18Z</time>
      </trkpt>
      <trkpt lat="42.72082" lon="0.65527">
        <ele>1395</ele>
        <time>2021-10-17T13:32:25Z</time>
      </trkpt>
      <trkpt lat="42.72088" lon="0.65516">
        <ele>1395</ele>
        <time>2021-10-17T13:32:33Z</time>
      </trkpt>
      <trkpt lat="42.72095" lon="0.65507">
        <ele>1395</ele>
        <time>2021-10-17T13:32:55Z</time>
      </trkpt>
      <trkpt lat="42.72098" lon="0.65495">
        <ele>1395</ele>
        <time>2021-10-17T13:33:02Z</time>
      </trkpt>
      <trkpt lat="42.72104" lon="0.65485">
        <ele>1395</ele>
        <time>2021-10-17T13:33:12Z</time>
      </trkpt>
    </trkseg>
  </trk>
</gpx>